[[{"header":{"parameterUnit":"m.s-1","parameterCategory":1,"la1":30.6,"la2":28.766,"lo1":-90.7593,"lo2":-88.6598,"dy":0.0162,"dx":0.0183,"nx":116,"ny":114,"refTime":"2023-07-03T18:00:00:Z","depth":0,"parameterNumber":2,"parameterNumberName":"U-component_of_WINDS"},"data":[0.0,0.0,0.0,0.0,0.0,0.0,0.0,0.0,0.0,0.0,0.0,0.0,0.0,0.0,0.0,0.0,0.0,0.0,0.0,0.0,0.0,0.0,0.0,0.0,0.0,0.0,0.0,0.0,0.0,0.0,0.0,0.0,0.0,0.0,0.0,0.0,0.0,0.0,0.0,0.0,0.0,0.0,0.0,0.0,0.0,0.0,0.0,0.0,0.0,0.0,0.0,0.0,0.0,0.0,0.0,0.0,0.0,0.0,0.0,0.0,0.0,0.0,0.0,0.0,0.0,0.0,0.0,0.0,0.0,0.0,0.0,0.0,0.0,0.0,0.0,0.0,0.0,0.0,0.0,0.0,0.0,0.0,0.0,0.0,0.0,0.0,0.0,0.0,0.0,0.0,0.0,0.0,0.0,0.0,0.0,0.0,0.0,0.0,0.0,0.0,0.0,0.0,0.0,0.0,0.0,0.0,0.0,0.0,0.0,0.0,0.0,0.0,0.0,0.0,0.0,0.0,0.0,0.0,0.0,0.0,0.0,0.0,0.0,0.0,0.0,0.0,0.0,0.0,0.0,0.0,0.0,0.0,0.0,0.0,0.0,0.0,0.0,0.0,0.0,0.0,0.0,0.0,0.0,0.0,0.0,0.0,0.0,0.0,0.0,0.0,0.0,0.0,0.0,0.0,0.0,0.0,0.0,0.0,0.0,0.0,0.0,0.0,0.0,0.0,0.0,0.0,0.0,0.0,0.0,0.0,0.0,0.0,0.0,0.0,0.0,0.0,0.0,0.0,0.0,0.0,0.0,0.0,0.0,0.0,0.0,0.0,0.0,0.0,0.0,0.0,0.0,0.0,0.0,0.0,0.0,0.0,0.0,0.0,0.0,0.0,0.0,0.0,0.0,0.0,0.0,0.0,0.0,0.0,0.0,0.0,0.0,0.0,0.0,0.0,0.0,0.0,0.0,0.0,0.0,0.0,0.0,0.0,0.0,0.0,0.0,0.0,0.0,0.0,0.0,0.0,0.0,0.0,0.0,0.0,0.0,0.0,0.0,0.0,0.0,0.0,0.0,0.0,0.0,0.0,0.0,0.0,0.0,0.0,0.0,0.0,0.0,0.0,0.0,0.0,0.0,0.0,0.0,0.0,0.0,0.0,0.0,0.0,0.0,0.0,0.0,0.0,0.0,0.0,0.0,0.0,0.0,0.0,0.0,0.0,0.0,0.0,0.0,0.0,0.0,0.0,0.0,0.0,0.0,0.0,0.0,0.0,0.0,0.0,0.0,0.0,0.0,0.0,0.0,0.0,0.0,0.0,0.0,0.0,0.0,0.0,0.0,0.0,0.0,0.0,0.0,0.0,0.0,0.0,0.0,0.0,0.0,0.0,0.0,0.0,0.0,0.0,0.0,0.0,0.0,0.0,0.0,0.0,0.0,0.0,0.0,0.0,0.0,0.0,0.0,0.0,0.0,0.0,0.0,0.0,0.0,0.0,0.0,0.0,0.0,0.0,0.0,0.0,0.0,0.0,0.0,0.0,0.0,0.0,0.0,0.0,0.0,0.0,0.0,0.0,0.0,0.0,0.0,0.0,0.0,0.0,0.0,0.0,0.0,0.0,0.0,0.0,0.0,0.0,0.0,0.0,0.0,0.0,0.0,0.0,0.0,0.0,0.0,0.0,0.0,0.0,0.0,0.0,0.0,0.0,0.0,0.0,0.0,0.0,0.0,0.0,0.0,0.0,0.0,0.0,0.0,0.0,0.0,0.0,0.0,0.0,0.0,0.0,0.0,0.0,0.0,0.0,0.0,0.0,0.0,0.0,0.0,0.0,0.0,0.0,0.0,0.0,0.0,0.0,0.0,0.0,0.0,0.0,0.0,0.0,0.0,0.0,0.0,0.0,0.0,0.0,0.0,0.0,0.0,0.0,0.0,0.0,0.0,0.0,0.0,0.0,0.0,0.0,0.0,0.0,0.0,0.0,0.0,0.0,0.0,0.0,0.0,0.0,0.0,0.0,0.0,0.0,0.0,0.0,0.0,0.0,0.0,0.0,0.0,0.0,0.0,0.0,0.0,0.0,0.0,0.0,0.0,0.0,0.0,0.0,0.0,0.0,0.0,0.0,0.0,0.0,0.0,0.0,0.0,0.0,0.0,0.0,0.0,0.0,0.0,0.0,0.0,0.0,0.0,0.0,0.0,0.0,0.0,0.0,0.0,0.0,0.0,0.0,0.0,0.0,0.0,0.0,0.0,0.0,0.0,0.0,0.0,0.0,0.0,0.0,0.0,0.0,0.0,0.0,0.0,0.0,0.0,0.0,0.0,0.0,0.0,0.0,0.0,0.0,0.0,0.0,0.0,0.0,0.0,0.0,0.0,0.0,0.0,0.0,0.0,0.0,0.0,0.0,0.0,0.0,0.0,0.0,0.0,0.0,0.0,0.0,0.0,0.0,0.0,0.0,0.0,0.0,0.0,0.0,0.0,0.0,0.0,0.0,0.0,0.0,0.0,0.0,0.0,0.0,0.0,0.0,0.0,0.0,0.0,0.0,0.0,0.0,0.0,0.0,0.0,0.0,0.0,0.0,0.0,0.0,0.0,0.0,0.0,0.0,0.0,0.0,0.0,0.0,0.0,0.0,0.0,0.0,0.0,0.0,0.0,0.0,0.0,0.0,0.0,0.0,0.0,0.0,0.0,0.0,0.0,0.0,0.0,0.0,0.0,0.0,0.0,0.0,0.0,0.0,0.0,0.0,0.0,0.0,0.0,0.0,0.0,0.0,0.0,0.0,0.0,0.0,0.0,0.0,0.0,0.0,0.0,0.0,0.0,0.0,0.0,0.0,0.0,0.0,0.0,0.0,0.0,0.0,0.0,0.0,0.0,0.0,0.0,0.0,0.0,0.0,0.0,0.0,0.0,0.0,0.0,0.0,0.0,0.0,0.0,0.0,0.0,0.0,0.0,0.0,0.0,0.0,0.0,0.0,0.0,0.0,0.0,0.0,0.0,0.0,0.0,0.0,0.0,0.0,0.0,0.0,0.0,0.0,0.0,0.0,0.0,0.0,0.0,0.0,0.0,0.0,0.0,0.0,0.0,0.0,0.0,0.0,0.0,0.0,0.0,0.0,0.0,0.0,0.0,0.0,0.0,0.0,0.0,0.0,0.0,0.0,0.0,0.0,0.0,0.0,0.0,0.0,0.0,0.0,0.0,0.0,0.0,0.0,0.0,0.0,0.0,0.0,0.0,0.0,0.0,0.0,0.0,0.0,0.0,0.0,0.0,0.0,0.0,0.0,0.0,0.0,0.0,0.0,0.0,0.0,0.0,0.0,0.0,0.0,0.0,0.0,0.0,0.0,0.0,0.0,0.0,0.0,0.0,0.0,0.0,0.0,0.0,0.0,0.0,0.0,0.0,0.0,0.0,0.0,0.0,0.0,0.0,0.0,0.0,0.0,0.0,0.0,0.0,0.0,0.0,0.0,0.0,0.0,0.0,0.0,0.0,0.0,0.0,0.0,0.0,0.0,0.0,0.0,0.0,0.0,0.0,0.0,0.0,0.0,0.0,0.0,0.0,0.0,0.0,0.0,0.0,0.0,0.0,0.0,0.0,0.0,0.0,0.0,0.0,0.0,0.0,0.0,0.0,0.0,0.0,0.0,0.0,0.0,0.0,0.0,0.0,0.0,0.0,0.0,0.0,0.0,0.0,0.0,0.0,0.0,0.0,0.0,0.0,0.0,0.0,0.0,0.0,0.0,0.0,0.0,0.0,0.0,0.0,0.0,0.0,0.0,0.0,0.0,0.0,0.0,0.0,0.0,0.0,0.0,0.0,0.0,0.0,0.0,0.0,0.0,0.0,0.0,0.0,0.0,0.0,0.0,0.0,0.0,0.0,0.0,0.0,0.0,0.0,0.0,0.0,0.0,0.0,0.0,0.0,0.0,0.0,0.0,0.0,0.0,0.0,0.0,0.0,0.0,0.0,0.0,0.0,0.0,0.0,0.0,0.0,0.0,0.0,0.0,0.0,0.0,0.0,0.0,0.0,0.0,0.0,0.0,0.0,0.0,0.0,0.0,0.0,0.0,0.0,0.0,0.0,0.0,0.0,0.0,0.0,0.0,0.0,0.0,0.0,0.0,0.0,0.0,0.0,0.0,0.0,0.0,0.0,0.0,0.0,0.0,0.0,0.0,0.0,0.0,0.0,0.0,0.0,0.0,0.0,0.0,0.0,0.0,0.0,0.0,0.0,0.0,0.0,0.0,0.0,0.0,0.0,0.0,0.0,0.0,0.0,0.0,0.0,0.0,0.0,0.0,0.0,0.0,0.0,0.0,0.0,0.0,0.0,0.0,0.0,0.0,0.0,0.0,0.0,0.0,0.0,0.0,0.0,0.0,0.0,0.0,0.0,0.0,0.0,0.0,0.0,0.0,0.0,0.0,0.0,0.0,0.0,0.0,0.0,0.0,0.0,0.0,0.0,0.0,0.0,0.0,0.0,0.0,0.0,0.0,0.0,0.0,0.0,0.0,0.0,0.0,0.0,0.0,0.0,0.0,0.0,0.0,0.0,0.0,0.0,0.0,0.0,0.0,0.0,0.0,0.0,0.0,0.0,0.0,0.0,0.0,0.0,0.0,0.0,0.0,0.0,0.0,0.0,0.0,0.0,0.0,0.0,0.0,0.0,0.0,0.0,0.0,0.0,0.0,0.0,0.0,0.0,0.0,0.0,0.0,0.0,0.0,0.0,0.0,0.0,0.0,0.0,0.0,0.0,0.0,0.0,0.0,0.0,0.0,0.0,0.0,0.0,0.0,0.0,0.0,0.0,0.0,0.0,0.0,0.0,0.0,0.0,0.0,0.0,0.0,0.0,0.0,0.0,0.0,0.0,0.0,0.0,0.0,0.0,0.0,0.0,0.0,0.0,0.0,0.0,0.0,0.0,0.0,0.0,0.0,0.0,0.0,0.0,0.0,0.0,0.0,0.0,0.0,0.0,0.0,0.0,0.0,0.0,0.0,0.0,0.0,0.0,0.0,0.0,0.0,0.0,0.0,0.0,0.0,0.0,0.0,0.0,0.0,0.0,0.0,0.0,0.0,0.0,0.0,0.0,0.0,0.0,0.0,0.0,0.0,0.0,0.0,0.0,0.0,0.0,0.0,0.0,0.0,0.0,0.0,0.0,0.0,0.0,0.0,0.0,0.0,0.0,0.0,0.0,0.0,0.0,0.0,0.0,0.0,0.0,0.0,0.0,0.0,0.0,0.0,0.0,0.0,0.0,0.0,0.0,0.0,0.0,0.0,0.0,0.0,0.0,0.0,0.0,0.0,0.0,0.0,0.0,0.0,0.0,0.0,0.0,0.0,0.0,0.0,0.0,0.0,0.0,0.0,0.0,0.0,0.0,0.0,0.0,0.0,0.0,0.0,0.0,0.0,0.0,0.0,0.0,0.0,0.0,0.0,0.0,0.0,0.0,0.0,0.0,0.0,0.0,0.0,0.0,0.0,0.0,0.0,0.0,0.0,0.0,0.0,0.0,0.0,0.0,0.0,0.0,0.0,0.0,0.0,0.0,0.0,0.0,0.0,0.0,0.0,0.0,0.0,0.0,0.0,0.0,0.0,0.0,0.0,0.0,0.0,0.0,0.0,0.0,0.0,0.0,0.0,0.0,0.0,0.0,0.0,0.0,0.0,0.0,0.0,0.0,0.0,0.0,0.0,0.0,0.0,0.0,0.0,0.0,0.0,0.0,0.0,0.0,0.0,0.0,0.0,0.0,0.0,0.0,0.0,0.0,0.0,0.0,0.0,0.0,0.0,0.0,0.0,0.0,0.0,0.0,0.0,0.0,0.0,0.0,0.0,0.0,0.0,0.0,0.0,0.0,0.0,0.0,0.0,0.0,0.0,0.0,0.0,0.0,0.0,0.0,0.0,0.0,0.0,0.0,0.0,0.0,0.0,0.0,0.0,0.0,0.0,0.0,0.0,0.0,0.0,0.0,0.0,0.0,0.0,0.0,0.0,0.0,0.0,0.0,0.0,0.0,0.0,0.0,0.0,0.0,0.0,0.0,0.0,0.0,0.0,0.0,0.0,0.0,0.0,0.0,0.0,0.0,0.0,0.0,0.0,0.1647,0.0,0.0,0.0,0.0,0.0,0.0,0.0,0.0,0.0,0.0,0.0,0.0,0.0,0.0,0.0,0.0,0.0,0.0,0.0,0.0,0.0,0.0,0.0,0.0,0.0,0.0,0.0,0.0,0.0,0.0,0.0,0.0,0.0,0.0,0.0,0.0,0.0,0.0,0.0,0.5382,0.5831,0.5712,0.611,0.623,0.6166,0.0,0.0,0.0,0.0,0.0,0.0,0.0,0.0,0.0,0.0,0.0,0.0,0.0,0.0,0.0,0.0,0.0,0.0,0.0,0.0,0.0,0.0,0.0,0.0,0.0,0.0,0.0,0.0,0.0,0.0,0.0,0.0,0.0,0.0,0.0,0.0,0.0,0.0,0.0,0.0,0.0,0.0,0.0,0.0,0.0,0.0,0.0,0.0,0.0,0.0,0.0,0.0,0.0,0.0,0.0,0.0,0.0,0.0,0.0,0.0,0.0,0.0,0.0,0.0,0.0,0.0,0.0,0.0,0.0,0.0,0.0,-0.0641,0.0,0.0,0.0,0.0,0.0,0.0,0.0,0.0,0.0,0.0,0.0,0.0,0.0,0.0,0.0,0.0,0.0,0.0,0.0,0.0,0.0,0.0,0.0,0.0,0.0,0.0,0.0,0.0,0.0,0.0,0.0,0.0,0.0,0.0,0.0,0.0,0.0,0.0,0.5626,0.6409,0.653,0.6911,0.7054,0.6864,0.6494,0.0,0.0,0.0,0.0,0.0,0.0,0.0,0.0,0.0,0.0,0.0,0.0,0.0,0.0,0.0,0.0,0.0,0.0,0.0,0.0,0.0,0.0,0.0,0.0,0.0,0.0,0.0,0.0,0.0,0.0,0.0,0.0,0.0,0.0,0.0,0.0,0.0,0.0,0.0,0.0,0.0,0.0,0.0,0.0,0.0,0.0,0.0,0.0,0.0,0.0,0.0,0.0,0.0,0.0,0.0,0.0,0.0,0.0,0.0,0.0,0.0,0.0,0.0,0.0,0.0,0.0109,0.4575,0.6384,0.5656,0.1718,-0.0,-0.0287,0.0,0.0,0.0,0.0,0.0,0.0,0.0,0.0,0.0,0.0,0.0,0.0,0.0,0.0,0.0,0.0,0.0,0.0,0.0,0.0,0.0,0.0,0.0,0.0,0.0,0.0,0.0,0.0,0.0,0.0,0.0,0.0,0.0,0.0,0.4309,0.4216,0.403,0.6034,0.723,0.7783,0.7783,0.7743,0.7425,0.6571,0.6073,0.588,0.0,0.0,0.0,0.0,0.0,0.0,0.0,0.0,0.0,0.0,0.0,0.0,0.0,0.0,0.0,0.0,0.0,0.0,0.0,0.0,0.0,0.0,0.0,0.0,0.0,0.0,0.0,0.0,0.0,0.0,0.0,0.0,0.0,0.0,0.0,0.0,0.0,0.0,0.0,0.0,0.0,0.757,0.757,0.0,0.0,0.0,0.0,0.0,0.0,0.0,0.0,0.0,0.0,0.0,0.0,0.0,0.0,0.7494,0.7086,0.4977,0.1107,0.5032,0.4528,-0.0,0.0698,0.1048,0.0933,0.023,0.0,-0.02,-0.3071,0.0,0.0,0.0,0.0,0.0,0.0,0.0,0.0,0.0,0.0,0.0,0.0,0.0,0.0,0.0,0.0,0.0,0.0,0.0,0.0,0.0,0.0,0.0,0.0,0.0,0.0,0.0,0.0,0.0,0.0,0.0,0.0,0.0,0.192,0.3404,0.6511,0.743,0.8069,0.8289,0.8289,0.8267,0.819,0.7795,0.7102,0.6192,0.5847,0.0,0.0,0.0,0.0,0.0,0.0,0.0,0.0,0.0,0.0,0.0,0.0,0.0,0.0,0.0,0.0,0.0,0.0,0.0,0.0,0.0,0.0,0.0,0.0,0.0,0.0,0.0,0.0,0.0,0.0,0.0,0.0,0.0,0.0,0.0,0.0,0.0,0.0,0.0,0.7244,0.7475,0.7489,0.7161,0.6447,0.0,0.0,0.0,0.0,0.0,0.0,0.0,0.0,0.0,0.7174,0.8383,0.7968,0.5753,0.73,0.6832,0.4506,0.388,0.2225,-0.0,-0.0,-0.0,-0.0251,-0.4274,-0.6064,-0.589,-0.4792,-0.5513,-0.7379,0.0,0.0,0.0,0.0,0.0,-0.7925,0.0,0.0,0.0,0.0,0.0,0.0,0.0,0.0,0.0,0.0,0.0,0.0,0.0,0.0,0.0,0.61,0.0,0.0,0.0,0.0,0.0,0.0,0.0,0.0,-0.0,0.1378,0.4091,0.8362,0.8489,0.8546,0.8508,0.8508,0.8605,0.8783,0.8852,0.82,0.6883,0.6663,0.6233,0.5808,0.0,0.0,0.0,0.0,0.0,0.0,0.0,0.0,0.0,0.0,0.0,0.0,0.0,0.0,0.0,0.0,0.0,0.0,0.0,0.0,0.0,0.0,0.0,0.0,0.0,0.0,0.0,0.0,0.0,0.0,0.0,0.0,0.0,0.0,0.0,0.0,0.0,0.7168,0.7489,0.7564,0.6743,0.5863,0.0,0.0,0.0,0.0,0.0,0.0,0.5691,0.7419,0.8231,0.7704,0.8775,0.8078,0.554,0.576,0.5967,0.591,0.1919,-0.0,-0.0,-0.1865,-0.2797,-0.2929,-0.7445,-0.9786,-1.0415,-0.7088,-0.6797,-0.8357,-0.7851,-0.7634,0.0,-0.777,-0.7875,-0.7997,0.0,0.0,0.0,0.0,0.0,0.0,0.0,0.0,0.0,0.0,0.0,0.0,0.0,0.0,0.6593,0.778,0.5735,0.5388,0.0,0.0,0.0,0.0,0.0,0.0,0.0,0.5027,0.7761,0.7997,0.8323,0.8464,0.8526,0.8526,0.8671,0.8926,0.9239,0.9013,0.8334,0.7782,0.7572,0.7405,0.5815,0.0,0.0,0.0,0.0,0.0,0.0,0.0,0.0,0.0,0.0,0.0,0.0,0.0,0.0,0.0,0.0,0.0,0.0,0.0,0.0,0.0,0.0,0.0,0.0,0.0,0.0,0.0,0.0,0.0,0.0,0.0,0.0,0.0,0.0,0.0,0.0,0.0,0.0,0.7949,0.6472,0.0,0.0,0.0,0.0,0.7772,0.7836,0.7791,0.7841,0.9027,0.7988,0.4396,0.6766,0.8519,0.9544,0.3516,0.0394,0.0394,0.0135,-0.0,-0.0274,-0.7011,-1.0207,-1.0057,-0.7024,-0.7445,-1.0333,-0.9595,-0.9128,-0.8814,-0.8503,-0.8343,-0.8241,-0.8384,-0.8621,-0.8896,0.0,0.0,0.0,0.0,0.0,0.0,0.0,0.0,0.0,0.0,0.0,0.0,0.0,0.7586,0.6147,0.3161,0.3572,0.5207,0.7823,0.0,0.0,0.0,0.0,0.0,0.0,0.0,0.2806,0.2832,0.2917,0.4016,0.589,0.589,0.5959,0.6081,0.616,0.7383,0.9346,0.8749,0.8157,0.7604,0.7201,0.6164,0.0,0.0,0.0,0.0,0.0,0.0,0.0,0.0,0.0,0.0,0.0,0.0,0.0,0.0,0.0,0.0,0.0,0.0,0.0,0.0,0.0,0.0,0.0,0.0,0.0,0.0,0.0,0.0,0.0,0.0,0.0,0.0,0.0,0.0,0.0,0.0,0.0,0.8143,0.676,0.0,0.0,0.7605,0.7648,0.8491,0.6599,0.5418,0.5473,0.7482,0.8355,0.7709,0.452,0.3089,0.3495,0.1215,-0.0,-0.0,-0.5066,-0.7301,-0.6885,-0.7144,-0.8483,-1.0621,-0.9303,-0.951,-1.0521,-1.0324,-0.9893,-0.9415,-0.9161,-0.8967,-0.8845,-0.8896,-0.8984,-0.9096,0.0,0.0,0.0,0.0,0.0,0.0,0.0,0.0,0.0,0.0,0.0,0.1328,0.4948,0.6948,0.6597,0.3048,0.2655,0.3122,0.4353,0.0,0.0,0.0,-0.0,0.0,0.0,-0.0,-0.0,-0.0,-0.0,0.1037,0.2958,0.2958,0.3581,0.4487,0.4484,0.6454,0.97,0.8157,0.7791,0.8159,0.8011,0.7012,0.5227,0.0,0.0,0.0,0.0,0.0,0.0,0.0,0.0,0.0,0.0,0.0,0.0,0.0,0.0,0.0,0.0,0.0,0.0,0.0,0.0,0.0,0.0,0.0,0.0,0.0,0.0,0.0,0.0,0.0,0.0,0.0,0.0,0.0,0.0,0.0,0.8385,0.878,0.7761,0.7422,0.8487,0.7803,0.762,0.8512,0.6734,0.4823,0.2785,0.4312,0.5633,0.6423,0.2223,-0.0,-0.0,-0.0,-0.1234,-0.3686,-0.8812,-1.121,-1.0779,-0.8368,-0.8457,-1.0725,-1.0645,-1.0741,-1.0734,-1.0616,-1.0361,-1.0019,-0.9724,-0.9544,-0.9449,-0.9398,-0.9378,-0.9388,0.0,0.0,0.0,0.0,0.0,0.0,0.0,0.0,0.0,0.0,-0.0,-0.0,-0.0,0.4647,0.7778,0.7711,0.2962,-0.0702,-0.2359,-0.2507,0.0,0.0,0.0,0.0,-0.0,-0.0,-0.0,-0.0,-0.0,-0.0,-0.0,-0.0,0.1583,0.4331,0.4322,0.6234,0.9268,0.6177,0.6582,0.9235,0.8218,0.793,0.7638,0.0,0.0,0.0,0.0,0.0,0.0,0.0,0.0,0.0,0.0,0.0,0.0,0.0,0.0,0.0,0.0,0.0,0.0,0.0,0.0,0.0,0.0,0.0,0.0,0.0,0.0,0.0,0.0,0.0,0.0,0.0,0.0,0.0,0.843,0.8264,0.8428,0.9481,0.9123,0.9046,0.9781,0.6412,0.522,0.7562,0.8282,0.6121,0.0269,-0.0,-0.0,-0.0,-0.0,-0.014,-0.0413,-0.0138,-0.3552,-1.0581,-1.0584,-1.0916,-1.1176,-1.0859,-1.07,-1.0687,-1.0658,-1.0721,-1.0721,-1.0721,-1.0633,-1.047,-1.0175,-1.0053,-1.0029,-0.9876,-0.9822,-0.9798,0.0,0.0,0.0,0.0,0.0,0.0,0.0,0.0,0.0,0.0,-0.0,-0.0,-0.0,0.1339,0.2167,0.2179,0.0827,-0.0202,-0.0675,0.0,0.0,0.0,0.0,0.0,-0.0,-0.0,-0.0,-0.0,-0.0,-0.0,-0.0,-0.0,0.0492,0.1236,0.1248,0.1761,0.2782,0.4261,0.5395,0.6127,0.5825,0.6649,0.7886,0.0,0.0,0.0,0.0,0.0,0.0,0.0,0.0,0.0,0.0,0.0,0.0,0.0,0.0,0.0,0.0,0.0,0.0,0.0,0.0,0.0,0.0,0.0,0.0,0.0,0.0,0.0,0.0,0.0,0.0,0.0,0.0,0.8007,0.8129,0.8285,0.7668,0.5822,0.5827,0.7,0.9564,0.8816,0.6479,0.2495,0.2416,0.1777,0.0139,-0.0,-0.0,-0.0,-0.0,-0.2725,-0.8371,-0.2803,-0.2363,-0.6917,-0.9519,-1.074,-1.0859,-1.0833,-1.0762,-1.0655,-1.0741,-1.0721,-1.0721,-1.0721,-1.0697,-1.0629,-1.0334,-1.0148,-1.0029,-0.9876,-0.9822,-0.9798,0.0,0.0,0.0,0.0,0.0,0.0,0.0,0.0,0.0,0.0,-0.0477,-0.0,-0.0,-0.0,-0.0,-0.0,-0.0,-0.0,-0.0,0.0,0.0,0.0,0.0,-0.0,-0.0,-0.0,-0.0,-0.0,-0.0,-0.0,-0.0,-0.0,-0.0,-0.0,-0.0,-0.0,0.0129,0.2095,0.2898,0.2885,0.2788,0.3627,0.4914,0.7158,0.4669,-0.0,-0.0,-0.0,-0.0,-0.0,0.0,0.0,0.0,0.0,0.0,0.0,0.0,0.0,0.0,0.0,0.0,0.0,0.0,0.0,0.0,0.0,0.0,0.0,0.0,0.0,0.0,0.0,0.0,0.0,0.2621,0.5023,0.6212,0.7472,0.7782,0.6188,0.4202,0.3645,0.5515,0.5727,0.4174,0.0271,-0.0,-0.0,-0.0,-0.0,-0.0,-0.0,-0.0,-0.2175,-0.6733,-0.5227,-0.4749,-0.5398,-0.9036,-1.0756,-1.0735,-1.0722,-1.0806,0.0,-1.0721,-1.0721,-1.0721,-1.0721,-1.068,0.0,0.0,0.0,0.0,0.0,-0.9822,-0.9808,0.0,0.0,0.0,0.0,0.0,0.0,0.0,0.0,0.0,0.0,0.0,-0.0195,-0.0,-0.0,-0.0203,-0.062,-0.069,-0.0472,0.0,0.0,0.0,-0.2162,-0.0808,-0.0,-0.0,-0.0,-0.0,-0.0,-0.0,-0.0,-0.0,-0.0,-0.0,-0.0,-0.0,-0.0,-0.0,-0.0,-0.0,-0.0,-0.0,-0.0,0.0503,0.5255,0.4184,-0.0,-0.0,-0.0,-0.0,-0.0,0.0,0.0,0.0,0.0,0.0,0.0,0.0,0.0,0.0,0.0,0.0,0.0,0.0,0.0,0.0,0.0,0.0,0.0,0.0,0.0,0.0,0.0,0.0,0.0,-0.0,0.0819,0.3271,0.561,0.7321,0.7881,0.3279,-0.0,-0.0,-0.0,-0.0,-0.0,-0.0,-0.0,-0.0,0.0,0.0,0.0,0.0,-0.0145,-0.0717,-0.7363,-0.9085,-0.6035,-0.9198,-1.0741,-1.0721,-1.0721,-1.0721,-1.0721,-1.0721,-1.0721,-1.0721,-1.0721,-1.0619,-1.0453,-1.031,-1.0243,-1.0195,-0.992,-0.9822,0.0,0.0,0.0,0.0,0.0,0.0,0.0,0.0,0.0,0.0,-0.3029,-0.2573,-0.1756,-0.0206,-0.0,-0.1417,-0.4788,-0.5099,-0.3663,0.0,0.0,-0.0097,-0.0502,-0.0213,-0.0,-0.0,-0.0,-0.0,-0.0,-0.0,-0.0,-0.0,-0.0,-0.0,-0.0,-0.0,-0.0,-0.0,-0.0,-0.0,-0.0,-0.0,-0.0,0.0128,0.1093,0.0944,-0.0,-0.0,-0.0,-0.0,-0.0,-0.0,-0.0,-0.0,-0.0,0.0,0.0,0.0,0.0,0.0,0.0,0.0,0.0,0.0,0.0,0.0,0.0,0.0,0.0,0.0,0.0,0.0,0.0,0.0,-0.0,-0.0,0.0121,0.0761,0.1158,0.156,0.1704,0.0671,-0.0,-0.0,-0.0,-0.0,-0.0,-0.0,-0.0,-0.0,-0.0,0.0,-0.0,-0.0,-0.1455,-0.4632,-0.8677,-1.0531,-1.0141,0.0,0.0,-1.0721,-1.0721,-1.0721,-1.0721,-1.0721,-1.0721,-1.0721,-1.0721,-1.0561,-1.0307,-1.0154,-1.0019,-0.9903,-0.9842,-0.9822,-0.9822,0.0,0.0,0.0,0.0,0.0,0.0,0.0,0.0,0.0,0.0,-0.4128,-0.4674,-0.3665,-0.3323,-0.3575,-0.4645,-0.5665,0.0,0.0,-0.0,-0.0,-0.0,-0.0,-0.0,-0.0,-0.0,-0.0,-0.0,-0.0,-0.0,-0.0,-0.0,-0.0,-0.0,-0.0,-0.0,-0.0,-0.0,-0.0,-0.0,-0.0,-0.0,-0.0,-0.0,-0.0,-0.0,-0.0,-0.0,-0.0,-0.0,-0.0,-0.0,-0.0,-0.0,-0.0,0.0,0.0,0.0,0.0,0.0,0.0,0.0,0.0,0.0,0.0,0.0,0.0,0.0,0.0,-0.0,0.0,0.0,-0.0,-0.0,-0.0,-0.0,-0.0,-0.0,-0.0,-0.0,-0.0,-0.0,-0.0,-0.0,-0.0,-0.0,-0.0,-0.0,-0.0,-0.0,-0.0,-0.0,-0.3818,-0.6757,-0.8754,-1.0109,-1.0948,-1.1044,-1.088,-1.0731,-1.0721,-1.0721,-1.0721,-1.0721,-1.0721,-1.0721,-1.0707,-1.0561,-1.0415,-1.0256,-1.0025,-0.9886,-0.9822,-0.9822,-0.9822,-0.9822,0.0,0.0,0.0,0.0,0.0,0.0,0.0,0.0,0.0,0.0,-0.5729,-0.7102,-0.7054,-0.668,-0.5734,0.0,0.0,0.0,0.0,-0.0195,-0.0,-0.0,-0.0,-0.0,-0.0,-0.0,-0.0,-0.0,-0.0,-0.0,-0.0,-0.0,-0.0,-0.0,-0.0,-0.0,-0.0,-0.0,-0.0,-0.0,-0.0,-0.0,-0.0,-0.0,-0.0,-0.0,-0.0,-0.0,-0.0,-0.0,-0.0,-0.0,-0.0,-0.0293,-0.0571,-0.0551,-0.0543,0.0,0.0,0.0,0.0,0.0,0.0,0.0,0.0,0.0,-0.0,-0.0,-0.0,-0.0,-0.0,-0.0,-0.0,-0.0,-0.0,-0.0,-0.0,-0.0,-0.0,-0.0,-0.0,-0.0,-0.0,-0.0,-0.0,-0.0,-0.0,-0.0,-0.0,-0.0,-0.0748,-0.2198,-0.8262,-1.153,-1.158,-1.1208,-1.1037,-1.1057,-1.0873,-1.0721,-1.0721,-1.0721,-1.0721,-1.0721,-1.0721,-1.0721,-1.0697,-1.0402,-1.028,-1.0249,-0.9941,-0.9822,-0.9822,-0.9822,-0.9822,-0.9822,0.0,0.0,0.0,0.0,0.0,0.0,0.0,0.0,0.0,0.0,0.0,0.0,0.0,0.0,0.0,0.0,0.0,0.0,-0.2865,-0.0998,-0.0,-0.0,-0.0,-0.0,-0.0,-0.0,-0.0,-0.0,-0.0,-0.0,-0.0,-0.0,-0.0,-0.0,-0.0,-0.0,-0.0,-0.0,-0.0,-0.0,-0.0,-0.0,-0.0,-0.0,-0.0,-0.0,-0.0,-0.0,-0.0,-0.0,-0.0,-0.0,-0.0,-0.1209,-0.2537,-0.2577,0.0,-0.2411,-0.1477,-0.0608,-0.0,-0.0,-0.0,-0.0,0.0,0.0,-0.0,-0.0,-0.0,-0.0,-0.0,-0.0,-0.0,-0.0,-0.0,-0.0,-0.0,-0.0,-0.0,-0.0,-0.0,-0.0,-0.0,-0.0,-0.0,-0.0,-0.0,-0.0,-0.0,-0.0,-0.3125,-1.0133,-1.0668,-1.1018,-1.166,-1.1084,-1.092,-1.1165,-1.0863,-1.0721,-1.0721,-1.0721,-1.0721,-1.0721,-1.0721,-1.0721,-1.0697,-1.0402,-1.028,-1.0249,-0.9941,-0.9822,-0.9822,-0.9822,-0.9822,-0.9822,0.0,0.0,0.0,0.0,0.0,0.0,0.0,0.0,0.0,0.0,0.0,0.0,0.0,0.0,0.0,0.0,0.0,0.0,-0.5025,-0.1823,-0.0,-0.0,-0.0,-0.0,-0.0,-0.0,-0.0,-0.0,-0.0,-0.0,-0.0,-0.0,-0.0,-0.0,-0.0,-0.0,-0.0,-0.0,-0.0,-0.0,-0.0,-0.0,-0.0,-0.0,-0.0,-0.0116,-0.1125,-0.1424,0.0,-0.0312,-0.0,-0.0201,-0.1191,-0.2056,-0.2683,-0.266,-0.2819,0.0,-0.2422,0.0,0.0,0.0,-0.0,-0.0,-0.0,-0.0,-0.0,-0.0,-0.0,-0.0,-0.0,-0.0,-0.0,0.0,-0.0,-0.0,-0.0,-0.0,-0.0,-0.0,-0.0,-0.0,-0.0,-0.0,-0.0,-0.0,-0.0,-0.0,-0.0,-0.4585,-0.8661,-1.1547,-1.1407,-1.1458,-1.1379,-1.109,-1.0933,-1.1036,-1.0822,-1.0721,-1.0721,-1.0721,-1.0721,-1.0721,-1.0721,-1.0721,-1.0697,-1.0402,-1.028,-1.0249,-0.9941,-0.9822,-0.9822,-0.9822,-0.9822,-0.9822,0.0,0.0,0.0,0.0,0.0,0.0,0.0,0.0,0.0,0.0,0.0,0.0,0.0,0.0,0.0,0.0,0.0,0.0,0.0,-0.2301,-0.0,-0.0,-0.0,-0.0,-0.0,-0.1833,-0.2742,-0.2922,-0.1932,-0.0914,-0.0,-0.0,-0.0,-0.0,-0.0,-0.0,-0.0,-0.0,-0.0,-0.0,-0.0,-0.0,-0.0,-0.0477,-0.1132,-0.1925,-0.3063,-0.3511,-0.321,-0.1356,-0.0575,-0.0573,-0.1791,-0.243,-0.2675,-0.282,-0.3009,-0.3093,-0.2921,0.0,0.0,-0.0099,-0.0,-0.0,-0.0,-0.0,-0.0,-0.0,-0.0,-0.0,-0.0,-0.0,-0.0,-0.0,-0.0,-0.0,-0.0,-0.0,-0.0,-0.0,-0.1604,-0.204,-0.0138,-0.0,-0.0,-0.0,-0.0,-0.1072,-0.3353,-0.8977,-1.2152,-1.1707,-1.1707,-1.1569,-1.1275,-1.1165,-1.1009,-1.0948,-1.0795,-1.0721,-1.0721,-1.0721,-1.0721,-1.0717,-1.0677,-1.0656,-1.0633,-1.0337,-1.0215,-1.0188,-0.9924,-0.9822,-0.9815,-0.9778,-0.9788,-0.9822,0.0,0.0,0.0,0.0,0.0,0.0,0.0,0.0,0.0,0.0,0.0,0.0,0.0,0.0,0.0,0.0,0.0,0.0,0.0,-0.2375,-0.0,-0.0,-0.0,-0.0,-0.0,-0.6211,-0.983,-1.0382,-0.6924,-0.3435,-0.0,-0.0,-0.0,-0.0,-0.0,-0.0,-0.0,-0.0,-0.0,-0.0,-0.0,-0.0,-0.012,-0.1801,-0.3934,-0.6098,-0.6196,-0.6174,-0.576,-0.3259,-0.1886,-0.1257,-0.1348,-0.2125,0.0,-0.3738,-0.3683,-0.3472,-0.2858,0.0,-0.1153,-0.02,-0.0,-0.0,-0.0,-0.0,-0.0,-0.0,-0.0,-0.0,-0.0,-0.0,-0.0,-0.0,-0.0,-0.0,-0.0,-0.0,-0.0,-0.0,-0.5608,-0.694,0.0,-0.0,-0.0,-0.0,-0.0,-0.3506,-1.1632,-1.1821,-1.1714,-1.1948,-1.1392,-1.1147,-1.1392,-1.0955,-1.0806,-1.0948,-1.0795,-1.0721,-1.0721,-1.0721,-1.0721,-1.0711,-1.0565,-1.05,-1.0477,-1.0178,-1.0056,-1.0039,-0.9883,-0.9822,-0.9805,-0.9666,-0.9703,-0.9822,0.0,0.0,0.0,0.0,0.0,0.0,0.0,0.0,0.0,0.0,0.0,0.0,0.0,0.0,0.0,0.0,0.0,0.0,0.0,-0.4042,-0.2664,-0.2616,-0.2666,-0.2778,-0.2955,-0.512,-0.7506,-0.9889,-0.8778,-0.777,-0.6737,-0.2177,-0.0,-0.0,-0.0,-0.0,-0.0,-0.0,-0.0,-0.0,-0.0,-0.0721,-0.2173,-0.4651,-0.5343,-0.5144,0.0,-0.6008,-0.5302,-0.4479,-0.3603,-0.2999,-0.3261,-0.3844,-0.4331,-0.4411,-0.4137,-0.3592,-0.286,0.0,-0.2767,-0.5263,-0.617,-0.5925,-0.371,-0.3156,-0.2933,-0.2698,-0.2527,-0.238,-0.2421,-0.2683,-0.3104,-0.3498,-0.3581,-0.3525,-0.361,-0.3608,-0.3439,-0.3243,-0.5381,0.0,0.0,0.0,0.0,-0.0,-0.5082,-0.9411,-1.1818,-1.1917,-1.1785,-1.1523,-1.1399,-1.1358,-1.1101,-1.0948,-1.0846,-1.0795,-1.0744,-1.0721,-1.0717,-1.0616,-1.0568,-1.0561,-1.0415,-1.0351,-1.0337,-1.0134,-1.0049,-1.0032,-0.988,-0.9822,-0.9815,-0.9768,-0.9781,-0.9791,0.0,0.0,0.0,0.0,0.0,0.0,0.0,0.0,0.0,0.0,0.0,0.0,0.0,0.0,0.0,0.0,0.0,0.0,0.0,0.0,-0.4862,-0.5126,-0.5112,-0.5201,-0.5404,-0.5493,-0.66,-0.8811,-0.9235,-0.9538,-0.9825,-0.5602,-0.2345,-0.0,-0.0,-0.0,-0.0,-0.0746,-0.1599,-0.2417,-0.1512,-0.1903,-0.3436,-0.5567,-0.5965,0.0,-0.5993,-0.5927,-0.5409,-0.5165,-0.475,-0.4338,-0.4421,-0.4752,-0.5178,-0.5336,-0.5058,-0.4435,-0.3849,-0.3394,-0.3799,-0.659,-0.8486,-0.9059,-0.6935,-0.6226,-0.597,-0.5668,-0.5214,-0.4843,-0.4817,-0.5296,-0.5857,-0.6386,-0.6696,-0.6918,-0.7367,-0.735,-0.7175,-0.705,-0.7135,0.0,0.0,0.0,0.0,-0.3706,-0.7765,-1.0552,-1.156,-1.1847,-1.175,-1.1362,-1.1419,-1.1243,-1.0951,-1.0894,-1.0816,-1.0721,-1.0721,-1.069,-1.0636,-1.0538,-1.0463,-1.0409,-1.0263,-1.0198,-1.0185,-1.0029,-0.9968,-0.9958,-0.9859,-0.9822,-0.9815,-0.9764,-0.971,-0.9646,0.0,0.0,0.0,0.0,0.0,0.0,0.0,0.0,0.0,0.0,0.0,0.0,0.0,0.0,0.0,0.0,0.0,0.0,0.0,0.0,0.0,-0.7081,-0.706,-0.7114,-0.7067,-0.7273,-0.7461,-0.7741,-0.8312,-0.8855,-0.9151,-0.9817,-0.6652,-0.0233,-0.0234,-0.0234,-0.0351,-0.2191,-0.4545,-0.6808,-0.4332,-0.3468,-0.3775,-0.4979,-0.5824,-0.6449,-0.5764,-0.5912,-0.6193,0.0,-0.5338,-0.5271,-0.4726,-0.4964,-0.5568,-0.6493,-0.6433,-0.5985,-0.5706,-0.4969,-0.4412,-0.4634,-0.7054,-0.938,-0.9342,-0.9182,-0.8858,-0.8565,-0.7733,-0.7067,0.0,0.0,-0.7814,-0.8455,-0.9027,-0.9773,-1.1053,-1.0915,-1.0692,0.0,0.0,0.0,0.0,0.0,0.0,-1.0502,0.0,-0.7739,-1.1352,-1.1358,-1.1342,-1.1596,-1.1175,-1.0945,-1.0938,-1.0792,-1.0721,-1.0721,-1.0721,-1.0639,-1.049,-1.0483,-1.0402,-1.0259,-1.0103,-1.0036,-1.0025,-0.988,-0.9822,-0.9822,-0.9812,-0.9815,-0.9802,-0.9652,-0.951,-0.9412,0.0,0.0,0.0,0.0,0.0,0.0,0.0,0.0,0.0,0.0,0.0,0.0,0.0,0.0,0.0,0.0,0.0,0.0,0.0,0.0,0.0,0.0,0.0,0.0,0.0,0.0,0.0,-0.7581,-0.7751,-0.796,-0.8113,-0.8313,-0.6841,-0.3977,-0.3082,-0.2676,-0.2678,-0.3242,-0.4082,-0.5273,0.0,-0.5361,-0.4795,-0.5992,-0.615,-0.5779,-0.6217,0.0,0.0,0.0,0.0,0.0,0.0,-0.6484,-0.6714,-0.7192,-0.747,-0.7501,-0.7682,-0.8022,-0.8264,-0.8007,-0.8746,-0.9412,-0.9133,-0.8953,-0.8806,-0.8183,-0.7816,-0.74,0.0,0.0,0.0,-0.8434,-0.9211,0.0,-1.0671,-1.0798,0.0,-1.089,0.0,-1.1121,-1.1077,-1.0448,0.0,0.0,-1.0476,-1.0479,-1.1502,-1.1492,-1.1518,-1.1287,-1.1063,-1.0894,-1.0778,-1.0741,-1.0721,-1.0721,-1.0721,-1.0639,-1.0487,-1.0382,-1.0253,-1.01,-0.9944,-0.988,-0.9876,-0.9836,-0.9822,-0.9812,-0.9703,-0.9727,-0.9788,-0.9534,-0.9486,-0.9523,0.0,0.0,0.0,0.0,0.0,0.0,0.0,0.0,0.0,0.0,0.0,0.0,0.0,0.0,0.0,0.0,0.0,0.0,0.0,0.0,0.0,0.0,0.0,0.0,0.0,0.0,0.0,0.0,0.0,0.0,-0.7428,-0.732,-0.6826,-0.5934,-0.5135,-0.4871,-0.4971,-0.4491,0.0,0.0,0.0,0.0,-0.5841,-0.654,-0.6518,0.0,0.0,0.0,0.0,0.0,0.0,-0.7048,-0.7197,-0.7241,-0.7329,-0.7767,0.0,-0.8367,-0.8773,-0.9322,-0.9613,-0.9408,-0.9337,-0.9269,-0.876,-0.8594,-0.8391,-0.7858,-0.7458,0.0,-0.6963,0.0,0.0,0.0,0.0,0.0,-1.0412,-1.0602,-1.0775,0.0,-1.1216,0.0,-1.1172,-1.1223,-1.1301,0.0,-1.1547,-1.1419,-1.144,-1.1426,-1.1311,-1.1077,-1.0924,-1.0806,-1.0721,-1.0721,-1.0721,-1.0721,-1.0721,-1.0609,-1.0395,-1.0317,-1.0161,-0.9944,0.0,-0.9822,-0.9822,-0.9822,-0.9785,-0.972,-0.9642,-0.9615,-0.9608,-0.9442,-0.9395,-0.9384,0.0,0.0,0.0,0.0,0.0,0.0,0.0,0.0,0.0,0.0,0.0,0.0,0.0,0.0,0.0,0.0,0.0,0.0,0.0,0.0,0.0,0.0,0.0,0.0,0.0,0.0,0.0,0.0,0.0,0.0,0.0,0.0,0.0,0.0,0.0,0.0,0.0,0.0,0.0,0.0,0.0,0.0,-0.6685,0.0,0.0,0.0,0.0,0.0,0.0,0.0,-0.7339,-0.7285,-0.7441,-0.7502,-0.7624,-0.817,-0.8442,-0.8689,-0.9232,-0.9507,-0.9595,-0.9422,-0.9364,-0.9161,-0.8435,-0.815,-0.7906,-0.7438,0.0,-0.6759,-0.6851,-0.7,-0.7272,-0.776,0.0,-0.9106,-1.0161,-1.0327,-1.0602,-1.1307,-1.1392,-1.1399,-1.1419,-1.1402,-1.1447,-1.1579,-1.1447,-1.1311,-1.1199,-1.1155,-1.1067,-1.0921,-1.0789,-1.0721,-1.0721,-1.07,-1.069,-1.069,-1.067,-1.0517,-1.0249,-1.0249,-1.0093,-0.9822,0.0,0.0,-0.9822,-0.9822,-0.9737,-0.9608,-0.9588,-0.95,-0.9374,-0.9337,-0.9252,-0.915,0.0,0.0,0.0,0.0,0.0,0.0,0.0,0.0,0.0,0.0,-0.951,0.0,0.0,0.0,0.0,0.0,0.0,0.0,0.0,0.0,0.0,0.0,0.0,0.0,0.0,0.0,0.0,0.0,0.0,0.0,0.0,0.0,0.0,0.0,0.0,0.0,0.0,0.0,0.0,0.0,0.0,0.0,0.0,0.0,0.0,0.0,0.0,0.0,0.0,0.0,-0.7702,-0.7909,-0.8065,-0.8194,-0.8336,-0.8567,-0.8825,-0.9086,-0.9317,-0.9578,-0.972,-0.9449,-0.9286,-0.9032,-0.8411,-0.815,0.0,0.0,-0.7027,-0.682,-0.6593,-0.6776,-0.7193,-0.7889,0.0,0.0,0.0,0.0,-1.0829,0.0,0.0,0.0,0.0,0.0,0.0,0.0,0.0,0.0,-1.1345,-1.1118,-1.0914,-1.0765,-1.0734,-1.0721,-1.0721,-1.0595,-1.0531,-1.0531,-1.0412,-1.0263,-1.009,-1.009,-0.9992,-0.9822,0.0,0.0,-0.9822,-0.9822,-0.9737,-0.9598,-0.9469,-0.9405,-0.9351,-0.9106,-0.9072,-0.9133,0.0,0.0,0.0,0.0,0.0,0.0,0.0,0.0,0.0,-0.8623,-0.8803,-0.9122,0.0,0.0,0.0,0.0,0.0,0.0,0.0,0.0,0.0,0.0,0.0,0.0,0.0,0.0,0.0,0.0,0.0,0.0,0.0,0.0,0.0,0.0,0.0,0.0,0.0,0.0,0.0,0.0,0.0,0.0,0.0,0.0,0.0,0.0,0.0,0.0,0.0,0.0,-0.7662,-0.8065,-0.8221,-0.8316,-0.8431,-0.8737,-0.8981,-0.9205,-0.9439,-0.9656,-0.9771,-0.9554,-0.9269,-0.8886,-0.8286,0.0,0.0,0.0,-0.6858,-0.6742,-0.6515,0.0,0.0,0.0,0.0,0.0,0.0,0.0,0.0,0.0,0.0,0.0,0.0,0.0,0.0,0.0,0.0,0.0,0.0,-1.0951,-1.0795,-1.0721,-1.0643,-1.0602,-1.0602,-1.0456,-1.0382,-1.0382,-1.0314,-1.0198,-1.0049,-1.0049,-0.9964,-0.9822,0.0,0.0,-0.9815,-0.9741,-0.9673,-0.9588,-0.9354,-0.9262,-0.9235,-0.9018,-0.8981,-0.9032,0.0,0.0,0.0,0.0,0.0,0.0,0.0,-0.8496,-0.8135,-0.8265,-0.8009,-0.8024,-0.8264,-0.7497,-0.717,0.0,0.0,0.0,0.0,0.0,0.0,0.0,0.0,0.0,0.0,0.0,0.0,0.0,0.0,0.0,0.0,0.0,0.0,0.0,0.0,0.0,0.0,0.0,0.0,0.0,0.0,0.0,0.0,0.0,0.0,0.0,0.0,0.0,0.0,0.0,-0.7595,-0.8014,-0.8237,-0.8268,-0.834,-0.8693,-0.8944,-0.9167,-0.9439,-0.9663,-0.9778,-0.9605,-0.9249,-0.8781,-0.8177,-0.7719,0.0,0.0,-0.6853,-0.6864,-0.6711,0.0,-0.7069,0.0,0.0,0.0,0.0,0.0,0.0,0.0,0.0,0.0,0.0,0.0,0.0,0.0,0.0,0.0,0.0,-1.0755,-1.067,-1.067,-1.0524,-1.0446,-1.0446,-1.0304,-1.0232,-1.0232,-1.0198,-1.0117,-0.9998,-0.9998,-0.9934,-0.9822,0.0,0.0,0.0,-0.97,-0.9639,-0.9585,-0.931,-0.9181,-0.9133,-0.8991,-0.894,-0.894,0.0,0.0,0.0,0.0,0.0,0.0,0.0,-0.7827,-0.7658,-0.7312,-0.7228,-0.7118,-0.692,-0.6834,-0.6773,0.0,0.0,0.0,0.0,0.0,0.0,0.0,0.0,0.0,0.0,0.0,0.0,0.0,0.0,0.0,0.0,0.0,0.0,0.0,0.0,0.0,0.0,0.0,0.0,0.0,0.0,0.0,0.0,0.0,0.0,0.0,0.0,0.0,0.0,0.0,0.0,-0.8066,-0.8081,-0.8211,-0.8279,-0.8319,0.0,0.0,-0.9154,-0.95,-0.9754,-0.9473,-0.9167,-0.8781,-0.8177,0.0,0.0,-0.7166,-0.7336,-0.7443,-0.7289,-0.716,-0.7398,-0.8127,0.0,-0.8534,0.0,0.0,0.0,0.0,0.0,0.0,0.0,0.0,0.0,0.0,0.0,0.0,0.0,-1.0595,-1.0514,-1.0514,-1.0375,-1.03,-1.03,-1.0148,-1.007,-1.007,-0.993,-0.9856,-0.9842,-0.9842,-0.9836,-0.9822,0.0,0.0,0.0,-0.9805,-0.9727,-0.9595,-0.9425,-0.9276,-0.9133,-0.8991,-0.894,-0.894,0.0,0.0,0.0,0.0,0.0,0.0,0.0,-0.7544,-0.7319,-0.7139,-0.7139,-0.7061,-0.6861,-0.68,-0.6719,0.0,0.0,0.0,0.0,0.0,0.0,0.0,0.0,0.0,0.0,0.0,0.0,0.0,0.0,0.0,0.0,0.0,0.0,0.0,0.0,0.0,0.0,0.0,0.0,0.0,0.0,0.0,0.0,0.0,0.0,0.0,0.0,0.0,0.0,0.0,0.0,0.0,-0.8212,-0.8321,0.0,0.0,-0.8252,-0.8625,-0.9039,-0.9418,-0.9666,-0.9547,-0.938,-0.9115,-0.8674,0.0,-0.8219,-0.807,-0.8142,-0.8131,-0.7962,-0.7875,-0.7947,-0.8215,-0.8209,0.0,0.0,0.0,0.0,0.0,0.0,0.0,0.0,0.0,0.0,0.0,0.0,0.0,0.0,0.0,-1.0365,-1.0365,-1.0219,-1.0141,-1.0141,-0.9988,-0.9914,-0.991,-0.9849,-0.9822,-0.9822,-0.9822,-0.9822,-0.9822,0.0,0.0,0.0,-0.9629,-0.9578,-0.9574,-0.9245,-0.9188,-0.9273,-0.9123,-0.9066,-0.9066,0.0,0.0,0.0,0.0,0.0,0.0,-0.7494,-0.7291,-0.7139,-0.7139,-0.7139,-0.7085,-0.6946,-0.6793,-0.6637,-0.6485,0.0,0.0,0.0,0.0,0.0,0.0,0.0,0.0,0.0,0.0,0.0,0.0,0.0,0.0,0.0,0.0,0.0,0.0,0.0,0.0,0.0,0.0,0.0,0.0,0.0,0.0,0.0,0.0,0.0,0.0,0.0,0.0,0.0,0.0,0.0,0.0,0.0,0.0,0.0,0.0,-0.815,-0.8561,-0.9559,-0.9993,-1.0153,-1.0566,-1.0342,-0.991,0.0,0.0,-0.8767,-0.8584,-0.8723,-0.8757,-0.8487,-0.8458,-0.8464,-0.8384,-0.8338,-0.8484,-0.8934,0.0,0.0,0.0,0.0,0.0,0.0,0.0,0.0,0.0,0.0,0.0,0.0,0.0,-1.0212,-1.0212,-1.0063,-0.9981,-0.9981,-0.9876,-0.9822,-0.9822,-1.0301,-1.0539,-1.0539,-1.0539,-1.0539,0.0,0.0,0.0,0.0,-0.9598,-0.9551,-0.9574,-0.9211,-0.9167,-0.9296,-0.9144,-0.9089,-0.9089,0.0,0.0,0.0,0.0,0.0,0.0,0.0,-0.7051,-0.7139,-0.7139,-0.7139,-0.7085,-0.6946,-0.6793,-0.6637,-0.6485,0.0,0.0,0.0,0.0,0.0,0.0,0.0,0.0,0.0,0.0,-0.6776,-0.6929,-0.7071,-0.7139,0.0,0.0,0.0,0.0,0.0,0.0,0.0,0.0,0.0,0.0,0.0,0.0,0.0,0.0,0.0,0.0,0.0,0.0,0.0,0.0,0.0,0.0,0.0,0.0,0.0,0.0,-0.8475,-0.8792,-1.0817,-1.128,-1.1552,-1.2683,-1.2211,-1.123,0.0,0.0,-0.8767,-0.8584,-0.899,-0.9196,-0.8909,-0.8958,-0.9002,-0.9016,-0.8801,0.0,-0.92,0.0,0.0,0.0,0.0,0.0,0.0,0.0,0.0,0.0,0.0,0.0,0.0,0.0,-1.0049,-1.0049,-0.9903,-0.9822,-0.9822,-0.9822,-0.9822,-0.9822,-1.1378,-1.2217,-1.2217,-1.2217,0.0,0.0,0.0,0.0,0.0,-0.9819,-0.9734,-0.9595,-0.9439,-0.9286,-0.9137,-0.8994,-0.894,-0.894,0.0,0.0,0.0,0.0,0.0,0.0,0.0,-0.7112,-0.7139,-0.7139,-0.7054,-0.6976,-0.6932,-0.6698,-0.6566,-0.6624,0.0,0.0,0.0,0.0,0.0,0.0,0.0,0.0,0.0,0.0,-0.6878,-0.6929,-0.7071,-0.7139,-0.7136,-0.6997,0.0,0.0,0.0,0.0,0.0,0.0,0.0,0.0,0.0,0.0,0.0,0.0,0.0,0.0,0.0,0.0,0.0,0.0,0.0,0.0,0.0,0.0,0.0,-1.0455,-1.0105,0.0,-1.0316,-1.0698,-1.0915,-1.0768,-1.0974,-1.1075,-1.0735,0.0,-1.0978,-1.0901,-1.1063,-1.1133,-1.1048,-1.0696,-1.0404,-1.0348,-0.976,-0.9363,0.0,0.0,0.0,0.0,0.0,0.0,0.0,0.0,0.0,0.0,0.0,0.0,0.0,0.0,0.0,-0.9893,-0.9846,-1.0301,-1.1378,-1.0301,-1.0301,-1.1378,-1.0899,-1.0539,-1.0539,-1.0539,0.0,0.0,0.0,0.0,0.0,-0.9717,-0.9588,-0.9439,-0.9286,-0.9259,-0.9293,-0.914,-0.915,-0.9225,0.0,0.0,0.0,0.0,0.0,0.0,0.0,-0.7095,-0.7061,-0.7061,-0.6983,-0.6929,-0.6929,-0.6759,-0.6681,-0.6776,0.0,0.0,0.0,0.0,0.0,0.0,0.0,0.0,0.0,-0.6851,-0.6929,-0.6929,-0.7071,-0.7139,-0.7136,-0.6997,-0.7097,-0.7428,0.0,0.0,0.0,0.0,0.0,0.0,0.0,0.0,-0.9579,0.0,0.0,0.0,0.0,0.0,0.0,0.0,0.0,0.0,0.0,0.0,0.0,0.0,-1.1793,-1.1574,0.0,-1.1492,-1.1727,-1.184,-1.196,0.0,0.0,0.0,0.0,-1.2015,-1.2015,-1.2015,-1.2015,-1.1413,-1.0956,-1.0872,-1.0149,0.0,0.0,0.0,0.0,0.0,0.0,0.0,0.0,0.0,0.0,0.0,0.0,0.0,0.0,0.0,0.0,-1.066,-1.0058,-1.0301,-1.1257,-1.0301,-1.066,-1.2213,-1.1856,-1.1972,-1.2564,0.0,0.0,0.0,0.0,0.0,0.0,-1.0531,-1.0351,-1.0086,-0.9481,-0.9564,-0.9986,-0.9328,-0.9133,-0.9208,0.0,0.0,0.0,0.0,0.0,0.0,0.0,0.0,0.0,0.0,-0.6929,-0.6926,-0.6912,-0.6912,-0.6912,0.0,0.0,0.0,0.0,0.0,0.0,0.0,0.0,0.0,0.0,-0.6871,-0.6946,-0.6946,-0.7075,-0.7139,-0.7136,-0.6983,-0.7425,-0.8433,-0.8317,0.0,0.0,0.0,0.0,0.0,0.0,0.0,0.0,0.0,0.0,0.0,0.0,0.0,0.0,0.0,0.0,0.0,0.0,0.0,0.0,0.0,0.0,0.0,0.0,-1.3405,-1.3692,0.0,0.0,0.0,0.0,0.0,0.0,-1.2186,-1.2186,-1.2186,-1.2186,-1.1585,-1.1086,-1.0873,-1.0253,0.0,0.0,0.0,0.0,0.0,0.0,0.0,0.0,0.0,0.0,0.0,0.0,0.0,0.0,0.0,0.0,0.0,-1.0899,-1.0179,-1.0301,-1.0179,-1.0899,-1.2569,-1.3885,-1.5419,-1.6821,0.0,0.0,0.0,0.0,0.0,0.0,-1.2235,-1.2,-1.1314,-1.0249,-1.0349,-1.1054,-0.9614,-0.9078,-0.9001,0.0,0.0,0.0,0.0,0.0,0.0,0.0,0.0,0.0,0.0,-0.6929,-0.6885,-0.6766,-0.6756,-0.6756,0.0,0.0,0.0,0.0,0.0,0.0,0.0,0.0,0.0,0.0,-0.7071,-0.7092,-0.7092,-0.7126,-0.7139,-0.7136,-0.713,-0.7731,-0.8594,-0.8662,-0.91,0.0,0.0,0.0,0.0,0.0,0.0,0.0,0.0,0.0,0.0,-1.3483,-1.3568,0.0,0.0,0.0,0.0,0.0,0.0,0.0,0.0,-1.3587,-1.3592,-1.3559,0.0,-1.3063,-1.2895,-1.3021,-1.3219,0.0,0.0,0.0,0.0,0.0,0.0,0.0,-1.3052,-1.251,-1.2451,0.0,0.0,0.0,0.0,0.0,0.0,0.0,0.0,0.0,0.0,0.0,0.0,0.0,0.0,0.0,0.0,0.0,0.0,-1.3646,-1.4118,-1.53,-1.4118,-1.4237,-1.5897,-1.4955,-1.4744,-1.4914,0.0,0.0,0.0,0.0,0.0,0.0,-1.366,-1.3567,-1.331,-1.3298,-1.2623,-1.1705,-1.1085,-1.0266,-0.9422,0.0,0.0,0.0,0.0,0.0,0.0,0.0,0.0,0.0,0.0,0.0,0.0,0.0,0.0,0.0,0.0,0.0,0.0,0.0,0.0,0.0,0.0,0.0,-0.6807,-0.7037,-0.7044,-0.7044,-0.7044,-0.6973,-0.7263,-0.7921,-0.7924,-0.8761,-1.0183,-1.0437,-1.0811,0.0,0.0,0.0,0.0,0.0,0.0,0.0,0.0,0.0,0.0,-1.4088,-1.4088,0.0,-1.3652,-1.3737,-1.4004,0.0,0.0,0.0,0.0,-1.3848,-1.3848,-1.3848,-1.3703,-1.3392,-1.3052,-1.3222,-1.3476,-1.3476,0.0,0.0,0.0,0.0,0.0,0.0,0.0,0.0,0.0,0.0,0.0,0.0,0.0,0.0,0.0,0.0,0.0,0.0,0.0,0.0,0.0,0.0,0.0,0.0,0.0,0.0,0.0,0.0,-1.6503,-1.5902,-1.5074,-1.5429,-1.6968,-1.5904,-1.5782,-1.6344,0.0,0.0,0.0,0.0,0.0,-1.4692,-1.5156,-1.5091,-1.4708,-1.3673,-1.3156,-1.2703,-1.1131,-1.0048,-0.9493,0.0,0.0,0.0,0.0,0.0,0.0,0.0,0.0,0.0,0.0,0.0,0.0,0.0,0.0,0.0,0.0,0.0,0.0,0.0,0.0,0.0,0.0,0.0,-0.6807,-0.6956,-0.6959,-0.6959,-0.6959,-0.6915,-0.7573,-0.8886,-0.8867,-1.0031,-1.2035,-1.2597,-1.2794,0.0,0.0,0.0,0.0,-1.3828,0.0,0.0,0.0,0.0,0.0,0.0,0.0,0.0,-1.4088,-1.4088,-1.4088,-1.4088,0.0,0.0,0.0,0.0,0.0,-1.4088,-1.4122,-1.4142,-1.4095,-1.4088,-1.4088,-1.4088,0.0,0.0,0.0,0.0,0.0,0.0,-1.3879,0.0,0.0,0.0,0.0,0.0,0.0,0.0,0.0,0.0,0.0,0.0,0.0,0.0,0.0,0.0,0.0,0.0,0.0,0.0,0.0,0.0,0.0,-1.5316,-1.5316,-1.6004,-1.7265,-1.7032,-1.7584,-1.8778,-1.8537,0.0,0.0,0.0,0.0,-1.629,-1.6666,-1.663,-1.6196,-1.4029,-1.35,-1.3685,-1.1145,-0.9888,-0.9466,0.0,0.0,0.0,0.0,0.0,0.0,0.0,0.0,0.0,0.0,0.0,0.0,0.0,0.0,0.0,0.0,0.0,0.0,0.0,0.0,0.0,0.0,-0.6824,-0.6959,-0.7105,-0.7109,-0.7109,-0.7109,-0.7435,-0.8059,-0.8886,-0.9549,-1.0789,-1.263,-1.3471,-1.3847,-1.3853,-1.3893,-1.3913,-1.3913,-1.4082,0.0,0.0,0.0,0.0,0.0,0.0,0.0,0.0,-1.4088,-1.4088,-1.4088,-1.4088,0.0,0.0,0.0,0.0,0.0,-1.4088,-1.4269,-1.4396,-1.4148,-1.4088,-1.4088,-1.4088,-1.4088,0.0,0.0,0.0,0.0,0.0,0.0,0.0,0.0,0.0,0.0,0.0,0.0,0.0,0.0,0.0,0.0,0.0,0.0,0.0,0.0,0.0,0.0,0.0,0.0,0.0,0.0,0.0,-1.9127,-1.8648,-1.8648,-1.8641,-1.8636,-1.859,-1.8434,-1.8176,-1.8136,-1.7969,0.0,0.0,0.0,-1.7738,-1.8072,-1.8302,-1.8472,-1.8333,-1.6774,-1.4478,-1.382,-1.1993,-0.9758,0.0,0.0,0.0,0.0,0.0,0.0,0.0,0.0,0.0,0.0,0.0,0.0,0.0,0.0,0.0,0.0,0.0,0.0,0.0,0.0,0.0,-0.6827,-0.6963,-0.7,-0.6905,-0.6983,-0.7281,-0.7962,-0.8041,-0.8858,-1.0193,-1.1209,-1.2259,-1.3451,-1.3937,-1.4088,-1.4088,-1.4088,-1.4088,-1.4088,0.0,0.0,0.0,0.0,0.0,0.0,0.0,0.0,0.0,0.0,-1.3955,-1.4055,-1.3901,0.0,0.0,0.0,0.0,0.0,-1.4088,-1.4182,-1.4295,-1.4315,-1.4442,-1.4563,-1.4563,-1.4563,0.0,0.0,0.0,0.0,0.0,0.0,0.0,0.0,0.0,0.0,0.0,0.0,0.0,0.0,0.0,0.0,0.0,0.0,0.0,0.0,0.0,0.0,0.0,0.0,0.0,0.0,0.0,0.0,-1.9132,-1.9125,-1.9058,-1.8918,-1.8604,-1.831,-1.8043,-1.7869,-1.7716,0.0,0.0,-1.7756,-1.807,-1.837,-1.8657,-1.8838,-1.8294,-1.6621,-1.4351,-1.2592,-1.1071,-0.9822,0.0,0.0,0.0,0.0,0.0,0.0,0.0,0.0,0.0,0.0,0.0,0.0,0.0,0.0,0.0,0.0,0.0,0.0,0.0,0.0,-0.7078,-0.6936,-0.7323,-0.7382,-0.6979,-0.709,-0.7662,-0.8674,-0.861,-0.9615,-1.1494,-1.2638,-1.3503,-1.4082,-1.4015,-1.4021,-1.4088,-1.4088,-1.4088,-1.4088,0.0,0.0,0.0,0.0,0.0,0.0,0.0,0.0,0.0,0.0,0.0,0.0,0.0,0.0,0.0,-1.4088,-1.4088,-1.4088,-1.4088,-1.4135,-1.4242,-1.4469,0.0,-1.4796,-1.493,-1.491,0.0,0.0,0.0,0.0,0.0,0.0,0.0,0.0,0.0,0.0,0.0,0.0,0.0,0.0,0.0,0.0,0.0,0.0,0.0,0.0,0.0,0.0,0.0,0.0,0.0,0.0,0.0,0.0,-1.8824,-1.8751,-1.8718,-1.8711,-1.8263,-1.8009,-1.7929,-1.7689,-1.7582,-1.7582,-1.7582,-1.7756,-1.807,-1.837,-1.8657,-1.8838,-1.7933,-1.638,-1.4247,-1.1378,-1.0058,-0.9822,0.0,0.0,0.0,0.0,0.0,0.0,0.0,0.0,0.0,0.0,0.0,0.0,0.0,0.0,0.0,0.0,0.0,0.0,0.0,0.0,-0.7078,-0.6936,-0.8103,-0.8444,-0.7731,-0.7738,-0.8006,-0.8615,-0.9043,-1.0178,-1.2009,-1.3041,-1.3738,-1.4075,-1.3801,-1.3828,-1.4088,-1.4088,-1.4088,-1.4088,-1.4088,0.0,0.0,0.0,0.0,0.0,0.0,0.0,0.0,0.0,0.0,0.0,0.0,0.0,-1.4088,-1.4088,-1.4088,-1.4088,-1.4088,-1.4282,-1.4496,-1.4516,-1.4335,-1.4289,-1.4836,-1.475,0.0,-1.4877,0.0,0.0,0.0,0.0,0.0,0.0,0.0,0.0,0.0,0.0,0.0,0.0,0.0,0.0,0.0,0.0,0.0,0.0,0.0,0.0,0.0,0.0,0.0,0.0,0.0,0.0,-1.8524,-1.825,-1.811,-1.811,-1.807,-1.7896,-1.7615,-1.7595,-1.7582,-1.7582,-1.7582,-1.7756,-1.807,-1.837,-1.8657,-1.8951,-1.913,-1.7337,-1.4366,-1.2693,-1.114,-0.9822,0.0,0.0,0.0,0.0,0.0,0.0,0.0,0.0,0.0,0.0,0.0,0.0,0.0,0.0,0.0,0.0,0.0,0.0,0.0,0.0,-0.7471,-0.7501,-0.8064,-0.8525,-0.8727,-0.8894,-0.9579,-1.0869,-1.1402,-1.2186,-1.33,-1.3112,-1.338,-1.4075,-1.3774,-1.3808,-1.4088,-1.4088,-1.4088,-1.4088,-1.4088,-1.4088,0.0,0.0,0.0,0.0,0.0,0.0,0.0,0.0,-1.3781,-1.3988,-1.3434,-1.3634,-1.4048,-1.3868,-1.3941,-1.4088,-1.4088,-1.4302,-1.4429,-1.4322,-1.4336,0.0,0.0,-1.5284,-1.5081,-1.4456,-1.5114,0.0,0.0,0.0,0.0,0.0,0.0,0.0,0.0,0.0,0.0,0.0,0.0,0.0,0.0,0.0,0.0,0.0,0.0,0.0,0.0,0.0,0.0,0.0,0.0,0.0,0.0,-1.8103,-1.7949,-1.7756,-1.7756,-1.7695,-1.7582,-1.7582,-1.7582,-1.7582,-1.7582,-1.7756,-1.807,-1.837,-1.8657,-1.8717,-1.7113,-1.5671,-1.4247,-1.1615,-1.0301,-0.9822,0.0,0.0,0.0,0.0,0.0,0.0,0.0,0.0,0.0,0.0,0.0,0.0,0.0,0.0,0.0,0.0,0.0,0.0,-0.7093,-0.7588,-0.783,-0.7948,-0.8683,-0.9271,-0.9847,-1.0267,-1.0973,-1.1906,-1.2607,-1.3222,-1.373,-1.3195,-1.338,-1.4075,-1.3774,-1.3808,-1.4088,-1.4088,-1.4088,-1.4088,-1.4088,-1.4088,0.0,0.0,0.0,0.0,0.0,0.0,0.0,0.0,-1.3614,-1.3841,-1.322,-1.3447,-1.3921,-1.3814,-1.3904,-1.4123,-1.4123,-1.4269,-1.4355,-1.4441,0.0,0.0,-1.5378,-1.5618,-1.5464,-1.4865,-1.5619,0.0,0.0,0.0,0.0,0.0,0.0,0.0,0.0,0.0,0.0,0.0,0.0,0.0,0.0,0.0,0.0,0.0,0.0,0.0,0.0,0.0,0.0,0.0,0.0,0.0,0.0,-1.7903,-1.7796,-1.7582,-1.7582,-1.7582,-1.7582,-1.7582,-1.7582,-1.7582,-1.7582,-1.7702,-1.7923,-1.8223,-1.8288,-1.7868,-1.5378,-1.4192,-1.3547,-1.1295,-1.0258,-0.9822,0.0,0.0,0.0,0.0,0.0,0.0,0.0,0.0,0.0,0.0,0.0,0.0,0.0,0.0,0.0,0.0,0.0,0.0,-0.7591,-0.7755,-0.7952,-0.8211,-0.9952,-1.095,-1.1039,-1.2052,-1.2105,-1.0982,-1.2351,-1.3039,-1.3033,-1.3437,-1.3801,-1.4075,-1.3774,-1.3808,-1.4088,-1.4088,-1.4088,-1.4088,-1.4088,-1.4088,-1.4088,0.0,0.0,0.0,0.0,0.0,0.0,0.0,-1.3566,-1.3566,-1.3641,-1.3552,-1.3612,-1.3995,-1.4097,-1.4122,-1.4122,-1.4128,-1.4294,0.0,0.0,0.0,-1.5631,-1.5605,-1.5651,-1.6526,0.0,-1.6186,0.0,0.0,0.0,0.0,0.0,0.0,0.0,0.0,0.0,0.0,0.0,0.0,0.0,0.0,0.0,0.0,0.0,0.0,0.0,0.0,0.0,0.0,0.0,0.0,0.0,-1.7582,-1.7582,-1.7582,-1.7582,-1.7582,-1.7582,-1.7582,-1.7582,-1.7582,-1.7582,-1.7582,-1.7609,-1.7916,-1.7315,-1.6186,-1.46,-1.3255,-1.2047,-1.1934,-1.1109,-0.9822,0.0,0.0,0.0,0.0,0.0,0.0,0.0,0.0,0.0,0.0,0.0,0.0,0.0,0.0,0.0,0.0,0.0,0.0,-0.8029,-0.9052,-0.957,-0.9684,-1.0805,-1.1472,-1.1388,-1.2224,-1.2431,-1.2087,-1.3016,-1.343,-1.343,-1.3312,-1.3607,-1.4075,-1.3774,-1.3808,-1.4088,-1.4088,-1.4088,-1.4088,-1.4088,-1.4088,-1.4088,0.0,0.0,0.0,0.0,0.0,0.0,0.0,0.0,0.0,-1.3467,-1.3621,-1.3928,-1.3718,-1.3891,-1.4117,-1.4117,-1.4315,0.0,-1.4784,0.0,0.0,0.0,-1.5765,0.0,0.0,0.0,0.0,0.0,0.0,0.0,0.0,0.0,0.0,0.0,0.0,0.0,0.0,0.0,0.0,0.0,0.0,0.0,0.0,0.0,0.0,0.0,0.0,0.0,0.0,0.0,0.0,0.0,0.0,-1.7582,-1.7582,-1.7582,-1.7582,-1.7582,-1.7582,-1.7582,-1.7582,-1.7582,-1.7582,-1.7496,-1.6806,-1.5847,-1.46,-1.3022,-1.2232,-1.1816,-1.0772,-1.0049,-0.9822,0.0,0.0,0.0,0.0,0.0,0.0,0.0,0.0,0.0,0.0,-0.6678,0.0,0.0,0.0,0.0,0.0,0.0,0.0,0.0,-1.0086,-1.0768,-1.0857,-1.1645,-1.2147,-1.2395,-1.292,-1.3086,-1.2978,-1.3395,-1.3559,-1.3641,-1.346,-1.3634,-1.4082,-1.3901,-1.3921,-1.4088,-1.4088,-1.4088,-1.4088,-1.4088,-1.4088,-1.4088,0.0,0.0,0.0,0.0,0.0,0.0,0.0,0.0,0.0,-1.3267,-1.3358,-1.3805,-1.3937,-1.4035,-1.4124,-1.4355,-1.4674,0.0,-1.5127,-1.5433,-1.5817,-1.6014,0.0,0.0,0.0,0.0,0.0,0.0,0.0,0.0,0.0,0.0,0.0,0.0,0.0,0.0,0.0,0.0,0.0,0.0,0.0,0.0,0.0,0.0,0.0,0.0,0.0,0.0,0.0,0.0,0.0,0.0,0.0,0.0,-1.7415,-1.7528,-1.7582,-1.7582,-1.7582,-1.7582,-1.7582,-1.7582,-1.7582,-1.7483,-1.5587,-1.4422,-1.3553,-1.1443,-1.0768,-1.0798,-0.9771,-0.952,-0.9646,0.0,0.0,0.0,0.0,0.0,0.0,0.0,0.0,0.0,0.0,-0.675,-0.6908,0.0,0.0,0.0,0.0,0.0,0.0,0.0,0.0,-1.1571,-1.1778,-1.2407,-1.2991,-1.3599,-1.3921,-1.3915,-1.3559,-1.3621,-1.3621,-1.3559,-1.3532,-1.3774,-1.4088,-1.4088,-1.4075,-1.4048,-1.4075,-1.4075,-1.4048,-1.4075,-1.4088,-1.4088,-1.4088,0.0,0.0,0.0,0.0,0.0,0.0,0.0,0.0,-1.3074,-1.3065,-1.3326,-1.435,-1.4354,-1.4213,-1.4851,0.0,0.0,-1.5658,-1.5839,0.0,-1.6256,-1.6907,0.0,0.0,0.0,0.0,0.0,0.0,0.0,0.0,0.0,0.0,0.0,0.0,0.0,0.0,0.0,0.0,0.0,0.0,0.0,0.0,0.0,0.0,0.0,0.0,0.0,0.0,0.0,0.0,0.0,0.0,0.0,0.0,-1.7402,-1.7542,-1.7542,-1.7569,-1.7582,-1.7582,-1.7582,-1.7477,-1.7147,-1.4449,-1.3264,-1.2832,-1.0025,-0.9025,-0.9154,-0.9154,-0.9249,-0.9381,0.0,0.0,0.0,0.0,0.0,0.0,0.0,0.0,0.0,0.0,0.0,0.0,0.0,0.0,0.0,0.0,0.0,0.0,0.0,0.0,-1.2674,-1.2711,-1.3176,-1.3583,-1.3988,-1.3828,-1.3707,-1.3559,-1.3414,-1.342,-1.3641,-1.3407,-1.3581,-1.4088,-1.4088,-1.3955,-1.3754,-1.3988,-1.3955,-1.3761,-1.3995,-1.4088,-1.4088,-1.4088,-1.4088,0.0,0.0,0.0,0.0,0.0,0.0,0.0,-1.3559,-1.3039,-1.2738,-1.3912,-1.4142,-1.4163,-1.4616,-1.4997,0.0,0.0,-1.5792,-1.6222,-1.635,-1.6699,0.0,0.0,0.0,0.0,0.0,0.0,0.0,0.0,0.0,0.0,0.0,0.0,0.0,0.0,0.0,0.0,0.0,0.0,0.0,0.0,0.0,0.0,0.0,0.0,0.0,0.0,0.0,0.0,-1.6707,-1.6767,-1.68,0.0,-1.7101,-1.7241,-1.7248,-1.7475,-1.7582,-1.7582,-1.7582,-1.6929,-1.5743,-1.4019,-1.262,-1.1433,-0.9588,-0.9025,-0.9154,-0.9154,-0.9249,-0.9381,0.0,0.0,0.0,0.0,0.0,0.0,0.0,0.0,0.0,0.0,0.0,0.0,0.0,0.0,0.0,0.0,0.0,0.0,0.0,0.0,0.0,-1.3568,-1.3767,-1.3928,-1.4082,-1.3935,-1.3854,-1.3854,-1.3561,-1.3494,-1.3641,-1.3487,-1.3661,-1.4082,-1.3941,-1.3788,-1.3559,-1.3661,-1.3581,-1.3447,-1.3607,-1.3667,-1.3667,-1.3667,-1.3667,-1.3687,-1.3828,0.0,0.0,0.0,0.0,0.0,0.0,0.0,-1.3003,-1.3654,-1.385,-1.4028,-1.4845,0.0,0.0,-1.5531,0.0,-1.6273,-1.6155,0.0,0.0,0.0,0.0,0.0,0.0,0.0,0.0,0.0,0.0,0.0,0.0,0.0,0.0,0.0,0.0,0.0,0.0,0.0,0.0,0.0,0.0,0.0,0.0,0.0,0.0,0.0,0.0,0.0,-1.6286,-1.6567,-1.664,-1.6506,-1.6941,-1.7074,-1.6947,-1.7241,-1.7301,-1.7168,-1.6567,-1.5878,-1.503,-1.3111,-1.1755,-1.1,-0.9482,-0.8984,-0.9052,-0.9052,-0.91,-0.9167,0.0,0.0,0.0,0.0,0.0,0.0,0.0,0.0,0.0,0.0,0.0,0.0,0.0,0.0,0.0,0.0,0.0,0.0,0.0,0.0,0.0,-1.4088,-1.4088,-1.4088,-1.4088,-1.4088,-1.4088,-1.4088,-1.3841,-1.3721,-1.3721,-1.3667,-1.3801,-1.4075,-1.3774,-1.3532,-1.3554,-1.3313,-1.318,-1.3133,-1.3186,-1.3213,-1.3213,-1.3213,-1.324,-1.3313,-1.3507,-1.3519,-1.3585,-1.3935,0.0,0.0,0.0,0.0,-1.34,-1.3487,-1.3527,-1.3801,-1.4877,0.0,-1.5164,-1.5698,-1.6019,0.0,-1.5868,0.0,0.0,0.0,0.0,0.0,0.0,0.0,0.0,0.0,0.0,0.0,0.0,0.0,0.0,0.0,0.0,0.0,0.0,0.0,0.0,0.0,0.0,0.0,0.0,0.0,0.0,0.0,0.0,-1.6079,-1.5832,-1.6313,-1.6433,-1.6206,-1.674,-1.6766,-1.6327,-1.657,-1.6577,-1.6306,-1.5397,-1.4867,-1.4463,-1.201,-1.1008,-1.0908,-0.9428,-0.8899,-0.8903,-0.8927,-0.894,-0.894,0.0,0.0,0.0,0.0,0.0,0.0,0.0,0.0,0.0,0.0,0.0,0.0,0.0,0.0,0.0,0.0,0.0,0.0,-1.3913,0.0,0.0,-1.4088,-1.4088,-1.4088,-1.4088,-1.4088,-1.4088,-1.4088,-1.4048,-1.4028,-1.4021,-1.3768,-1.3801,-1.4075,-1.3774,-1.35,-1.3267,-1.3227,-1.3053,-1.2909,-1.3106,-1.3213,-1.3213,-1.3213,-1.3367,-1.3561,-1.3527,-1.3521,-1.3566,-1.3967,-1.3635,0.0,0.0,0.0,0.0,-1.2866,-1.306,-1.3414,0.0,0.0,-1.5418,0.0,-1.5858,-1.5885,0.0,0.0,0.0,0.0,0.0,0.0,0.0,0.0,0.0,0.0,0.0,0.0,0.0,0.0,0.0,0.0,0.0,0.0,0.0,0.0,0.0,0.0,0.0,0.0,0.0,0.0,-1.6005,-1.6266,-1.6019,0.0,-1.5832,-1.5905,-1.5925,-1.5892,-1.6226,-1.5763,-1.461,-1.4646,-1.4871,-1.5059,-1.4886,-1.4185,-1.2962,-1.1435,-1.0719,-1.0632,-0.9215,-0.874,-0.8757,-0.8889,-0.894,-0.894,0.0,0.0,0.0,0.0,0.0,0.0,0.0,0.0,0.0,0.0,0.0,0.0,0.0,0.0,0.0,-1.3555,-1.3652,-1.3737,-1.4088,-1.4088,-1.4088,-1.4088,-1.3928,-1.3841,-1.3841,-1.3841,-1.3841,-1.3841,-1.4008,-1.4088,-1.4082,-1.3955,-1.3961,-1.4075,-1.3774,-1.348,-1.32,-1.3026,-1.2772,-1.2512,-1.2645,-1.2799,-1.2933,-1.2766,-1.2886,-1.3126,-1.3169,-1.3026,-1.2897,-1.326,-1.322,-1.291,-1.2921,0.0,0.0,0.0,-1.2839,-1.3153,-1.4082,-1.4736,-1.5264,0.0,-1.5832,-1.5832,0.0,0.0,0.0,0.0,0.0,0.0,0.0,0.0,0.0,0.0,0.0,0.0,0.0,0.0,0.0,0.0,0.0,0.0,0.0,0.0,0.0,0.0,0.0,0.0,0.0,-1.6059,-1.6059,-1.6025,-1.6059,0.0,-1.5832,-1.5999,-1.568,-1.4977,-1.4946,-1.4243,-1.297,-1.297,-1.303,-1.3133,-1.2455,-1.1899,-1.1207,-0.9987,-0.9514,-0.9425,-0.8859,-0.871,-0.873,-0.8882,-0.894,-0.894,0.0,0.0,0.0,0.0,0.0,0.0,0.0,0.0,0.0,0.0,0.0,0.0,0.0,0.0,0.0,0.0,-1.4088,-1.4088,-1.4088,-1.4015,-1.4008,-1.4082,-1.3801,-1.3681,-1.3754,-1.3754,-1.3754,-1.3754,-1.3981,-1.4088,-1.4088,-1.4088,-1.4088,-1.4075,-1.3774,-1.3527,-1.3293,-1.2913,-1.2694,-1.2412,-1.2412,-1.2599,-1.2846,-1.2699,-1.2872,-1.3166,-1.2855,-1.2725,-1.2635,-1.2805,-1.2863,-1.2777,-1.2792,-1.2768,0.0,0.0,0.0,0.0,0.0,0.0,-1.4972,-1.567,-1.5772,-1.5738,0.0,0.0,0.0,0.0,0.0,0.0,0.0,0.0,0.0,0.0,0.0,0.0,0.0,0.0,0.0,0.0,0.0,0.0,0.0,0.0,0.0,0.0,0.0,0.0,-1.5832,-1.6039,-1.6059,-1.5838,-1.6046,-1.586,-1.5343,-1.5255,-1.4667,-1.3664,-1.3482,-1.2716,-1.1463,-1.1463,-1.1263,-1.0881,-1.0332,-0.9996,-0.9605,-0.8727,-0.8367,-0.8384,-0.8537,-0.8598,-0.8618,-0.8767,-0.8849,-0.8879,0.0,0.0,0.0,0.0,0.0,0.0,0.0,0.0,0.0,0.0,0.0,0.0,-1.4062,-1.4075,-1.4088,-1.4088,-1.4088,-1.4088,-1.4088,-1.3821,-1.3794,-1.4075,-1.3801,0.0,-1.4055,-1.4062,-1.4062,-1.4062,-1.4082,-1.4088,-1.4088,-1.4088,-1.4088,-1.4075,-1.3774,-1.3552,-1.3499,-1.2993,-1.2815,-1.2802,-1.2802,-1.2913,-1.3213,-1.3474,-1.3928,-1.4223,-1.2843,-1.2827,-1.3507,-1.3044,-1.2661,-1.2398,-1.2735,-1.2552,-1.2325,0.0,0.0,0.0,0.0,-1.3694,0.0,-1.5562,0.0,0.0,0.0,0.0,0.0,0.0,0.0,0.0,0.0,0.0,0.0,0.0,0.0,0.0,0.0,0.0,0.0,0.0,0.0,0.0,0.0,0.0,0.0,0.0,0.0,0.0,-1.5832,-1.5845,-1.5845,-1.5832,-1.5845,-1.5255,-1.3974,-1.2732,-1.2058,-1.2058,-1.2047,-1.1361,-1.0096,-1.0096,-0.941,-0.8233,-0.9517,-0.9327,-0.8148,-0.8058,-0.8062,-0.8079,-0.8235,-0.8292,-0.8313,-0.8455,-0.8598,-0.8723,0.0,0.0,0.0,0.0,0.0,0.0,0.0,0.0,0.0,0.0,0.0,0.0,0.0,-1.4088,-1.4088,-1.4088,-1.4088,-1.4088,-1.4088,-1.3988,-1.3975,-1.4082,-1.3801,-1.3694,-1.3801,-1.3801,-1.3801,-1.3801,-1.3995,-1.4088,-1.4088,-1.4088,-1.4088,-1.4082,-1.3975,-1.3821,-1.3621,-1.3213,-1.2926,-1.2842,-1.2966,-1.322,-1.348,-1.34,0.0,0.0,0.0,0.0,0.0,-1.3607,-1.3175,-1.2605,-1.2788,-1.2748,-1.2585,-1.2585,0.0,0.0,0.0,0.0,0.0,-1.5081,-1.5348,0.0,0.0,0.0,0.0,0.0,0.0,0.0,0.0,0.0,0.0,0.0,0.0,0.0,0.0,0.0,0.0,0.0,0.0,0.0,0.0,0.0,0.0,0.0,0.0,0.0,-1.4657,-1.4561,-1.4172,-1.3307,-1.3307,-1.3108,-1.2619,-1.2139,-1.1463,-1.0681,-1.0681,-0.9998,-0.8726,-0.8726,-0.8432,-0.8038,-0.8528,-0.8432,-0.8038,-0.8038,-0.8038,-0.8055,-0.8211,-0.8272,-0.8299,-0.854,-0.8662,-0.8723,0.0,0.0,0.0,0.0,0.0,0.0,0.0,0.0,0.0,-1.4088,0.0,0.0,0.0,0.0,-1.4088,-1.4088,-1.4088,-1.4088,-1.4088,-1.3995,-1.3981,-1.4082,-1.3801,-1.3687,-1.3794,-1.3694,-1.3694,-1.3794,-1.3895,-1.3988,-1.4088,-1.4088,-1.4035,-1.3941,-1.3941,-1.3881,-1.3768,0.0,0.0,-1.3066,0.0,0.0,-1.3559,0.0,0.0,0.0,0.0,0.0,0.0,0.0,0.0,0.0,-1.308,-1.2979,-1.2879,0.0,0.0,0.0,-1.3687,0.0,0.0,0.0,0.0,0.0,0.0,0.0,0.0,0.0,0.0,0.0,0.0,0.0,0.0,0.0,0.0,0.0,0.0,0.0,0.0,0.0,0.0,0.0,0.0,0.0,0.0,0.0,0.0,0.0,-1.3974,-1.3878,-1.3295,-1.1945,-1.1463,-1.1268,-1.1268,-1.0779,-1.0194,-0.9316,-0.9316,-0.8821,-0.8038,-0.8038,-0.8038,-0.8038,-0.8038,-0.8038,-0.8038,-0.8038,-0.8038,-0.8052,-0.8153,-0.8194,-0.8218,-0.8411,-0.852,-0.8577,0.0,0.0,0.0,0.0,0.0,0.0,0.0,0.0,-1.4088,-1.4088,0.0,0.0,0.0,0.0,0.0,-1.4088,-1.4088,-1.4088,-1.4088,-1.3814,-1.3781,-1.4075,-1.3808,-1.3794,-1.4082,-1.3801,-1.3801,-1.4088,-1.3801,-1.3801,-1.4088,-1.4088,-1.3928,-1.3559,-1.3559,-1.3801,-1.4021,0.0,-1.3367,-1.3552,0.0,-1.3579,-1.3728,0.0,0.0,0.0,-1.4115,-1.4108,0.0,-1.4122,0.0,0.0,0.0,0.0,0.0,0.0,0.0,0.0,0.0,0.0,0.0,0.0,0.0,0.0,0.0,0.0,0.0,0.0,0.0,0.0,0.0,0.0,0.0,0.0,0.0,0.0,0.0,0.0,0.0,0.0,0.0,0.0,0.0,0.0,0.0,0.0,0.0,-1.5242,-1.3974,-1.3872,-1.3199,-1.1848,-1.0583,-0.9899,-0.9899,-0.8627,-0.8038,-0.8038,-0.8038,-0.8038,-0.8038,-0.8038,-0.8038,-0.8038,-0.8038,-0.8038,-0.8038,-0.8038,-0.8038,-0.8038,-0.8038,-0.8038,-0.8038,-0.8045,-0.814,-0.8272,0.0,0.0,0.0,0.0,0.0,0.0,-1.4088,-1.4088,-1.4088,0.0,0.0,0.0,-1.4088,-1.4088,-1.4088,-1.4088,-1.4088,-1.4088,-1.4088,-1.4008,-1.4001,-1.4082,-1.4008,-1.4001,-1.4088,-1.4008,-1.4008,-1.4088,-1.4008,-1.4008,-1.4088,-1.4088,-1.3928,-1.3559,-1.3559,-1.3574,-1.3427,-1.3039,0.0,-1.3367,-1.3794,-1.4088,0.0,0.0,0.0,0.0,0.0,-1.3986,-1.4469,0.0,-1.4469,-1.3714,0.0,0.0,0.0,0.0,0.0,0.0,-1.3788,0.0,0.0,0.0,0.0,0.0,0.0,0.0,0.0,0.0,0.0,0.0,0.0,0.0,0.0,0.0,0.0,0.0,0.0,0.0,0.0,0.0,0.0,0.0,0.0,0.0,0.0,0.0,0.0,-1.5242,-1.3974,-1.2134,-1.048,-0.9114,-0.8726,-0.8528,-0.8528,-0.8137,-0.8038,-0.8038,-0.8038,-0.8038,-0.8038,-0.8038,-0.8038,-0.8038,-0.8038,-0.8038,-0.8038,-0.8038,-0.8038,-0.8038,-0.8038,-0.8038,-0.8055,-0.8167,-0.8235,-0.8286,0.0,0.0,0.0,0.0,0.0,-1.4088,-1.4088,-1.4088,-1.4088,0.0,0.0,0.0,-1.4088,-1.4088,-1.4088,-1.4088,-1.4088,-1.4088,-1.4088,-1.4088,-1.4088,-1.4088,-1.4088,-1.4088,-1.4088,-1.3968,-1.3961,-1.4088,-1.3961,-1.3968,-1.4088,-1.4088,-1.3928,-1.3641,0.0,0.0,0.0,0.0,0.0,0.0,-1.3761,0.0,0.0,-1.4606,-1.4823,0.0,0.0,0.0,-1.4796,-1.5378,-1.4963,0.0,0.0,0.0,0.0,0.0,0.0,0.0,-1.4041,-1.4088,0.0,0.0,0.0,0.0,0.0,-1.3911,0.0,0.0,0.0,0.0,0.0,0.0,0.0,0.0,0.0,0.0,0.0,0.0,0.0,0.0,0.0,0.0,0.0,0.0,0.0,0.0,-1.5337,-1.4172,-1.2323,-1.0288,-0.8825,-0.8038,-0.8038,-0.8038,-0.8038,-0.8038,-0.8038,-0.8038,-0.8038,-0.8038,-0.8038,-0.8038,-0.8038,-0.8038,-0.8038,-0.8038,-0.8038,-0.8038,-0.8038,-0.8038,-0.8038,-0.8038,-0.8052,-0.814,-0.8174,-0.8184,0.0,0.0,0.0,-1.4088,-1.4088,-1.4088,-1.4088,-1.4088,-1.4088,0.0,-1.4088,-1.4088,-1.4088,-1.4055,-1.4048,-1.4082,-1.4055,-1.4048,-1.4082,-1.4088,-1.4088,-1.4088,-1.4088,-1.4088,-1.4088,-1.3828,-1.3821,-1.4088,-1.3821,-1.3828,-1.4088,-1.4088,-1.3928,-1.3627,0.0,0.0,0.0,0.0,0.0,-1.3641,-1.3607,-1.3834,0.0,0.0,-1.4601,0.0,-1.4672,-1.4933,-1.5084,-1.5571,-1.5391,0.0,0.0,0.0,0.0,0.0,-1.3654,-1.4088,-1.4088,-1.4088,-1.4088,0.0,0.0,0.0,-1.3847,-1.3998,0.0,0.0,0.0,0.0,0.0,0.0,0.0,0.0,0.0,0.0,0.0,0.0,0.0,0.0,0.0,0.0,0.0,0.0,0.0,-1.5629,-1.4364,-1.2619,-1.0096,-0.8821,-0.8137,-0.8038,-0.8038,-0.8038,-0.8038,-0.8038,-0.8038,-0.8038,-0.8038,-0.8038,-0.8038,-0.8038,-0.8038,-0.8038,-0.8038,-0.8038,-0.8038,-0.8038,-0.8038,-0.8038,-0.8038,-0.8038,-0.8038,-0.8038,-0.8038,-0.8038,0.0,0.0,-1.4088,-1.4088,-1.4088,-1.4088,-1.4088,-1.4088,-1.4088,-1.4088,-1.4088,-1.4088,-1.4088,-1.3874,-1.3828,-1.4068,-1.3868,-1.3834,-1.4075,-1.4088,-1.4088,-1.4088,-1.4088,-1.4088,-1.4088,-1.4035,-1.4028,-1.4088,-1.4028,-1.4035,-1.4088,-1.4088,-1.3928,-1.3627,-1.334,0.0,0.0,0.0,0.0,-1.3539,-1.3387,0.0,-1.4925,-1.5386,-1.5497,-1.5504,-1.5518,-1.5504,-1.5291,0.0,-1.5057,-1.4863,0.0,0.0,0.0,0.0,0.0,0.0,0.0,0.0,0.0,0.0,0.0,0.0,-1.2826,-1.3186,-1.3728,0.0,0.0,0.0,0.0,0.0,0.0,0.0,0.0,0.0,0.0,0.0,0.0,0.0,0.0,0.0,0.0,0.0,-1.5337,-1.4364,-1.3006,-1.1653,-1.0096,-0.9702,-0.9118,-0.8038,-0.8038,-0.8038,-0.8038,-0.8038,-0.8038,-0.8038,-0.8038,-0.8038,-0.8038,-0.8038,-0.8038,-0.8038,-0.8038,-0.8038,-0.8038,-0.8038,-0.8038,-0.8038,-0.8038,-0.8038,-0.8038,-0.8038,-0.8038,-0.8038,-1.4088,-1.4088,-1.4088,-1.4088,-1.4088,-1.4088,-1.4088,-1.4088,-1.4088,-1.4088,-1.4088,-1.4088,-1.4088,-1.3955,-1.3868,-1.3868,-1.3728,-1.3647,-1.3647,-1.3647,-1.3714,-1.3854,-1.3868,-1.3935,-1.4082,-1.4088,-1.4088,-1.4088,-1.4088,-1.4088,-1.4088,-1.4088,-1.4008,-1.3848,-1.3407,0.0,0.0,0.0,-1.2378,-1.3206,-1.336,0.0,-1.5211,-1.5611,-1.5812,-1.5832,-1.5832,-1.5732,-1.5591,-1.5444,-1.5204,0.0,0.0,-1.4422,-1.4242,0.0,-1.4075,-1.4269,0.0,0.0,0.0,-1.4088,0.0,0.0,0.0,-1.3563,0.0,0.0,0.0,0.0,0.0,0.0,0.0,0.0,0.0,0.0,0.0,0.0,0.0,0.0,0.0,0.0,0.0,0.0,-1.4949,-1.3011,-1.1653,-1.0391,-0.9118,-0.9019,-0.8726,-0.8038,-0.8038,-0.8038,-0.8038,-0.8038,-0.8038,-0.8038,-0.8038,-0.8038,-0.8038,-0.8038,-0.8038,-0.8038,-0.8038,-0.8038,-0.8038,-0.8038,-0.8038,-0.8038,-0.8038,-0.8038,-0.8038,-0.8038,-0.8038,-0.8038,-1.4068,-1.4088,-1.4088,-1.4088,-1.4088,-1.4088,-1.4088,-1.4088,-1.4088,-1.4088,-1.4135,-1.4168,-1.4168,-1.4168,-1.4095,-1.3915,-1.3848,-1.3714,-1.348,-1.3414,-1.348,-1.3721,-1.3592,-1.3781,-1.4082,-1.4088,-1.4088,-1.4088,-1.4028,-1.4001,-1.4001,-1.3941,-1.3921,-1.3901,-1.342,-1.318,0.0,0.0,0.0,-1.3124,0.0,-1.4262,-1.5097,-1.555,-1.5712,-1.5678,-1.5792,-1.5832,-1.5818,-1.5765,0.0,-1.503,-1.4917,-1.479,0.0,0.0,0.0,0.0,0.0,0.0,0.0,0.0,0.0,-1.3841,0.0,0.0,0.0,0.0,0.0,0.0,0.0,0.0,0.0,0.0,0.0,0.0,0.0,0.0,0.0,0.0,0.0,0.0,0.0,0.0,-1.441,-1.2042,-1.0644,-0.9375,-0.8035,-0.8038,-0.8038,-0.8038,-0.8038,-0.8038,-0.8038,-0.8038,-0.8038,-0.8038,-0.8038,-0.8038,-0.8038,-0.8038,-0.8038,-0.8038,-0.8038,-0.8038,-0.8038,-0.8038,-0.8038,-0.8038,-0.8038,-0.8038,-0.8038,-0.8038,-0.8038,-0.8038,-1.3981,-1.4088,-1.4088,-1.4088,-1.4088,-1.4088,-1.4088,-1.4088,-1.4088,-1.4088,-1.4309,-1.4469,-1.4469,-1.4469,-1.4563,-1.4796,-1.4576,0.0,-1.4376,0.0,-1.4001,-1.4035,-1.3781,-1.3781,-1.4082,-1.4088,-1.4088,-1.4088,-1.3821,-1.3694,-1.3687,-1.3434,-1.3307,-1.3307,-1.324,0.0,0.0,0.0,-1.3146,0.0,-1.4008,-1.3961,0.0,-1.4856,-1.5233,-1.513,-1.5645,-1.5832,-1.5792,0.0,-1.5398,-1.5257,0.0,-1.4903,-1.5137,0.0,0.0,0.0,0.0,0.0,0.0,0.0,-1.4062,0.0,0.0,0.0,0.0,0.0,0.0,0.0,0.0,0.0,0.0,0.0,0.0,0.0,0.0,0.0,0.0,0.0,0.0,0.0,0.0,0.0,0.0,-1.2027,-1.0421,-0.9053,-0.8031,-0.8038,-0.8038,-0.8038,-0.8038,-0.8038,-0.8038,-0.8038,-0.8038,-0.8038,-0.8038,-0.8038,-0.8038,-0.8038,-0.8038,-0.8038,-0.8038,-0.8038,-0.8038,-0.8038,-0.8038,-0.8038,-0.8038,-0.8038,-0.8038,-0.8038,-0.8038,-0.8038,-1.3527,-1.3581,-1.3627,-1.3801,-1.3828,-1.3888,-1.4062,-1.4088,-1.4088,-1.4088,-1.4195,-1.4269,0.0,0.0,0.0,0.0,0.0,-1.3053,0.0,0.0,-1.306,-1.3745,-1.3707,-1.3781,-1.4082,-1.4088,-1.4088,-1.4088,-1.3788,-1.3559,-1.3552,-1.3347,-1.33,-1.338,-1.2632,0.0,-1.352,0.0,-1.2965,0.0,0.0,0.0,0.0,-1.4966,-1.547,-1.5498,-1.5745,-1.5832,-1.5812,0.0,-1.5424,0.0,0.0,0.0,0.0,0.0,0.0,0.0,0.0,0.0,0.0,0.0,0.0,0.0,-1.3878,0.0,-1.3661,0.0,0.0,0.0,0.0,0.0,0.0,0.0,0.0,0.0,0.0,0.0,0.0,0.0,0.0,0.0,0.0,0.0,0.0,0.0,0.0,-0.9237,-0.8035,-0.8038,-0.8038,-0.8038,-0.8038,-0.8038,-0.8038,-0.8038,-0.8038,-0.8038,-0.8038,-0.8038,-0.8038,-0.8038,-0.8038,-0.8038,-0.8038,-0.8038,-0.8038,-0.8038,-0.8038,-0.8038,-0.8038,-0.8038,-0.8038,-0.8038,-0.8038,-0.8038,-1.2959,-1.3093,-1.33,-1.3512,0.0,-1.3741,-1.4041,0.0,0.0,0.0,0.0,0.0,-1.4315,-1.4115,0.0,0.0,-1.2327,-1.2043,0.0,0.0,-1.2204,0.0,0.0,0.0,0.0,-1.3952,-1.4088,-1.4088,-1.3788,-1.3559,-1.3552,-1.326,-1.32,-1.332,0.0,-1.2474,-1.3252,0.0,0.0,-1.2983,-1.3182,-1.3219,-1.333,-1.495,-1.5591,-1.5832,-1.5832,-1.5832,-1.5818,-1.5738,-1.5431,0.0,-1.5484,0.0,0.0,0.0,0.0,0.0,-1.4216,0.0,0.0,0.0,0.0,0.0,0.0,0.0,0.0,0.0,0.0,0.0,0.0,0.0,0.0,0.0,0.0,0.0,0.0,0.0,0.0,0.0,0.0,0.0,0.0,0.0,0.0,0.0,-1.04,0.0,-0.8134,-0.8038,-0.8038,-0.8038,-0.8038,-0.8038,-0.8038,-0.8038,-0.8038,-0.8038,-0.8038,-0.8038,-0.8038,-0.8038,-0.8038,-0.8038,-0.8038,-0.8038,-0.8038,-0.8038,-0.8038,-0.8038,-0.8038,-0.8038,-0.8038,-0.8038,-0.8038,-0.8038,-1.2331,-1.2806,-1.33,0.0,0.0,0.0,0.0,0.0,0.0,0.0,0.0,0.0,0.0,0.0,0.0,0.0,0.0,-1.2023,-1.1701,0.0,-1.2182,0.0,0.0,-1.331,0.0,0.0,-1.4088,-1.4088,-1.3788,-1.3559,-1.3627,-1.3039,-1.2842,-1.2849,-1.2772,-1.222,-1.1289,-1.1611,-1.1527,-1.1146,-1.1151,-1.2248,-1.3951,0.0,-1.5134,-1.5832,-1.5832,0.0,0.0,-1.5504,-1.5398,0.0,0.0,0.0,0.0,0.0,0.0,0.0,0.0,0.0,0.0,-1.3894,0.0,0.0,0.0,0.0,-1.4075,0.0,0.0,0.0,0.0,0.0,-1.3968,-1.3687,-1.3654,0.0,0.0,0.0,0.0,0.0,0.0,0.0,0.0,0.0,0.0,0.0,-1.1417,0.0,-0.8127,-0.8038,-0.8038,-0.8038,-0.8038,-0.8038,-0.8038,-0.8038,-0.8038,-0.8038,-0.8038,-0.8038,-0.8038,-0.8038,-0.8038,-0.8038,-0.8038,-0.8038,-0.8038,-0.8038,-0.8038,-0.8038,-0.8038,-0.8038,-0.8038,-0.8038,-0.8038,-0.8038,-1.2559,-1.2605,-1.2705,0.0,0.0,0.0,0.0,-1.3961,0.0,0.0,0.0,0.0,0.0,-1.2646,-1.2144,0.0,0.0,-1.0547,-1.048,-1.1165,0.0,0.0,0.0,-1.3423,0.0,0.0,-1.3652,-1.4088,-1.3788,-1.3559,-1.3627,-1.3026,-1.2859,-1.3053,0.0,-1.1857,0.0,0.0,0.0,0.0,0.0,-1.1447,-1.3053,0.0,0.0,-1.5832,-1.5832,-1.5242,0.0,-1.4456,-1.3726,-1.2841,-1.2936,-1.2791,-1.2601,-1.2685,-1.2276,0.0,0.0,0.0,-1.2118,-1.2885,0.0,0.0,0.0,0.0,0.0,0.0,0.0,0.0,0.0,0.0,-1.4055,-1.3955,-1.3935,-1.3768,0.0,0.0,0.0,0.0,0.0,0.0,0.0,0.0,0.0,-0.9533,-1.0045,-0.9734,0.0,-0.8038,-0.8038,-0.8038,-0.8038,-0.8038,-0.8038,-0.8038,-0.8038,-0.8038,-0.8038,-0.8038,-0.8038,-0.8038,-0.8038,-0.8038,-0.8038,-0.8038,-0.8038,-0.8038,-0.8038,-0.8038,-0.8038,-0.8038,-0.8038,-0.8038,-0.8038,-0.8038,-1.2808,0.0,0.0,0.0,0.0,0.0,0.0,0.0,0.0,0.0,-1.2691,0.0,-1.2138,0.0,-1.1026,0.0,-0.982,-0.9334,-0.9314,-1.0088,0.0,-1.1111,-1.1942,0.0,0.0,0.0,0.0,-1.3538,-1.3432,-1.3546,-1.3788,-1.3193,-1.3019,-1.3121,0.0,-1.1613,-1.1718,0.0,-1.056,0.0,0.0,-1.0232,0.0,0.0,-1.3874,0.0,0.0,-1.3884,-1.3199,-1.3199,-1.2512,-1.1652,-1.1803,-1.1652,-1.1442,-1.1582,-1.1243,-1.0834,-1.113,-1.1022,0.0,0.0,-1.2163,0.0,-1.3374,0.0,0.0,0.0,0.0,0.0,0.0,0.0,-1.4122,-1.4222,-1.4068,-1.3761,0.0,-1.33,0.0,0.0,0.0,0.0,0.0,0.0,-1.1844,-0.8883,-0.9415,-0.9275,0.0,0.0,-0.8038,-0.8038,-0.8038,-0.8038,-0.8038,-0.8038,-0.8038,-0.8038,-0.8038,-0.8038,-0.8038,-0.8038,-0.8038,-0.8038,-0.8038,-0.8038,-0.8038,-0.8038,-0.8038,-0.8038,-0.8038,-0.8038,-0.8038,-0.8038,-0.8038,-0.8038,0.0,0.0,0.0,0.0,-1.344,0.0,0.0,0.0,-1.2865,0.0,-1.2227,-1.1798,-1.2029,-1.1063,-1.0424,-1.0646,-0.9463,0.0,-0.8313,-0.9218,0.0,0.0,-0.9912,-1.0636,-0.9619,0.0,0.0,0.0,-1.2825,-1.3385,-1.4055,-1.3474,-1.32,-1.316,-1.2565,0.0,-1.0163,-1.0173,-0.9309,-0.8035,-0.798,-0.8765,-0.9878,-0.9205,0.0,-1.2204,-1.1961,-1.1848,-1.1848,-1.1848,-1.1755,-1.175,-1.175,-1.175,-1.175,-1.175,-1.0877,-1.0151,-1.1106,-1.0387,-0.9689,-1.0788,0.0,0.0,0.0,0.0,-1.2568,0.0,0.0,0.0,0.0,0.0,0.0,-1.4456,-1.4015,-1.3554,-1.3293,0.0,0.0,0.0,0.0,0.0,0.0,-1.2498,-1.1701,-0.9543,-0.943,-0.9033,0.0,0.0,0.0,-0.8038,-0.8038,-0.8038,-0.8038,-0.8038,-0.8038,-0.8038,-0.8038,-0.8038,-0.8038,-0.8038,-0.8038,-0.8038,-0.8038,-0.8038,-0.8038,-0.8038,-0.8038,-0.8038,-0.8038,-0.8038,-0.8038,-0.8038,-0.8038,-0.8038,-1.3106,-1.3327,-1.346,0.0,-1.3273,-1.3394,0.0,0.0,0.0,0.0,-1.149,-1.074,-1.0292,-0.9818,-0.9478,-0.959,-0.9054,0.0,0.0,0.0,0.0,-0.9622,-1.0057,-1.0538,-1.0934,-1.0447,0.0,-1.2639,0.0,-1.2928,-1.3748,-1.338,-1.3086,-1.2929,0.0,0.0,-1.0049,-1.0201,-0.9309,-0.8038,-0.8024,-0.835,0.0,0.0,-0.88,-0.9748,-1.1288,-1.1263,-1.0485,-1.0485,-0.9801,-0.9019,-0.9019,-0.9019,-0.9019,-0.9019,-0.8722,-0.8619,-0.8864,-0.8659,-0.8623,-0.9693,-0.9927,-1.0157,0.0,0.0,0.0,0.0,0.0,0.0,0.0,0.0,0.0,-1.4045,-1.3888,-1.3694,0.0,0.0,0.0,-1.3174,0.0,0.0,0.0,-1.1364,-1.059,-0.8403,-0.8133,0.0,0.0,0.0,0.0,-0.8031,-0.8038,-0.8038,-0.8038,-0.8038,-0.8038,-0.8038,-0.8038,-0.8038,-0.8038,-0.8038,-0.8038,-0.8038,-0.8038,-0.8038,-0.8038,-0.8038,-0.8038,-0.8038,-0.8038,-0.8038,-0.8038,-0.8038,-0.8038,-0.8038,-1.3233,0.0,0.0,-1.3601,0.0,0.0,-1.3056,0.0,0.0,-1.1961,-1.1063,0.0,-0.9968,-0.9511,-0.9127,-0.9066,-0.8906,0.0,-0.853,0.0,0.0,-0.9145,-0.9131,-0.9348,-0.9925,-0.9464,0.0,-1.1305,0.0,0.0,-1.3024,-1.3061,-1.2913,-1.2808,0.0,-1.1634,-1.0507,-0.9906,-0.9047,-0.7943,-0.8014,0.0,0.0,-0.8107,-0.8086,-0.8412,-0.9763,-0.9702,-0.9118,-0.9118,-0.8627,-0.8038,-0.8038,-0.8038,-0.8038,-0.8038,-0.8038,-0.8038,-0.8038,-0.8038,-0.8117,-0.8709,-0.8878,-0.9119,-1.0162,-1.0398,-1.0398,0.0,0.0,0.0,0.0,0.0,0.0,-1.3436,-1.3432,0.0,0.0,0.0,0.0,0.0,0.0,0.0,0.0,0.0,0.0,0.0,0.0,0.0,0.0,0.0,0.0,0.0,-0.7974,-0.8038,-0.8038,-0.8038,-0.8038,-0.8038,-0.8038,-0.8038,-0.8038,-0.8038,-0.8038,-0.8038,-0.8038,-0.8038,-0.8038,-0.8038,-0.8038,-0.8038,-0.8038,-0.8038,-0.8038,-0.8038,-0.8038,-0.8038,-1.3367,0.0,0.0,0.0,0.0,0.0,0.0,-1.2426,0.0,-1.1611,0.0,-1.0254,-1.0254,-0.9636,-0.9076,-0.895,0.0,-0.8764,-0.8353,-0.8425,-0.8299,-0.7889,-0.798,-0.8038,-0.8038,-0.8282,0.0,0.0,0.0,-1.1472,-1.2245,-1.2628,-1.2802,-1.2755,0.0,0.0,0.0,-0.9566,-0.8513,0.0,-0.7987,-0.8038,-0.8038,-0.8038,-0.8038,-0.8038,-0.8038,-0.8038,-0.8038,-0.8038,-0.8038,-0.8038,-0.8038,-0.8038,-0.8038,-0.8038,-0.8038,-0.8038,-0.8038,-0.8038,-0.8038,-0.8038,-0.8038,-0.8199,-0.9123,-0.928,-0.928,-0.928,-1.009,0.0,0.0,0.0,0.0,0.0,0.0,0.0,0.0,0.0,0.0,0.0,0.0,0.0,0.0,0.0,0.0,0.0,0.0,0.0,0.0,0.0,0.0,0.0,-0.7906,0.0,-0.8038,0.0,-0.8038,-0.8038,-0.8038,-0.8038,-0.8038,-0.8038,-0.8038,-0.8038,-0.8038,-0.8038,-0.8038,-0.8038,-0.8038,-0.8038,-0.8038,-0.8038,-0.8038,-0.8038,-0.8038,-0.8038,0.0,0.0,0.0,0.0,0.0,-1.2459,-1.1813,-1.1166,-1.0875,-1.0816,-1.0059,-0.9405,-0.9405,-0.9126,-0.8964,-0.894,-0.894,0.0,0.0,0.0,0.0,-0.8197,-0.8092,-0.8038,-0.8038,-0.7986,-0.8509,0.0,-1.0294,-1.1055,-1.1964,-1.2536,-1.2619,-1.2378,0.0,0.0,-1.0257,-0.8833,0.0,-0.8001,-0.8028,-0.8038,-0.8038,-0.8038,-0.8038,-0.8038,-0.8038,-0.8038,-0.8038,-0.8038,-0.8038,-0.8038,-0.8038,-0.8038,-0.8038,-0.8038,-0.8038,-0.8038,-0.8038,-0.8038,-0.8038,-0.8038,-0.8038,-0.8031,-0.8202,-0.8294,-0.8294,-0.8294,-0.8364,-0.8713,-0.9497,0.0,0.0,0.0,0.0,0.0,0.0,0.0,0.0,0.0,0.0,0.0,0.0,0.0,0.0,0.0,0.0,0.0,0.0,0.0,0.0,0.0,0.0,0.0,0.0,0.0,0.0,-0.8038,-0.8038,-0.8038,-0.8038,-0.8038,-0.8038,-0.8038,-0.8038,-0.8038,-0.8038,-0.8038,-0.8038,-0.8038,-0.8038,-0.8038,-0.8038,-0.8038,-0.8038,-0.8038,0.0,0.0,0.0,0.0,0.0,0.0,0.0,-1.0208,0.0,-1.0408,-1.0046,-0.9667,-0.9667,-0.9212,-0.8906,-0.8828,-0.8821,-0.8723,-0.8496,-0.8414,-0.8306,-0.8157,-0.8079,0.0,-0.8038,-0.7967,-0.8178,-0.8674,-0.98,-1.0466,-1.0913,-1.1979,-1.2438,-1.2311,0.0,-1.0778,0.0,0.0,0.0,-0.7929,-0.8007,-0.8038,-0.8038,-0.8038,-0.8038,-0.8038,-0.8038,-0.8038,-0.8038,-0.8038,-0.8038,-0.8038,-0.8038,-0.8038,-0.8038,-0.8038,-0.8038,-0.8038,-0.8038,-0.8038,-0.8038,-0.8038,-0.8038,-0.8038,-0.8038,-0.8038,-0.8038,-0.8038,-0.8038,-0.8188,-0.8902,-0.9382,0.0,0.0,0.0,0.0,0.0,0.0,0.0,0.0,0.0,0.0,0.0,0.0,0.0,0.0,0.0,0.0,0.0,0.0,0.0,0.0,0.0,0.0,0.0,0.0,0.0,-0.8038,-0.8038,-0.8038,-0.8038,-0.8038,-0.8038,-0.8038,-0.8038,-0.8038,-0.8038,-0.8038,-0.8038,-0.8038,-0.8038,-0.8038,-0.8038,-0.8038,-0.8038,-0.8038,0.0,-1.3834,0.0,0.0,-1.1788,0.0,0.0,-0.957,-0.9187,-0.9922,-0.9965,-0.9945,-0.9945,-0.9302,-0.8842,-0.872,-0.8679,-0.855,-0.8289,-0.8272,-0.8201,-0.8045,-0.8038,-0.8038,-0.8038,-0.8038,-0.7969,0.0,-0.927,-1.004,0.0,-1.1303,0.0,0.0,0.0,0.0,0.0,0.0,-0.8419,-0.7872,-0.7991,-0.8038,-0.8038,-0.8038,-0.8038,-0.8038,-0.8038,-0.8038,-0.8038,-0.8038,-0.8038,-0.8038,-0.8038,-0.8038,-0.8038,-0.8038,-0.8038,-0.8038,-0.8038,-0.8038,-0.8038,-0.8038,-0.8038,-0.8038,-0.8038,-0.8038,-0.8038,-0.8038,-0.8038,-0.8093,-0.8326,-0.8317,0.0,0.0,0.0,0.0,0.0,0.0,0.0,0.0,0.0,0.0,0.0,0.0,0.0,0.0,0.0,0.0,0.0,0.0,0.0,0.0,0.0,0.0,-0.7991,0.0,-0.8038,0.0,-0.8038,-0.8038,-0.8038,-0.8038,-0.8038,-0.8038,-0.8038,-0.8038,-0.8038,-0.8038,-0.8038,-0.8038,-0.8038,-0.8038,-0.8038,-0.8038,-0.8038,-0.8038,0.0,0.0,0.0,0.0,0.0,0.0,0.0,-0.95,-0.8974,-0.93,-0.9085,-0.9006,-0.9006,-0.8798,-0.8726,-0.8713,-0.8584,-0.8438,-0.8282,-0.8272,-0.8201,-0.8045,-0.8038,-0.8038,-0.8038,-0.8038,-0.807,0.0,0.0,-0.9696,-1.0295,-1.0571,0.0,0.0,0.0,0.0,0.0,-0.8417,-0.8122,-0.8021,-0.8035,-0.8038,-0.8038,-0.8038,-0.8038,-0.8038,-0.8038,-0.8038,-0.8038,-0.8038,-0.8038,-0.8038,-0.8038,-0.8038,-0.8038,-0.8038,-0.8038,-0.8038,-0.8038,-0.8038,-0.8038,-0.8038,-0.8038,-0.8038,-0.8038,-0.8038,-0.8038,-0.8038,-0.8038,-0.7994,-0.7838,-0.7913,-0.8048,0.0,0.0,0.0,0.0,0.0,0.0,0.0,0.0,0.0,0.0,0.0,0.0,0.0,0.0,0.0,0.0,0.0,0.0,0.0,0.0,-0.7831,-0.7831,-0.797,0.0,-0.8038,-0.8038,-0.8038,-0.8038,-0.8038,-0.8038,-0.8038,-0.8038,-0.8038,-0.8038,-0.8038,-0.8038,-0.8038,-0.8038,-0.8038,-0.8038,-0.8038,-0.8038,-0.8038,0.0,0.0,0.0,0.0,0.0,0.0,0.0,-0.9074,-0.896,-0.9018,-0.8974,-0.8903,-0.8811,-0.8747,-0.8638,-0.8462,-0.8391,-0.8292,-0.8143,-0.8133,-0.8102,-0.8041,-0.8038,-0.8038,-0.8038,-0.8038,-0.799,0.0,0.0,-0.9065,-0.9059,-0.9692,0.0,0.0,0.0,-0.8581,-0.8066,-0.8037,-0.7942,-0.8038,-0.8038,-0.8038,-0.8038,-0.8038,-0.8038,-0.8038,-0.8038,-0.8038,-0.8038,-0.8038,-0.8038,-0.8038,-0.8038,-0.8038,-0.8038,-0.8038,-0.8038,-0.8038,-0.8038,-0.8038,-0.8038,-0.8038,-0.8038,-0.8038,-0.8038,-0.8038,-0.8038,-0.8038,-0.8038,-0.8021,-0.796,-0.7923,-0.7913,0.0,0.0,0.0,0.0,0.0,0.0,0.0,0.0,0.0,0.0,0.0,0.0,0.0,0.0,0.0,0.0,0.0,0.0,-0.7804,0.0,-0.7946,-0.7946,-0.8011,-0.8038,-0.8038,-0.8038,-0.8038,-0.8038,-0.8038,-0.8038,-0.8038,-0.8038,-0.8038,-0.8038,-0.8038,-0.8038,-0.8038,-0.8038,-0.8038,-0.8038,-0.8038,-0.8038,-0.8038,-1.192,0.0,-1.1381,0.0,-0.9777,-0.9647,-0.9013,-0.894,-0.8923,-0.8876,-0.8872,-0.8828,-0.8723,-0.8632,-0.8496,-0.8289,-0.8231,-0.8157,-0.8045,-0.8038,-0.8038,-0.8038,-0.8038,0.0,-0.8038,-0.8038,-0.7936,-0.7729,-0.8359,0.0,0.0,0.0,0.0,0.0,-0.8485,-0.8162,-0.7672,-0.7818,-0.794,-0.8038,-0.8038,-0.8038,-0.8038,-0.8038,-0.8038,-0.8038,-0.8038,-0.8038,-0.8038,-0.8038,-0.8038,-0.8038,-0.8038,-0.8038,-0.8038,-0.8038,-0.8038,-0.8038,-0.8038,-0.8038,-0.8038,-0.8038,-0.8038,-0.8038,-0.8038,-0.8038,-0.8038,-0.8038,-0.8038,-0.8038,-0.8038,-0.795,-0.7913,0.0,0.0,0.0,0.0,0.0,0.0,0.0,-0.7787,-0.7662,-0.7662,0.0,0.0,0.0,0.0,0.0,0.0,0.0,0.0,0.0,0.0,0.0,0.0,0.0,-0.8038,-0.8038,-0.8038,-0.8038,-0.8038,-0.8038,-0.8038,-0.8038,-0.8038,-0.8038,-0.8038,-0.8038,-0.8038,-0.8038,-0.8038,-0.8038,-0.8038,-0.8038,-0.8038,-0.8038,-1.2817,-1.2392,-1.1699,-0.9311,-0.8933,-0.8933,-0.894,-0.894,-0.8882,-0.8733,-0.8713,-0.8713,-0.871,-0.8448,-0.8275,-0.8272,-0.813,-0.8041,-0.8038,-0.8038,-0.8038,0.0,0.0,-0.8038,-0.8038,-0.8038,-0.8038,-0.8035,0.0,0.0,-0.9056,0.0,-0.8452,-0.8011,-0.7716,-0.7675,-0.7818,-0.797,-0.8038,-0.8038,-0.8038,-0.8038,-0.8038,-0.8038,-0.8038,-0.8038,-0.8038,-0.8038,-0.8038,-0.8038,-0.8038,-0.8038,-0.8038,-0.8038,-0.8038,-0.8038,-0.8038,-0.8038,-0.8038,-0.8038,-0.8038,-0.8038,-0.8038,-0.8038,-0.8038,-0.8038,-0.8038,-0.8038,-0.8038,-0.8038,-0.8038,-0.8038,-0.8038,-0.8038,0.0,0.0,0.0,0.0,0.0,0.0,-0.7811,-0.7811,-0.7811,0.0,0.0,0.0,0.0,0.0,0.0,0.0,0.0,-0.7811,-0.7814,0.0,-0.7814,-0.7963,-0.8038,-0.8038,-0.8038,-0.8038,-0.8038,-0.8038,-0.8038,-0.8038,-0.8038,-0.8038,-0.8038,-0.8038,-0.8038,-0.8038,-0.8038,-0.8038,-0.8038,-0.8038,-0.8038,-0.8038,-1.3102,-1.2091,-1.1089,-1.0361,-0.9425,-0.8781,-0.8781,-0.8781,-0.8764,-0.8716,-0.8537,-0.8411,-0.8411,-0.8326,-0.8228,0.0,-0.8069,-0.8038,0.0,-0.8038,-0.8038,-0.8038,-0.8038,-0.8038,-0.8038,-0.8038,-0.8038,-0.8038,0.0,0.0,0.0,-0.7955,-0.7898,-0.7868,-0.7831,-0.7926,-0.797,-0.8018,-0.8038,-0.8038,-0.8038,-0.8038,-0.8038,-0.8038,-0.8038,-0.8038,-0.8038,-0.8038,-0.8038,-0.8038,-0.8038,-0.8038,-0.8038,-0.8038,-0.8038,-0.8038,-0.8038,-0.8038,-0.8038,-0.8038,-0.8038,-0.8038,-0.8038,-0.8038,-0.8038,-0.8038,-0.8038,-0.8038,-0.8038,-0.8038,-0.8038,-0.8038,-0.8038,-0.8038,0.0,0.0,0.0,0.0,0.0,0.0,0.0,-0.7967,0.0,-0.7967,0.0,0.0,0.0,0.0,0.0,0.0,0.0,0.0,-0.7913,0.0,-0.7967,-0.8014,-0.8038,-0.8038,-0.8038,-0.8038,-0.8038,-0.8038,-0.8038,-0.8038,-0.8038,-0.8038,-0.8038,-0.8038,-0.8038,-0.8038,-0.8038,-0.8038,-0.8038,-0.8038,-0.8038,-0.8038,-1.397,-1.2772,-1.1652,-1.1048,-0.9715,-0.8757,-0.8642,-0.8672,-0.8669,-0.856,-0.8384,-0.8248,-0.8191,-0.8184,0.0,-0.8048,-0.8038,0.0,-0.8038,-0.8038,-0.8038,-0.8038,-0.8038,-0.8038,-0.8038,0.0,0.0,-0.8038,-0.7943,-0.7851,-0.7763,-0.7763,-0.7814,-0.7899,-0.7997,-0.8038,-0.8038,-0.8038,-0.8038,-0.8038,-0.8038,-0.8038,-0.8038,-0.8038,-0.8038,-0.8038,-0.8038,-0.8038,-0.8038,-0.8038,-0.8038,-0.8038,-0.8038,-0.8038,-0.8038,-0.8038,-0.8038,-0.8038,-0.8038,-0.8038,-0.8038,-0.8038,-0.8038,-0.8038,-0.8038,-0.8038,-0.8038,-0.8038,-0.8038,-0.8038,-0.8038,-0.8038,-0.8038,-0.8038,0.0,0.0,0.0,0.0,0.0,0.0,0.0,0.0,0.0,-0.7953,0.0,0.0,0.0,0.0,0.0,0.0,0.0,-0.7899,-0.7991,0.0,-0.8038,-0.8038,-0.8038,-0.8038,-0.8038,-0.8038,-0.8038,-0.8038,-0.8038,-0.8038,-0.8038,-0.8038,-0.8038,-0.8038,-0.8038,-0.8038,-0.8038,-0.8038,-0.8038,-0.8038,-0.8038,-0.8038,-1.5427,-1.4128,0.0,0.0,-0.9776,0.0,-0.8526,-0.8604,-0.8591,-0.8306,-0.8262,-0.8201,-0.8055,-0.8038,-0.8038,-0.8038,0.0,0.0,0.0,-0.8038,-0.8038,-0.8038,-0.8038,0.0,-0.8038,-0.8038,-0.8038,-0.8038,-0.8038,-0.8038,-0.8038,-0.8038,-0.8038,-0.8038,-0.8038,-0.8038,-0.8038,-0.8038,-0.8038,-0.8038,-0.8038,-0.8038,-0.8038,-0.8038,-0.8038,-0.8038,-0.8038,-0.8038,-0.8038,-0.8038,-0.8038,-0.8038,-0.8038,-0.8038,-0.8038,-0.8038,-0.8038,-0.8038,-0.8038,-0.8038,-0.8038,-0.8038,-0.8038,-0.8038,-0.8038,-0.8038,-0.8038,-0.8038,-0.8038,-0.8038,-0.8038,-0.8038,-0.8038,-0.8038,-0.8038,-0.8038,-0.8038,0.0,0.0,0.0,0.0,0.0,0.0,-0.7828,-0.7879,0.0,0.0,0.0,0.0,0.0,0.0,-0.8035,-0.8038,-0.8038,-0.8038,-0.8038,-0.8038,-0.8038,-0.8038,-0.8038,-0.8038,-0.8038,-0.8038,-0.8038,-0.8038,-0.8038,-0.8038,-0.8038,-0.8038,-0.8038,-0.8038,-0.8038,-0.8038,-0.8038,-0.8038,-0.8038,0.0,0.0,-1.2547,-1.2245,-1.0229,-0.8567,-0.8492,-0.8513,-0.8472,-0.8292,-0.8167,-0.8079,-0.8041,-0.8038,-0.8038,-0.8038,-0.8038,-0.8038,-0.8038,-0.8038,-0.8038,-0.8038,-0.8038,-0.8038,-0.8038,-0.8038,-0.8038,-0.8038,-0.8038,-0.8038,-0.8038,-0.8038,-0.8038,-0.8038,-0.8038,-0.8038,-0.8038,-0.8038,-0.8038,-0.8038,-0.8038,-0.8038,-0.8038,-0.8038,-0.8038,-0.8038,-0.8038,-0.8038,-0.8038,-0.8038,-0.8038,-0.8038,-0.8038,-0.8038,-0.8038,-0.8038,-0.8038,-0.8038,-0.8038,-0.8038,-0.8038,-0.8038,-0.8038,-0.8038,-0.8038,-0.8038,-0.8038,-0.8038,-0.8038,-0.8038,-0.8038,-0.8038,-0.8038,-0.8038,-0.8038,-0.8038,-0.8038,0.0,0.0,0.0,-0.7984,-0.7984,-0.7984,-0.7984,-0.7909,0.0,0.0,0.0,0.0,0.0,-0.7882,-0.8035,-0.8038,-0.8038,-0.8038,-0.8038,-0.8038,-0.8038,-0.8038,-0.8038,-0.8038,-0.8038,-0.8038,-0.8038,-0.8038,-0.8038,-0.8038,-0.8038,-0.8038,-0.8038,-0.8038,-0.8038,-0.8038,-0.8038,-0.8038,-0.8038,-1.648,-1.4962,-1.34,-1.2695,-1.0924,-0.9373,-0.8508,-0.8384,-0.8333,-0.8184,-0.8092,-0.8038,-0.8038,-0.8038,-0.8038,-0.8038,-0.8038,-0.8038,-0.8038,-0.8038,-0.8038,-0.8038,-0.8038,-0.8038,-0.8038,-0.8038,-0.8038,-0.8038,-0.8038,-0.8038,-0.8038,-0.8038,-0.8038,-0.8038,-0.8038,-0.8038,-0.8038,-0.8038,-0.8038,-0.8038,-0.8038,-0.8038,-0.8038,-0.8038,-0.8038,-0.8038,-0.8038,-0.8038,-0.8038,-0.8038,-0.8038,-0.8038,-0.8038,-0.8038,-0.8038,-0.8038,-0.8038,-0.8038,-0.8038,-0.8038,-0.8038,-0.8038,-0.8038,-0.8038,-0.8038,-0.8038,-0.8038,-0.8038,-0.8038,-0.8038,-0.8038,-0.8038,-0.8038,-0.8038,-0.798,-0.796,-0.8028,-0.798,0.0,-0.8031,-0.8038,-0.8038,-0.8038,-0.8038,-0.7974,-0.7814,0.0,0.0,-0.7804,-0.7875,-0.7953,-0.8038,-0.8038,-0.8038,-0.8038,-0.8038,-0.8038,-0.8038,-0.8038,-0.8038,-0.8038,-0.8038,-0.8038,-0.8038,-0.8038,-0.8038,-0.8038,-0.8038,-0.8038,-0.8038,-0.8038,-0.8038,-0.8038,-0.8038,-0.8038,-0.8038,-1.6206,-1.5513,-1.4436,-1.2782,-1.159,-1.0249,-0.8515,-0.8272,-0.8214,-0.8058,-0.8038,-0.8038,-0.8038,-0.8038,-0.8038,-0.8038,-0.8038,-0.8038,-0.8038,-0.8038,-0.8038,-0.8038,-0.8038,-0.8038,-0.8038,-0.8038,-0.8038,-0.8038,-0.8038,-0.8038,-0.8038,-0.8038,-0.8038,-0.8038,-0.8038,-0.8038,-0.8038,-0.8038,-0.8038,-0.8038,-0.8038,-0.8038,-0.8038,-0.8038,-0.8038,-0.8038,-0.8038,-0.8038,-0.8038,-0.8038,-0.8038,-0.8038,-0.8038,-0.8038,-0.8038,-0.8038,-0.8038,-0.8038,-0.8038,-0.8038,-0.8038,-0.8038,-0.8038,-0.8038,-0.8038,-0.8038,-0.8038,-0.8038,-0.8038,-0.8038,-0.8038,-0.8038,-0.8031,-0.8011,-0.7916,-0.7882,-0.7991,0.0,-0.7892,-0.8024,-0.8038,-0.8038,-0.8038,-0.8038,-0.8038,-0.8038,-0.8038,0.0,0.0,-0.8038,-0.8038,-0.8038,-0.8038,-0.8038,-0.8038,-0.8038,-0.8038,-0.8038,-0.8038,-0.8038,-0.8038,-0.8038,-0.8038,-0.8038,-0.8038,-0.8038,-0.8038,-0.8038,-0.8038,-0.8038,-0.8038,-0.8038,-0.8038,-0.8038,-0.8038,-0.8038,-1.5899,-1.507,-1.3962,-1.2525,-1.1378,-1.0207,-0.86,-0.8272,-0.8214,-0.8058,-0.8038,-0.8038,-0.8038,-0.8038,-0.8038,-0.8038,-0.8038,-0.8038,-0.8038,-0.8038,-0.8038,-0.8038,-0.8038,-0.8038,-0.8038,-0.8038,-0.8038,-0.8038,-0.8038,-0.8038,-0.8038,-0.8038,-0.8038,-0.8038,-0.8038,-0.8038,-0.8038,-0.8038,-0.8038,-0.8038,-0.8038,-0.8038,-0.8038,-0.8038,-0.8038,-0.8038,-0.8038,-0.8038,-0.8038,-0.8038,-0.8038,-0.8038,-0.8038,-0.8038,-0.8038,-0.8038,-0.8038,-0.8038,-0.8038,-0.8038,-0.8038,-0.8038,-0.8038,-0.8038,-0.8038,-0.8038,-0.8038,-0.8038,-0.8038,-0.8038,-0.8038,-0.8038,-0.7997,-0.7868,-0.7936,-0.7967,-0.7862,0.0,-0.8014,-0.8035,-0.8038,-0.8038,-0.8038,-0.8038,-0.8038,-0.8038,-0.8038,-0.8038,-0.8038,-0.8038,-0.8038,-0.8038,-0.8038,-0.8038,-0.8038,-0.8038,-0.8038,-0.8038,-0.8038,-0.8038,-0.8038,-0.8038,-0.8038,-0.8038,-0.8038,-0.8038,-0.8038,-0.8038,-0.8038,-0.8038,-0.8038,-0.8038,-0.8038,-0.8038,-0.8038,-0.8038,-1.5832,-1.557,-1.466,-1.2568,-1.1851,-1.0879,-0.8685,-0.8201,-0.8123,-0.8048,-0.8038,-0.8038,-0.8038,-0.8038,-0.8038,-0.8038,-0.8038,-0.8038,-0.8038,-0.8038,-0.8038,-0.8038,-0.8038,-0.8038,-0.8038,-0.8038,-0.8038,-0.8038,-0.8038,-0.8038,-0.8038,-0.8038,-0.8038,-0.8038,-0.8038,-0.8038,-0.8038,-0.8038,-0.8038,-0.8038,-0.8038,-0.8038,-0.8038,-0.8038,-0.8038,-0.8038,-0.8038,-0.8038,-0.8038,-0.8038,-0.8038,-0.8038,-0.8038,-0.8038,-0.8038,-0.8038,-0.8038,-0.8038,-0.8038,-0.8038,-0.8038,-0.8038,-0.8038,-0.8038,-0.8038,-0.8038,-0.8038,-0.8038,-0.8038,-0.8038,-0.8038,-0.8038,-0.8018,-0.7946,-0.7923,0.0,0.0,-0.7923,-0.7946,-0.8028,-0.8038,-0.8038,-0.8038,-0.8038,-0.8038,-0.8038,-0.8038,-0.8038,-0.8038,-0.8038,-0.8038,-0.8038,-0.8038,-0.8038,-0.8038,-0.8038,-0.8038,-0.8038,-0.8038,-0.8038,-0.8038,-0.8038,-0.8038,-0.8038,-0.8038,-0.8038,-0.8038,-0.8038,-0.8038,-0.8038,-0.8038,-0.8038,-0.8038,-0.8038,-0.8038,-0.8038,-1.5832,-1.6072,-1.5445,-1.26,-1.2243,-1.1463,-0.8624,-0.8116,-0.8038,-0.8038,-0.8038,-0.8038,-0.8038,-0.8038,-0.8038,-0.8038,-0.8038,-0.8038,-0.8038,-0.8038,-0.8038,-0.8038,-0.8038,-0.8038,-0.8038,-0.8038,-0.8038,-0.8038,-0.8038,-0.8038,-0.8038,-0.8038,-0.8038,-0.8038,-0.8038,-0.8038,-0.8038,-0.8038,-0.8038,-0.8038,-0.8038,-0.8038,-0.8038,-0.8038,-0.8038,-0.8038,-0.8038,-0.8038,-0.8038,-0.8038,-0.8038,-0.8038,-0.8038,-0.8038,-0.8038,-0.8038,-0.8038,-0.8038,-0.8038,-0.8038,-0.8038,-0.8038,-0.8038,-0.8038,-0.8038,-0.8038,-0.8038,-0.8038,-0.8038,-0.8038,-0.8038,-0.8038,-0.8028,-0.7991,0.0,0.0,0.0,-0.7916,-0.7909,-0.8024,-0.8038,-0.8038,-0.8038,-0.8038,-0.8038,-0.8038,-0.8038,-0.8038,-0.8038,-0.8038,-0.8038,-0.8038,-0.8038,-0.8038,-0.8038,-0.8038,-0.8038,-0.8038,-0.8038,-0.8038,-0.8038,-0.8038,-0.8038,-0.8038,-0.8038,-0.8038,-0.8038,-0.8038,-0.8038,-0.8038,-0.8038,-0.8038,-0.8038,-0.8038,-0.8038,-0.8038,-1.5832,-1.6072,-1.5388,-1.2396,-1.2142,-1.1416,-0.8471,-0.8045,-0.8038,-0.8038,-0.8038,-0.8038,-0.8038,-0.8038,-0.8038,-0.8038,-0.8038,-0.8038,-0.8038,-0.8038,-0.8038,-0.8038,-0.8038,-0.8038,-0.8038,-0.8038,-0.8038,-0.8038,-0.8038,-0.8038,-0.8038,-0.8038,-0.8038,-0.8038,-0.8038,-0.8038,-0.8038,-0.8038,-0.8038,-0.8038,-0.8038,-0.8038,-0.8038,-0.8038,-0.8038,-0.8038,-0.8038,-0.8038,-0.8038,-0.8038,-0.8038,-0.8038,-0.8038,-0.8038,-0.8038,-0.8038,-0.8038,-0.8038,-0.8038,-0.8038,-0.8038,-0.8038,-0.8038,-0.8038,-0.8038,-0.8038,-0.8038,-0.8038,-0.8038,-0.8038,-0.8038,-0.8038,-0.7994,-0.7851,0.0,0.0,-0.7845,-0.794,-0.8028,-0.8038,-0.8038,-0.8038,-0.8038,-0.8038,-0.8038,-0.8038,-0.8038,-0.8038,-0.8038,-0.8038,-0.8038,-0.8038,-0.8038,-0.8038,-0.8038,-0.8038,-0.8038,-0.8038,-0.8038,-0.8038,-0.8038,-0.8038,-0.8038,-0.8038,-0.8038,-0.8038,-0.8038,-0.8038,-0.8038,-0.8038,-0.8038,-0.8038,-0.8038,-0.8038,-0.8038,-0.8038,-1.5832,-1.5919,-1.5178,-1.2349,-1.2016,-1.1161,-0.8439,-0.8038,-0.8038,-0.8038,-0.8038,-0.8038,-0.8038,-0.8038,-0.8038,-0.8038,-0.8038,-0.8038,-0.8038,-0.8038,-0.8038,-0.8038,-0.8038,-0.8038,-0.8038,-0.8038,-0.8038,-0.8038,-0.8038,-0.8038,-0.8038,-0.8038,-0.8038,-0.8038,-0.8038,-0.8038,-0.8038,-0.8038,-0.8038,-0.8038,-0.8038,-0.8038,-0.8038,-0.8038,-0.8038,-0.8038,-0.8038,-0.8038,-0.8038,-0.8038,-0.8038,-0.8038,-0.8038,-0.8038,-0.8038,-0.8038,-0.8038,-0.8038,-0.8038,-0.8038,-0.8038,-0.8038,-0.8038,-0.8038,-0.8038,-0.8038,-0.8038,-0.8038,-0.8038,-0.8038,-0.8038,-0.8038,-0.8021,-0.7963,0.0,-0.8018,-0.796,-0.8004,-0.8038,-0.8038,-0.8038,-0.8038,-0.8038,-0.8038,-0.8038,-0.8038,-0.8038,-0.8038,-0.8038,-0.8038,-0.8038,-0.8038,-0.8038,-0.8038,-0.8038,-0.8038,-0.8038,-0.8038,-0.8038,-0.8038,-0.8038,-0.8038,-0.8038,-0.8038,-0.8038,-0.8038,-0.8038,-0.8038,-0.8038,-0.8038,-0.8038,-0.8038,-0.8038,-0.8038,-0.8038,-0.8038,-1.5832,-1.5832,-1.5146,-1.2915,-1.2528,-1.1745,-0.9604,-0.8924,-0.8627,-0.8627,-0.8233,-0.8038,-0.8038,-0.8038,-0.8038,-0.8038,-0.8038,-0.8038,-0.8038,-0.8038,-0.8038,-0.8038,-0.8038,-0.8038,-0.8038,-0.8038,-0.8038,-0.8038,-0.8038,-0.8038,-0.8038,-0.8038,-0.8038,-0.8038,-0.8038,-0.8038,-0.8038,-0.8038,-0.8038,-0.8038,-0.8038,-0.8038,-0.8038,-0.8038,-0.8038,-0.8038,-0.8038,-0.8038,-0.8038,-0.8038,-0.8038,-0.8038,-0.8038,-0.8038,-0.8038,-0.8038,-0.8038,-0.8038,-0.8038,-0.8038,-0.8038,-0.8038,-0.8038,-0.8038,-0.8038,-0.8038,-0.8038,-0.8038,-0.8038,-0.8038,-0.8038,-0.8038,-0.8038,-0.8038,-0.8038,-0.8038,-0.8038,-0.8038,-0.8038,-0.8038,-0.8038,-0.8038,-0.8038,-0.8038,-0.8038,-0.8038,-0.8038,-0.8038,-0.8038,-0.8038,-0.8038,-0.8038,-0.8038,-0.8038,-0.8038,-0.8038,-0.8038,-0.8038,-0.8038,-0.8038,-0.8038,-0.8038,-0.8038,-0.8038,-0.8038,-0.8038,-0.8038,-0.8038,-0.8038,-0.8038,-0.8038,-0.8038,-0.8038,-0.8038,-0.8038,-0.8038,-1.5832,-1.5832,-1.5439,-1.4166,-1.3878,-1.3494,-1.2139,-1.0877,-0.9998,-0.9998,-0.8825,-0.8038,-0.8038,-0.8038,-0.8038,-0.8038,-0.8038,-0.8038,-0.8038,-0.8038,-0.8038,-0.8038,-0.8038,-0.8038,-0.8038,-0.8038,-0.8038,-0.8038,-0.8038,-0.8038,-0.8038,-0.8038,-0.8038,-0.8038,-0.8038,-0.8038,-0.8038,-0.8038,-0.8038,-0.8038,-0.8038,-0.8038,-0.8038,-0.8038,-0.8038,-0.8038,-0.8038,-0.8038,-0.8038,-0.8038,-0.8038,-0.8038,-0.8038,-0.8038,-0.8038,-0.8038,-0.8038,-0.8038,-0.8038,-0.8038,-0.8038,-0.8038,-0.8038,-0.8038,-0.8038,-0.8038,-0.8038,-0.8038,-0.8038,-0.8038,-0.8038,-0.8038,-0.8038,-0.8038,-0.8038,-0.8038,-0.8038,-0.8038,-0.8038,-0.8038,-0.8038,-0.8038,-0.8038,-0.8038,-0.8038,-0.8038,-0.8038,-0.8038,-0.8038,-0.8038,-0.8038,-0.8038,-0.8038,-0.8038,-0.8038,-0.8038,-0.8038,-0.8038,-0.8038,-0.8038,-0.8038,-0.8038,-0.8038,-0.8038,-0.8038,-0.8038,-0.8038,-0.8038,-0.8038,-0.8038,-0.8038,-0.8038,-0.8038,-0.8038,-0.8038,-0.8038,-1.5832,-1.5832,-1.5439,-1.4166,-1.3878,-1.3494,-1.2139,-1.1556,-1.0974,-1.0096,-0.9608,-0.9019,-0.8137,-0.8038,-0.8038,-0.8038,-0.8038,-0.8038,-0.8038,-0.8038,-0.8038,-0.8038,-0.8038,-0.8038,-0.8038,-0.8038,-0.8038,-0.8038,-0.8038,-0.8038,-0.8038,-0.8038,-0.8038,-0.8038,-0.8038,-0.8038,-0.8038,-0.8038,-0.8038,-0.8038,-0.8038,-0.8038,-0.8038,-0.8038,-0.8038,-0.8038,-0.8038,-0.8038,-0.8038,-0.8038,-0.8038,-0.8038,-0.8038,-0.8038,-0.8038,-0.8038,-0.8038,-0.8038,-0.8038,-0.8038,-0.8038,-0.8038,-0.8038,-0.8038,-0.8038,-0.8038,-0.8038,-0.8038,-0.8038,-0.8038,-0.8038,-0.8038,-0.8038,-0.8038,-0.8038,-0.8038,-0.8038,-0.8038,-0.8038,-0.8038,-0.8038,-0.8038,-0.8038,-0.8038,-0.8038,-0.8038,-0.8038,-0.8038,-0.8038,-0.8038,-0.8038,-0.8038,-0.8038,-0.8038,-0.8038,-0.8038,-0.8038,-0.8038,-0.8038,-0.8038,-0.8038,-0.8038,-0.8038,-0.8038,-0.8038,-0.8038,-0.8038,-0.8038,-0.8038,-0.8038,-0.8038,-0.8038,-0.8038,-0.8038,-0.8038,-0.8041,-1.5832,-1.5832,-1.5534,-1.4758,-1.4657,-1.4172,-1.2915,-1.2237,-1.1458,-1.0194,-0.9509,-0.892,-0.8038,-0.8038,-0.8038,-0.8038,-0.8038,-0.8038,-0.8038,-0.8038,-0.8038,-0.8038,-0.8038,-0.8038,-0.8038,-0.8038,-0.8038,-0.8038,-0.8038,-0.8038,-0.8038,-0.8038,-0.8038,-0.8038,-0.8038,-0.8038,-0.8038,-0.8038,-0.8038,-0.8038,-0.8038,-0.8038,-0.8038,-0.8038,-0.8038,-0.8038,-0.8038,-0.8038,-0.8038,-0.8038,-0.8038,-0.8038,-0.8038,-0.8038,-0.8038,-0.8038,-0.8038,-0.8038,-0.8038,-0.8038,-0.8038,-0.8038,-0.8038,-0.8038,-0.8038,-0.8038,-0.8038,-0.8038,-0.8038,-0.8038,-0.8038,-0.8038,-0.8038,-0.8038,-0.8038,-0.8038,-0.8038,-0.8038,-0.8038,-0.8038,-0.8038,-0.8038,-0.8038,-0.8038,-0.8038,-0.8038,-0.8038,-0.8038,-0.8038,-0.8038,-0.8038,-0.8038,-0.8038,-0.8038,-0.8038,-0.8038,-0.8038,-0.8038,-0.8038,-0.8038,-0.8038,-0.8038,-0.8038,-0.8038,-0.8038,-0.8038,-0.8038,-0.8038,-0.8038,-0.8038,-0.8038,-0.8038,-0.8038,-0.8038,-0.8045,-0.7955,-1.5832,-1.5832,-1.5832,-1.5832,-1.573,-1.5242,-1.407,-1.2716,-1.1458,-1.0194,-0.8924,-0.8137,-0.8038,-0.8038,-0.8038,-0.8038,-0.8028,-0.8018,-0.8018,-0.8007,-0.8001,-0.8001,-0.8001,-0.8007,-0.8018,-0.8018,-0.8018,-0.8018,-0.8018,-0.8024,-0.8038,-0.8038,-0.8038,-0.8038,-0.8038,-0.8038,-0.8038,-0.8038,-0.8038,-0.8038,-0.8038,-0.8038,-0.8038,-0.8038,-0.8038,-0.8038,-0.8038,-0.8038,-0.8038,-0.8038,-0.8038,-0.8038,-0.8038,-0.8038,-0.8038,-0.8038,-0.8038,-0.8038,-0.8038,-0.8038,-0.8038,-0.8038,-0.8038,-0.8038,-0.8038,-0.8038,-0.8038,-0.8038,-0.8038,-0.8038,-0.8038,-0.8038,-0.8038,-0.8038,-0.8038,-0.8038,-0.8038,-0.8038,-0.8038,-0.8038,-0.8038,-0.8038,-0.8038,-0.8038,-0.8038,-0.8038,-0.8038,-0.8038,-0.8038,-0.8038,-0.8038,-0.8038,-0.8038,-0.8038,-0.8038,-0.8038,-0.8038,-0.8038,-0.8038,-0.8038,-0.8038,-0.8038,-0.8038,-0.8038,-0.8038,-0.8038,-0.8038,-0.8038,-0.8038,-0.8038,-0.8038,-0.8038,-0.8038,-0.8041,-0.7955,-0.7972,-1.5832,-1.5832,-1.5832,-1.5832,-1.4949,-1.4268,-1.3974,-1.2716,-1.1458,-1.0194,-0.9702,-0.9118,-0.8137,-0.8038,-0.8038,-0.8038,-0.7929,-0.7862,-0.7862,-0.7756,-0.7695,-0.7695,-0.7695,-0.7746,-0.7858,-0.7862,-0.7862,-0.7862,-0.7862,-0.7923,-0.8038,-0.8038,-0.8038,-0.8038,-0.8038,-0.8038,-0.8038,-0.8038,-0.8038,-0.8038,-0.8038,-0.8038,-0.8038,-0.8038,-0.8038,-0.8038,-0.8038,-0.8038,-0.8038,-0.8038,-0.8038,-0.8038,-0.8038,-0.8038,-0.8038,-0.8038,-0.8038,-0.8038,-0.8038,-0.8038,-0.8038,-0.8038,-0.8038,-0.8038,-0.8038,-0.8038,-0.8038,-0.8038,-0.8038,-0.8038,-0.8038,-0.8038,-0.8038,-0.8038,-0.8038,-0.8038,-0.8038,-0.8038,-0.8038,-0.8038,-0.8038,-0.8038,-0.8038,-0.8038,-0.8038,-0.8038,-0.8038,-0.8038,-0.8038,-0.8038,-0.8038,-0.8038,-0.8038,-0.8038,-0.8038,-0.8038,-0.8038,-0.8038,-0.8038,-0.8038,-0.8038,-0.8038,-0.8038,-0.8038,-0.8038,-0.8038,-0.8038,-0.8038,-0.8038,-0.8038,-0.8038,-0.8038,-0.8041,-0.7959,-0.7969,-0.7975,-1.5832,-1.5832,-1.5832,-1.5832,-1.4752,-1.368,-1.3006,-1.1843,-1.0485,-0.9213,-0.9019,-0.8825,-0.8038,-0.7974,-0.7902,-0.7834,-0.7756,-0.7709,-0.7709,-0.7641,-0.76,-0.76,-0.7665,-0.7702,-0.7709,-0.7777,-0.7845,-0.7919,-0.7919,-0.796,-0.8038,-0.8038,-0.8001,-0.7933,-0.8007,-0.7997,-0.7936,-0.8007,-0.8038,-0.8038,-0.8038,-0.8038,-0.8038,-0.8038,-0.8038,-0.8038,-0.8038,-0.8038,-0.8038,-0.8038,-0.8038,-0.8038,-0.8038,-0.8038,-0.8038,-0.8038,-0.8038,-0.8038,-0.8038,-0.8038,-0.8038,-0.8038,-0.8038,-0.8038,-0.8038,-0.8038,-0.8038,-0.8038,-0.8038,-0.8038,-0.8038,-0.8038,-0.8038,-0.8038,-0.8038,-0.8038,-0.8038,-0.8038,-0.8038,-0.8038,-0.8038,-0.8038,-0.8038,-0.8038,-0.8038,-0.8038,-0.8038,-0.8038,-0.8038,-0.8038,-0.8038,-0.8038,-0.8038,-0.8038,-0.8038,-0.8038,-0.8038,-0.8038,-0.8038,-0.8038,-0.8038,-0.8038,-0.8038,-0.8038,-0.8038,-0.8038,-0.8038,-0.8038,-0.8038,-0.8038,-0.8038,-0.8038,-0.8041,-0.7952,-0.745,-0.6745,-1.5832,-1.5635,-1.5425,-1.5475,-1.4238,-1.2893,-1.1701,-1.0436,-0.928,-0.8134,-0.7994,-0.7974,-0.7997,-0.7865,-0.7729,-0.7611,-0.7577,-0.756,-0.756,-0.756,-0.756,-0.756,-0.7699,-0.7719,-0.76,-0.7716,-0.7848,-0.8001,-0.7977,-0.7977,-0.8001,-0.8001,-0.7933,-0.7818,-0.797,-0.797,-0.7858,-0.7984,-0.8038,-0.8038,-0.8038,-0.8038,-0.8038,-0.8038,-0.8038,-0.8038,-0.8038,-0.8038,-0.8038,-0.8038,-0.8038,-0.8038,-0.8038,-0.8038,-0.8038,-0.8038,-0.8038,-0.8038,-0.8038,-0.8038,-0.8038,-0.8038,-0.8038,-0.8038,-0.8038,-0.8038,-0.8038,-0.8038,-0.8038,-0.8038,-0.8038,-0.8038,-0.8038,-0.8038,-0.8038,-0.8038,-0.8038,-0.8038,-0.8038,-0.8038,-0.8038,-0.8038,-0.8038,-0.8038,-0.8038,-0.8038,-0.8038,-0.8038,-0.8038,-0.8038,-0.8038,-0.8038,-0.8038,-0.8038,-0.8038,-0.8038,-0.8038,-0.8038,-0.8038,-0.8038,-0.8038,-0.8038,-0.8038,-0.8038,-0.8038,-0.8038,-0.8038,-0.8038,-0.8038,-0.8038,-0.8038,-0.8038,-0.8038,-0.8045,-0.7039,-0.5732,-1.5832,-1.4949,-1.41,-1.3978,-1.2107,-1.0427,-1.0162,-0.8987,-0.8084,-0.8021,-0.7818,-0.7706,-0.7828,-0.7712,-0.7621,-0.76,-0.7478,-0.7404,-0.7404,-0.7404,-0.7404,-0.7404,-0.7546,-0.7617,-0.76,-0.7617,-0.7699,-0.7841,-0.7719,-0.7723,-0.7841,-0.7841,-0.7831,-0.7818,-0.797,-0.8028,-0.8011,-0.8031,-0.8038,-0.8038,-0.8038,-0.8038,-0.8038,-0.8038,-0.8038,-0.8038,-0.8038,-0.8038,-0.8038,-0.8038,-0.8038,-0.8038,-0.8038,-0.8038,-0.8038,-0.8038,-0.8038,-0.8038,-0.8038,-0.8038,-0.8038,-0.8038,-0.8038,-0.8038,-0.8038,-0.8038,-0.8038,-0.8038,-0.8038,-0.8038,-0.8038,-0.8038,-0.8038,-0.8038,-0.8038,-0.8038,-0.8038,-0.8038,-0.8038,-0.8038,-0.8038,-0.8038,-0.8038,-0.8038,-0.8038,-0.8038,-0.8038,-0.8038,-0.8038,-0.8038,-0.8038,-0.8038,-0.8038,-0.8038,-0.8038,-0.8038,-0.8038,-0.8038,-0.8038,-0.8038,-0.8038,-0.8038,-0.8038,-0.8038,-0.8038,-0.8038,-0.8038,-0.8038,-0.8038,-0.8038,-0.8038,-0.8038,-0.8041,-0.7962,-0.7885,-0.7604,-1.5618,-1.4628,-1.3732,-1.352,-1.1392,-0.978,-0.9806,-0.8592,-0.7719,-0.7784,-0.7682,-0.7624,-0.7685,-0.756,-0.7438,-0.735,-0.7282,-0.7241,-0.7241,-0.7241,-0.7241,-0.7241,-0.739,-0.7472,-0.7472,-0.7556,-0.7631,-0.7692,-0.7631,-0.7672,-0.7811,-0.7811,-0.7811,-0.7818,-0.797,-0.7991,-0.7919,-0.8004,-0.8038,-0.8038,-0.8038,-0.8038,-0.8038,-0.8038,-0.8038,-0.8038,-0.8038,-0.8038,-0.8038,-0.8038,-0.8038,-0.8038,-0.8038,-0.8038,-0.8038,-0.8038,-0.8038,-0.8038,-0.8038,-0.8038,-0.8038,-0.8038,-0.8038,-0.8038,-0.8038,-0.8038,-0.8038,-0.8038,-0.8038,-0.8038,-0.8038,-0.8038,-0.8038,-0.8038,-0.8038,-0.8038,-0.8038,-0.8038,-0.8038,-0.8038,-0.8038,-0.8038,-0.8038,-0.8038,-0.8038,-0.8038,-0.8038,-0.8038,-0.8038,-0.8038,-0.8038,-0.8038,-0.8038,-0.8038,-0.8038,-0.8038,-0.8038,-0.8038,-0.8038,-0.8038,-0.8038,-0.8038,-0.8038,-0.8038,-0.8038,-0.8038,-0.8038,-0.8038,-0.8038,-0.8038,-0.8038,-0.8038,-0.8041,-0.7965,-0.7982,-0.7792]},{"header":{"parameterUnit":"m.s-1","parameterCategory":1,"la1":30.6,"la2":28.766,"lo1":-90.7593,"lo2":-88.6598,"dy":0.0162,"dx":0.0183,"nx":116,"ny":114,"refTime":"2023-07-03T18:00:00:Z","depth":0,"parameterNumber":3,"parameterNumberName":"V-component_of_WINDS"},"data":[0.0,0.0,0.0,0.0,0.0,0.0,0.0,0.0,0.0,0.0,0.0,0.0,0.0,0.0,0.0,0.0,0.0,0.0,0.0,0.0,0.0,0.0,0.0,0.0,0.0,0.0,0.0,0.0,0.0,0.0,0.0,0.0,0.0,0.0,0.0,0.0,0.0,0.0,0.0,0.0,0.0,0.0,0.0,0.0,0.0,0.0,0.0,0.0,0.0,0.0,0.0,0.0,0.0,0.0,0.0,0.0,0.0,0.0,0.0,0.0,0.0,0.0,0.0,0.0,0.0,0.0,0.0,0.0,0.0,0.0,0.0,0.0,0.0,0.0,0.0,0.0,0.0,0.0,0.0,0.0,0.0,0.0,0.0,0.0,0.0,0.0,0.0,0.0,0.0,0.0,0.0,0.0,0.0,0.0,0.0,0.0,0.0,0.0,0.0,0.0,0.0,0.0,0.0,0.0,0.0,0.0,0.0,0.0,0.0,0.0,0.0,0.0,0.0,0.0,0.0,0.0,0.0,0.0,0.0,0.0,0.0,0.0,0.0,0.0,0.0,0.0,0.0,0.0,0.0,0.0,0.0,0.0,0.0,0.0,0.0,0.0,0.0,0.0,0.0,0.0,0.0,0.0,0.0,0.0,0.0,0.0,0.0,0.0,0.0,0.0,0.0,0.0,0.0,0.0,0.0,0.0,0.0,0.0,0.0,0.0,0.0,0.0,0.0,0.0,0.0,0.0,0.0,0.0,0.0,0.0,0.0,0.0,0.0,0.0,0.0,0.0,0.0,0.0,0.0,0.0,0.0,0.0,0.0,0.0,0.0,0.0,0.0,0.0,0.0,0.0,0.0,0.0,0.0,0.0,0.0,0.0,0.0,0.0,0.0,0.0,0.0,0.0,0.0,0.0,0.0,0.0,0.0,0.0,0.0,0.0,0.0,0.0,0.0,0.0,0.0,0.0,0.0,0.0,0.0,0.0,0.0,0.0,0.0,0.0,0.0,0.0,0.0,0.0,0.0,0.0,0.0,0.0,0.0,0.0,0.0,0.0,0.0,0.0,0.0,0.0,0.0,0.0,0.0,0.0,0.0,0.0,0.0,0.0,0.0,0.0,0.0,0.0,0.0,0.0,0.0,0.0,0.0,0.0,0.0,0.0,0.0,0.0,0.0,0.0,0.0,0.0,0.0,0.0,0.0,0.0,0.0,0.0,0.0,0.0,0.0,0.0,0.0,0.0,0.0,0.0,0.0,0.0,0.0,0.0,0.0,0.0,0.0,0.0,0.0,0.0,0.0,0.0,0.0,0.0,0.0,0.0,0.0,0.0,0.0,0.0,0.0,0.0,0.0,0.0,0.0,0.0,0.0,0.0,0.0,0.0,0.0,0.0,0.0,0.0,0.0,0.0,0.0,0.0,0.0,0.0,0.0,0.0,0.0,0.0,0.0,0.0,0.0,0.0,0.0,0.0,0.0,0.0,0.0,0.0,0.0,0.0,0.0,0.0,0.0,0.0,0.0,0.0,0.0,0.0,0.0,0.0,0.0,0.0,0.0,0.0,0.0,0.0,0.0,0.0,0.0,0.0,0.0,0.0,0.0,0.0,0.0,0.0,0.0,0.0,0.0,0.0,0.0,0.0,0.0,0.0,0.0,0.0,0.0,0.0,0.0,0.0,0.0,0.0,0.0,0.0,0.0,0.0,0.0,0.0,0.0,0.0,0.0,0.0,0.0,0.0,0.0,0.0,0.0,0.0,0.0,0.0,0.0,0.0,0.0,0.0,0.0,0.0,0.0,0.0,0.0,0.0,0.0,0.0,0.0,0.0,0.0,0.0,0.0,0.0,0.0,0.0,0.0,0.0,0.0,0.0,0.0,0.0,0.0,0.0,0.0,0.0,0.0,0.0,0.0,0.0,0.0,0.0,0.0,0.0,0.0,0.0,0.0,0.0,0.0,0.0,0.0,0.0,0.0,0.0,0.0,0.0,0.0,0.0,0.0,0.0,0.0,0.0,0.0,0.0,0.0,0.0,0.0,0.0,0.0,0.0,0.0,0.0,0.0,0.0,0.0,0.0,0.0,0.0,0.0,0.0,0.0,0.0,0.0,0.0,0.0,0.0,0.0,0.0,0.0,0.0,0.0,0.0,0.0,0.0,0.0,0.0,0.0,0.0,0.0,0.0,0.0,0.0,0.0,0.0,0.0,0.0,0.0,0.0,0.0,0.0,0.0,0.0,0.0,0.0,0.0,0.0,0.0,0.0,0.0,0.0,0.0,0.0,0.0,0.0,0.0,0.0,0.0,0.0,0.0,0.0,0.0,0.0,0.0,0.0,0.0,0.0,0.0,0.0,0.0,0.0,0.0,0.0,0.0,0.0,0.0,0.0,0.0,0.0,0.0,0.0,0.0,0.0,0.0,0.0,0.0,0.0,0.0,0.0,0.0,0.0,0.0,0.0,0.0,0.0,0.0,0.0,0.0,0.0,0.0,0.0,0.0,0.0,0.0,0.0,0.0,0.0,0.0,0.0,0.0,0.0,0.0,0.0,0.0,0.0,0.0,0.0,0.0,0.0,0.0,0.0,0.0,0.0,0.0,0.0,0.0,0.0,0.0,0.0,0.0,0.0,0.0,0.0,0.0,0.0,0.0,0.0,0.0,0.0,0.0,0.0,0.0,0.0,0.0,0.0,0.0,0.0,0.0,0.0,0.0,0.0,0.0,0.0,0.0,0.0,0.0,0.0,0.0,0.0,0.0,0.0,0.0,0.0,0.0,0.0,0.0,0.0,0.0,0.0,0.0,0.0,0.0,0.0,0.0,0.0,0.0,0.0,0.0,0.0,0.0,0.0,0.0,0.0,0.0,0.0,0.0,0.0,0.0,0.0,0.0,0.0,0.0,0.0,0.0,0.0,0.0,0.0,0.0,0.0,0.0,0.0,0.0,0.0,0.0,0.0,0.0,0.0,0.0,0.0,0.0,0.0,0.0,0.0,0.0,0.0,0.0,0.0,0.0,0.0,0.0,0.0,0.0,0.0,0.0,0.0,0.0,0.0,0.0,0.0,0.0,0.0,0.0,0.0,0.0,0.0,0.0,0.0,0.0,0.0,0.0,0.0,0.0,0.0,0.0,0.0,0.0,0.0,0.0,0.0,0.0,0.0,0.0,0.0,0.0,0.0,0.0,0.0,0.0,0.0,0.0,0.0,0.0,0.0,0.0,0.0,0.0,0.0,0.0,0.0,0.0,0.0,0.0,0.0,0.0,0.0,0.0,0.0,0.0,0.0,0.0,0.0,0.0,0.0,0.0,0.0,0.0,0.0,0.0,0.0,0.0,0.0,0.0,0.0,0.0,0.0,0.0,0.0,0.0,0.0,0.0,0.0,0.0,0.0,0.0,0.0,0.0,0.0,0.0,0.0,0.0,0.0,0.0,0.0,0.0,0.0,0.0,0.0,0.0,0.0,0.0,0.0,0.0,0.0,0.0,0.0,0.0,0.0,0.0,0.0,0.0,0.0,0.0,0.0,0.0,0.0,0.0,0.0,0.0,0.0,0.0,0.0,0.0,0.0,0.0,0.0,0.0,0.0,0.0,0.0,0.0,0.0,0.0,0.0,0.0,0.0,0.0,0.0,0.0,0.0,0.0,0.0,0.0,0.0,0.0,0.0,0.0,0.0,0.0,0.0,0.0,0.0,0.0,0.0,0.0,0.0,0.0,0.0,0.0,0.0,0.0,0.0,0.0,0.0,0.0,0.0,0.0,0.0,0.0,0.0,0.0,0.0,0.0,0.0,0.0,0.0,0.0,0.0,0.0,0.0,0.0,0.0,0.0,0.0,0.0,0.0,0.0,0.0,0.0,0.0,0.0,0.0,0.0,0.0,0.0,0.0,0.0,0.0,0.0,0.0,0.0,0.0,0.0,0.0,0.0,0.0,0.0,0.0,0.0,0.0,0.0,0.0,0.0,0.0,0.0,0.0,0.0,0.0,0.0,0.0,0.0,0.0,0.0,0.0,0.0,0.0,0.0,0.0,0.0,0.0,0.0,0.0,0.0,0.0,0.0,0.0,0.0,0.0,0.0,0.0,0.0,0.0,0.0,0.0,0.0,0.0,0.0,0.0,0.0,0.0,0.0,0.0,0.0,0.0,0.0,0.0,0.0,0.0,0.0,0.0,0.0,0.0,0.0,0.0,0.0,0.0,0.0,0.0,0.0,0.0,0.0,0.0,0.0,0.0,0.0,0.0,0.0,0.0,0.0,0.0,0.0,0.0,0.0,0.0,0.0,0.0,0.0,0.0,0.0,0.0,0.0,0.0,0.0,0.0,0.0,0.0,0.0,0.0,0.0,0.0,0.0,0.0,0.0,0.0,0.0,0.0,0.0,0.0,0.0,0.0,0.0,0.0,0.0,0.0,0.0,0.0,0.0,0.0,0.0,0.0,0.0,0.0,0.0,0.0,0.0,0.0,0.0,0.0,0.0,0.0,0.0,0.0,0.0,0.0,0.0,0.0,0.0,0.0,0.0,0.0,0.0,0.0,0.0,0.0,0.0,0.0,0.0,0.0,0.0,0.0,0.0,0.0,0.0,0.0,0.0,0.0,0.0,0.0,0.0,0.0,0.0,0.0,0.0,0.0,0.0,0.0,0.0,0.0,0.0,0.0,0.0,0.0,0.0,0.0,0.0,0.0,0.0,0.0,0.0,0.0,0.0,0.0,0.0,0.0,0.0,0.0,0.0,0.0,0.0,0.0,0.0,0.0,0.0,0.0,0.0,0.0,0.0,0.0,0.0,0.0,0.0,0.0,0.0,0.0,0.0,0.0,0.0,0.0,0.0,0.0,0.0,0.0,0.0,0.0,0.0,0.0,0.0,0.0,0.0,0.0,0.0,0.0,0.0,0.0,0.0,0.0,0.0,0.0,0.0,0.0,0.0,0.0,0.0,0.0,0.0,0.0,0.0,0.0,0.0,0.0,0.0,0.0,0.0,0.0,0.0,0.0,0.0,0.0,0.0,0.0,0.0,0.0,0.0,0.0,0.0,0.0,0.0,0.0,0.0,0.0,0.0,0.0,0.0,0.0,0.0,0.0,0.0,0.0,0.0,0.0,0.0,0.0,0.0,0.0,0.0,0.0,0.0,0.0,0.0,0.0,0.0,0.0,0.0,0.0,0.0,0.0,0.0,0.0,0.0,0.0,0.0,0.0,0.0,0.0,0.0,0.0,0.0,0.0,0.0,0.0,0.0,0.0,0.0,0.0,0.0,0.0,0.0,0.0,0.0,0.0,0.0,0.0,0.0,0.0,0.0,0.0,0.0,0.0,0.0,0.0,0.0,0.0,0.0,0.0,0.0,0.0,0.0,0.0,0.0,0.0,0.0,0.0,0.0,0.0,0.0,0.0,0.0,0.0,0.0,0.0,0.0,0.0,0.0,0.0,0.0,0.0,0.0,0.0,0.0,0.0,0.0,0.0,0.0,0.0,0.0,0.0,0.0,0.0,0.0,0.0,0.0,0.0,0.0,0.0,0.0,0.0,0.0,0.0,0.0,0.0,0.0,0.0,0.0,0.0,0.0,0.0,0.0,0.0,0.0,0.0,0.0,0.0,0.0,0.0,0.0,0.0,0.0,0.0,0.0,0.0,0.0,0.0,0.0,0.0,0.0,0.0,0.0,0.0,0.0,0.0,0.0,0.0,0.0,0.0,0.0,0.0,0.0,0.0,0.0,0.0,0.0,0.0,0.0,0.0,0.0,0.0,0.0,0.0,0.0,0.0,0.0,0.0,0.0,0.0,0.0,0.0,0.0,0.0,0.0,0.0,0.0,0.0,0.0,0.0,0.0,0.0,0.0,0.0,0.0,0.0,0.0,0.0,0.0,0.0,0.0,0.0,0.0,0.0,0.0,0.0,0.0,0.0,0.0,0.0,0.0,0.0,0.0,0.0,0.0,0.0,0.0,0.0,0.0,0.0,0.0,0.0,0.0,0.0,0.0,0.0,0.0,0.0,0.0,0.0,0.0,0.0,0.0,0.0,0.0,0.0,0.0,0.0,0.0,0.0,0.0,0.0,0.0,0.0,0.0,0.0,0.0,0.0,0.0,0.0,0.0,0.0,0.0,0.0,0.0,0.0,0.0,0.0,-4.1921,0.0,0.0,0.0,0.0,0.0,0.0,0.0,0.0,0.0,0.0,0.0,0.0,0.0,0.0,0.0,0.0,0.0,0.0,0.0,0.0,0.0,0.0,0.0,0.0,0.0,0.0,0.0,0.0,0.0,0.0,0.0,0.0,0.0,0.0,0.0,0.0,0.0,0.0,0.0,-4.0878,-4.1487,-4.2666,-4.2137,-4.1685,-4.126,0.0,0.0,0.0,0.0,0.0,0.0,0.0,0.0,0.0,0.0,0.0,0.0,0.0,0.0,0.0,0.0,0.0,0.0,0.0,0.0,0.0,0.0,0.0,0.0,0.0,0.0,0.0,0.0,0.0,0.0,0.0,0.0,0.0,0.0,0.0,0.0,0.0,0.0,0.0,0.0,0.0,0.0,0.0,0.0,0.0,0.0,0.0,0.0,0.0,0.0,0.0,0.0,0.0,0.0,0.0,0.0,0.0,0.0,0.0,0.0,0.0,0.0,0.0,0.0,0.0,0.0,0.0,0.0,0.0,0.0,0.0,-4.1968,0.0,0.0,0.0,0.0,0.0,0.0,0.0,0.0,0.0,0.0,0.0,0.0,0.0,0.0,0.0,0.0,0.0,0.0,0.0,0.0,0.0,0.0,0.0,0.0,0.0,0.0,0.0,0.0,0.0,0.0,0.0,0.0,0.0,0.0,0.0,0.0,0.0,0.0,-4.1338,-4.2251,-4.3694,-4.3636,-4.3316,-4.2733,-4.1586,0.0,0.0,0.0,0.0,0.0,0.0,0.0,0.0,0.0,0.0,0.0,0.0,0.0,0.0,0.0,0.0,0.0,0.0,0.0,0.0,0.0,0.0,0.0,0.0,0.0,0.0,0.0,0.0,0.0,0.0,0.0,0.0,0.0,0.0,0.0,0.0,0.0,0.0,0.0,0.0,0.0,0.0,0.0,0.0,0.0,0.0,0.0,0.0,0.0,0.0,0.0,0.0,0.0,0.0,0.0,0.0,0.0,0.0,0.0,0.0,0.0,0.0,0.0,0.0,0.0,-4.9785,-4.979,-5.0181,-5.0622,-4.6296,-4.4277,-4.3886,0.0,0.0,0.0,0.0,0.0,0.0,0.0,0.0,0.0,0.0,0.0,0.0,0.0,0.0,0.0,0.0,0.0,0.0,0.0,0.0,0.0,0.0,0.0,0.0,0.0,0.0,0.0,0.0,0.0,0.0,0.0,0.0,0.0,0.0,-3.8569,-3.9286,-4.0915,-4.2937,-4.4395,-4.5293,-4.5293,-4.5657,-4.6224,-4.3965,-4.2537,-4.1835,0.0,0.0,0.0,0.0,0.0,0.0,0.0,0.0,0.0,0.0,0.0,0.0,0.0,0.0,0.0,0.0,0.0,0.0,0.0,0.0,0.0,0.0,0.0,0.0,0.0,0.0,0.0,0.0,0.0,0.0,0.0,0.0,0.0,0.0,0.0,0.0,0.0,0.0,0.0,0.0,0.0,-4.2931,-4.2931,0.0,0.0,0.0,0.0,0.0,0.0,0.0,0.0,0.0,0.0,0.0,0.0,0.0,0.0,-4.7993,-4.9633,-5.0537,-5.071,-5.2258,-5.3088,-5.332,-5.3335,-5.3388,-5.3468,-5.2773,0.0,-4.582,-4.5345,0.0,0.0,0.0,0.0,0.0,0.0,0.0,0.0,0.0,0.0,0.0,0.0,0.0,0.0,0.0,0.0,0.0,0.0,0.0,0.0,0.0,0.0,0.0,0.0,0.0,0.0,0.0,0.0,0.0,0.0,0.0,0.0,0.0,-3.8233,-3.9914,-4.2927,-4.4402,-4.5759,-4.7009,-4.7009,-4.7489,-4.8295,-4.7212,-4.5484,-4.3369,-4.2963,0.0,0.0,0.0,0.0,0.0,0.0,0.0,0.0,0.0,0.0,0.0,0.0,0.0,0.0,0.0,0.0,0.0,0.0,0.0,0.0,0.0,0.0,0.0,0.0,0.0,0.0,0.0,0.0,0.0,0.0,0.0,0.0,0.0,0.0,0.0,0.0,0.0,0.0,0.0,-4.2156,-4.2393,-4.247,-4.2229,-4.1889,0.0,0.0,0.0,0.0,0.0,0.0,0.0,0.0,0.0,-4.8732,-4.9431,-5.031,-5.1496,-5.2779,-5.3708,-5.4227,-5.5489,-5.6636,-5.7598,-5.7598,-5.7598,-5.7597,-5.7517,-5.5372,-5.1697,-4.8651,-4.5723,-4.2945,0.0,0.0,0.0,0.0,0.0,-4.3284,0.0,0.0,0.0,0.0,0.0,0.0,0.0,0.0,0.0,0.0,0.0,0.0,0.0,0.0,0.0,-4.3401,0.0,0.0,0.0,0.0,0.0,0.0,0.0,0.0,-3.8262,-3.9449,-4.1537,-4.4574,-4.5802,-4.7261,-4.8874,-4.8874,-4.9432,-5.0452,-5.0202,-4.8352,-4.5379,-4.4583,-4.3659,-4.2673,0.0,0.0,0.0,0.0,0.0,0.0,0.0,0.0,0.0,0.0,0.0,0.0,0.0,0.0,0.0,0.0,0.0,0.0,0.0,0.0,0.0,0.0,0.0,0.0,0.0,0.0,0.0,0.0,0.0,0.0,0.0,0.0,0.0,0.0,0.0,0.0,0.0,-4.2268,-4.247,-4.2357,-4.2575,-4.2389,0.0,0.0,0.0,0.0,0.0,0.0,-4.7197,-4.8202,-4.9852,-5.2326,-5.3148,-5.4048,-5.5015,-5.5974,-5.6777,-5.7431,-5.8621,-5.9863,-6.1055,-6.1026,-6.101,-6.0984,-6.0638,-5.9276,-5.6886,-5.2078,-4.9141,-4.7394,-4.4528,-4.3297,0.0,-4.4066,-4.4662,-4.5355,0.0,0.0,0.0,0.0,0.0,0.0,0.0,0.0,0.0,0.0,0.0,0.0,0.0,0.0,-4.3468,-4.3568,-4.284,-4.2354,0.0,0.0,0.0,0.0,0.0,0.0,0.0,-4.3283,-4.4583,-4.478,-4.7201,-4.9258,-5.0952,-5.0952,-5.1818,-5.334,-5.2395,-5.0471,-4.7874,-4.7135,-4.5863,-4.4248,-4.2731,0.0,0.0,0.0,0.0,0.0,0.0,0.0,0.0,0.0,0.0,0.0,0.0,0.0,0.0,0.0,0.0,0.0,0.0,0.0,0.0,0.0,0.0,0.0,0.0,0.0,0.0,0.0,0.0,0.0,0.0,0.0,0.0,0.0,0.0,0.0,0.0,0.0,0.0,-4.3419,-4.396,0.0,0.0,0.0,0.0,-4.583,-4.7463,-4.9191,-5.0943,-5.1857,-5.3449,-5.5862,-5.6117,-5.7004,-5.8603,-5.9623,-6.0155,-6.0213,-6.1933,-6.2793,-6.2851,-6.2754,-6.267,-6.2615,-6.1652,-6.0638,-5.9361,-5.5842,-5.2434,-4.9356,-4.8221,-4.7317,-4.674,-4.7548,-4.8894,-5.0452,0.0,0.0,0.0,0.0,0.0,0.0,0.0,0.0,0.0,0.0,0.0,0.0,0.0,-4.4732,-4.5169,-4.5202,-4.5387,-4.4835,-4.3263,0.0,0.0,0.0,0.0,0.0,0.0,0.0,-4.5871,-4.8022,-4.9465,-5.1033,-5.2719,-5.2719,-5.334,-5.4427,-5.4064,-5.3378,-5.2336,-5.026,-4.8102,-4.6056,-4.5468,-4.3175,0.0,0.0,0.0,0.0,0.0,0.0,0.0,0.0,0.0,0.0,0.0,0.0,0.0,0.0,0.0,0.0,0.0,0.0,0.0,0.0,0.0,0.0,0.0,0.0,0.0,0.0,0.0,0.0,0.0,0.0,0.0,0.0,0.0,0.0,0.0,0.0,0.0,-4.5031,-4.6622,0.0,0.0,-4.8015,-4.8977,-4.9412,-5.0981,-5.2652,-5.4354,-5.5888,-5.762,-5.9562,-6.0828,-6.1504,-6.1541,-6.1882,-6.207,-6.207,-6.2627,-6.2859,-6.2866,-6.27,-6.2335,-6.1809,-6.133,-6.0902,-6.0439,-5.855,-5.6107,-5.3395,-5.1952,-5.0856,-5.0164,-5.0452,-5.0952,-5.1587,0.0,0.0,0.0,0.0,0.0,0.0,0.0,0.0,0.0,0.0,0.0,-4.3456,-4.5179,-4.5804,-4.6211,-4.6502,-4.676,-4.6086,-4.42,0.0,0.0,0.0,-4.0723,0.0,0.0,-4.5742,-4.7832,-5.0332,-5.1504,-5.2802,-5.4177,-5.4177,-5.4629,-5.5463,-5.5424,-5.5564,-5.5724,-5.3779,-5.1365,-4.8756,-4.7869,-4.5557,-4.2571,0.0,0.0,0.0,0.0,0.0,0.0,0.0,0.0,0.0,0.0,0.0,0.0,0.0,0.0,0.0,0.0,0.0,0.0,0.0,0.0,0.0,0.0,0.0,0.0,0.0,0.0,0.0,0.0,0.0,0.0,0.0,0.0,0.0,0.0,0.0,-4.6952,-4.6801,-4.8998,-5.0414,-5.0047,-5.1443,-5.2556,-5.2993,-5.4842,-5.6552,-5.798,-5.9786,-6.1304,-6.2424,-6.3652,-6.3887,-6.3008,-6.3008,-6.282,-6.2508,-6.2704,-6.2776,-6.2733,-6.2509,-6.2142,-6.1612,-6.1151,-6.0916,-6.0877,-6.0204,-5.8761,-5.6819,-5.5145,-5.4126,-5.3587,-5.3299,-5.3183,-5.3241,0.0,0.0,0.0,0.0,0.0,0.0,0.0,0.0,0.0,0.0,-4.3125,-4.4258,-4.5957,-4.6153,-4.6482,-4.7345,-4.6762,-4.5952,-4.5016,-4.4148,0.0,0.0,0.0,0.0,-4.5098,-4.8476,-5.0644,-5.1484,-5.3203,-5.4492,-5.5332,-5.5332,-5.5798,-5.6612,-5.6495,-5.6925,-5.7698,-5.756,-5.5608,-5.2375,-4.9775,-4.8694,-4.8227,0.0,0.0,0.0,0.0,0.0,0.0,0.0,0.0,0.0,0.0,0.0,0.0,0.0,0.0,0.0,0.0,0.0,0.0,0.0,0.0,0.0,0.0,0.0,0.0,0.0,0.0,0.0,0.0,0.0,0.0,0.0,0.0,0.0,-4.4939,-4.6279,-4.7798,-4.8774,-5.1086,-5.2646,-5.2773,-5.4173,-5.5478,-5.6488,-5.8932,-6.0786,-6.1738,-6.3418,-6.4336,-6.4336,-6.4375,-6.3965,-6.3084,-6.3047,-6.2555,-6.1578,-6.241,-6.2709,-6.2584,-6.2382,-6.2271,-6.2194,-6.1228,-6.08,-6.08,-6.08,-6.03,-5.9377,-5.7703,-5.7011,-5.6876,-5.6011,-5.5703,-5.5568,0.0,0.0,0.0,0.0,0.0,0.0,0.0,0.0,0.0,0.0,-4.3535,-4.457,-4.6933,-4.7188,-4.7274,-4.7528,-4.7356,-4.6347,-4.4194,0.0,0.0,0.0,0.0,0.0,-4.7773,-4.9961,-5.1797,-5.3281,-5.4394,-5.539,-5.623,-5.623,-5.6365,-5.6627,-5.7213,-5.7629,-5.7921,-5.9085,-5.8717,-5.7094,-5.4278,-5.1368,-4.8424,0.0,0.0,0.0,0.0,0.0,0.0,0.0,0.0,0.0,0.0,0.0,0.0,0.0,0.0,0.0,0.0,0.0,0.0,0.0,0.0,0.0,0.0,0.0,0.0,0.0,0.0,0.0,0.0,0.0,0.0,0.0,0.0,-4.7216,-4.67,-5.018,-5.2884,-5.3159,-5.5437,-5.7013,-5.7154,-5.8124,-5.9158,-6.0163,-6.1495,-6.265,-6.3535,-6.4648,-6.5234,-6.5234,-6.5859,-6.5705,-6.4675,-6.4197,-6.3686,-6.3157,-6.2759,-6.2502,-6.2382,-6.2228,-6.1824,-6.1208,-6.0916,-6.08,-6.08,-6.08,-6.0666,-6.0281,-5.8607,-5.755,-5.6876,-5.6011,-5.5703,-5.5568,0.0,0.0,0.0,0.0,0.0,0.0,0.0,0.0,0.0,0.0,-4.3708,-4.4707,-4.7305,-4.7266,-4.7207,-4.7578,-4.6601,-4.5176,-4.3281,0.0,0.0,0.0,0.0,-4.6933,-4.9883,-5.1621,-5.3164,-5.4531,-5.543,-5.6289,-5.7148,-5.7148,-5.7344,-5.7715,-5.8223,-5.8633,-5.9004,-5.9983,-6.034,-6.0067,-5.8038,-5.533,-5.223,-4.9366,-4.7407,-4.5976,-4.4433,-4.3183,-4.2305,-4.2676,0.0,0.0,0.0,0.0,0.0,0.0,0.0,0.0,0.0,0.0,0.0,0.0,0.0,0.0,0.0,0.0,0.0,0.0,0.0,0.0,0.0,0.0,0.0,0.0,-4.8014,-4.9884,-5.0596,-5.3169,-5.5374,-5.6498,-5.8266,-5.9596,-6.002,-6.0864,-6.1616,-6.2206,-6.3398,-6.4316,-6.4824,-6.5664,-6.6133,-6.6133,-6.664,-6.6429,-6.5436,-6.4613,-6.3906,-6.3286,-6.2317,-6.1786,-6.167,-6.1593,-6.1281,0.0,-6.08,-6.08,-6.08,-6.08,-6.0569,0.0,0.0,0.0,0.0,0.0,-5.5703,-5.5626,0.0,0.0,0.0,0.0,0.0,0.0,0.0,0.0,0.0,0.0,0.0,-4.4707,-4.7305,-4.6816,-4.6601,-4.7398,-4.5151,-4.3279,0.0,0.0,0.0,-4.5007,-4.6262,-4.8398,-5.1621,-5.3301,-5.457,-5.5449,-5.6328,-5.7148,-5.789,-5.8008,-5.8457,-5.9199,-5.9297,-5.9726,-6.041,-6.0508,-6.0996,-6.1621,-6.0859,-5.9531,-5.7595,-5.3355,-5.1725,-5.1367,-4.8906,-4.6484,-4.4531,-4.5215,0.0,0.0,0.0,0.0,0.0,0.0,0.0,0.0,0.0,0.0,0.0,0.0,0.0,0.0,0.0,0.0,0.0,0.0,0.0,0.0,0.0,0.0,0.0,0.0,-5.082,-5.3646,-5.547,-5.5714,-5.6559,-5.8869,-6.0067,-6.0996,-6.1777,-6.2637,-6.3183,-6.3281,-6.4726,-6.5644,-6.5742,0.0,0.0,0.0,0.0,-6.6504,-6.5699,-6.4621,-6.3632,-6.2679,-6.1543,-6.0916,-6.08,-6.08,-6.08,-6.08,-6.08,-6.08,-6.08,-6.08,-6.0223,-5.9281,-5.8473,-5.8088,-5.7819,-5.6261,-5.5703,0.0,0.0,0.0,0.0,0.0,0.0,0.0,0.0,0.0,0.0,-4.3312,-4.3635,-4.4692,-4.7304,-4.6816,-4.6365,-4.6532,-4.4749,-4.2949,0.0,0.0,-4.4629,-4.5993,-4.8847,-5.1387,-5.3457,-5.4512,-5.5488,-5.6348,-5.7226,-5.7734,-5.793,-5.8613,-5.9043,-5.9238,-5.9883,-6.0254,-6.0449,-6.1152,-6.1543,-6.1699,-6.1523,-6.0449,-5.8613,-5.5653,-5.4093,-5.3242,-5.1348,-4.9922,-4.8867,-4.832,-4.6426,-4.418,-4.3613,-4.2305,0.0,0.0,0.0,0.0,0.0,0.0,0.0,0.0,0.0,0.0,0.0,0.0,0.0,0.0,0.0,0.0,0.0,0.0,0.0,-5.0254,-5.2988,-5.5644,-5.81,-5.8973,-5.9569,-6.0073,-6.1539,-6.2558,-6.2734,-6.3535,-6.4336,-6.5039,-6.541,-6.5918,-6.6601,-6.6816,0.0,-6.6894,-6.6894,-6.6683,-6.6244,-6.4812,-6.3785,-6.3136,0.0,0.0,-6.08,-6.08,-6.08,-6.08,-6.08,-6.08,-6.08,-6.08,-5.9896,-5.8454,-5.7588,-5.6819,-5.6165,-5.5818,-5.5703,-5.5703,0.0,0.0,0.0,0.0,0.0,0.0,0.0,0.0,0.0,0.0,-4.2868,-4.3558,-4.5301,-4.472,-4.4191,-4.419,-4.3027,0.0,0.0,-4.3926,-4.6426,-4.8183,-5.1113,-5.3301,-5.4629,-5.5508,-5.6387,-5.7246,-5.7695,-5.832,-5.916,-5.9609,-6.0039,-6.0469,-6.0879,-6.1055,-6.1074,-6.1523,-6.1699,-6.1699,-6.1699,-6.1191,-6.0215,-5.8066,-5.6719,-5.5723,-5.3984,-5.2539,-5.1269,-4.998,-4.8105,-4.6074,-4.4766,-4.3476,-4.2285,0.0,0.0,0.0,0.0,0.0,0.0,0.0,0.0,0.0,0.0,0.0,0.0,0.0,0.0,-4.5391,0.0,0.0,-5.0488,-5.3516,-5.5469,-5.7344,-5.9492,-6.0527,-6.1055,-6.1055,-6.1816,-6.2519,-6.2969,-6.3789,-6.4844,-6.6152,-6.664,-6.709,-6.7539,-6.7969,-6.7793,-6.6933,-6.7235,-6.7102,-6.6496,-6.4743,-6.3715,-6.344,-6.1704,-6.0858,-6.08,-6.08,-6.08,-6.08,-6.08,-6.08,-6.0723,-5.9896,-5.9069,-5.8165,-5.6857,-5.6069,-5.5703,-5.5703,-5.5703,-5.5703,0.0,0.0,0.0,0.0,0.0,0.0,0.0,0.0,0.0,0.0,-4.2092,-4.2437,-4.3316,-4.2782,-4.2131,0.0,0.0,0.0,0.0,-4.4648,-4.7891,-5.0332,-5.2715,-5.4492,-5.5527,-5.6406,-5.7207,-5.789,-5.8223,-5.9082,-6.039,-6.0566,-6.1035,-6.1699,-6.1699,-6.1699,-6.1699,-6.1699,-6.1699,-6.1699,-6.1699,-6.1601,-6.1269,-5.959,-5.8515,-5.7656,-5.5723,-5.3926,-5.2226,-5.0703,-4.9043,-4.7344,-4.5957,-4.4784,-4.3649,-4.2125,-4.1442,0.0,0.0,0.0,0.0,0.0,0.0,0.0,0.0,0.0,-4.3691,-4.5625,-4.6699,-4.8047,-5.0488,-5.1601,-5.3242,-5.6562,-5.7832,-5.8926,-6.0449,-6.1269,-6.1699,-6.1699,-6.1992,-6.248,-6.3183,-6.4355,-6.5644,-6.7051,-6.7969,-6.8457,-6.8437,-6.8945,-6.859,-6.7132,-6.7287,-6.7102,-6.6519,-6.4383,-6.3402,-6.3517,-6.1666,-6.08,-6.08,-6.08,-6.08,-6.08,-6.08,-6.08,-6.0666,-5.8992,-5.83,-5.8127,-5.6376,-5.5703,-5.5703,-5.5703,-5.5703,-5.5703,0.0,0.0,0.0,0.0,0.0,0.0,0.0,0.0,0.0,0.0,0.0,0.0,0.0,0.0,0.0,0.0,0.0,0.0,-4.0974,-4.5731,-4.9394,-5.1191,-5.3027,-5.4765,-5.6426,-5.7305,-5.7793,-5.789,-5.9394,-6.0215,-6.043,-6.1191,-6.1601,-6.1699,-6.1699,-6.1699,-6.1699,-6.1699,-6.1699,-6.1699,-6.1699,-6.123,-6.0351,-5.8672,-5.7988,-5.7578,-5.5058,-5.3027,-5.1406,-5.0508,-4.9043,-4.7578,-4.7363,-4.6175,-4.4674,-4.3694,0.0,-4.0886,-3.9816,-3.98,-4.0273,-4.1016,-4.1269,-4.2305,0.0,0.0,-4.6582,-4.9101,-5.0254,-5.1387,-5.3242,-5.4277,-5.5742,-5.8476,-5.959,-6.0469,-6.1426,-6.164,-6.1699,-6.1699,-6.3066,-6.4043,-6.414,-6.6348,-6.7832,-6.8047,-6.8867,-6.9336,-6.9277,-6.8672,-6.817,-6.7802,-6.6414,-6.5842,-6.6128,-6.3671,-6.2728,-6.332,-6.1608,-6.08,-6.08,-6.08,-6.08,-6.08,-6.08,-6.08,-6.0666,-5.8992,-5.83,-5.8127,-5.6376,-5.5703,-5.5703,-5.5703,-5.5703,-5.5703,0.0,0.0,0.0,0.0,0.0,0.0,0.0,0.0,0.0,0.0,0.0,0.0,0.0,0.0,0.0,0.0,0.0,0.0,-4.0923,-4.6409,-4.9961,-5.0664,-5.3301,-5.5098,-5.582,-5.6699,-5.7383,-5.789,-5.9101,-5.9941,-6.043,-6.1289,-6.1699,-6.1699,-6.1699,-6.1699,-6.1699,-6.1699,-6.1406,-6.0937,-6.0937,-6.0137,-5.8769,-5.7031,-5.5156,-5.3203,-5.155,-5.0195,0.0,-4.7636,-4.6699,-4.5996,-4.5492,-4.4836,-4.3863,-4.1986,-4.1623,0.0,-4.2646,0.0,0.0,0.0,-4.4551,-4.5527,-4.7832,-4.8066,-4.8535,-5.1113,-5.1914,-5.3008,-5.5762,-5.6973,-5.8242,0.0,-6.0937,-6.1289,-6.164,-6.1699,-6.1504,-6.0996,-6.248,-6.373,-6.4258,-6.5742,-6.7305,-6.8789,-6.9707,-6.998,-6.9472,-6.9947,-6.9285,-6.7199,-6.7262,-6.6679,-6.5365,-6.371,-6.2805,-6.2589,-6.1377,-6.08,-6.08,-6.08,-6.08,-6.08,-6.08,-6.08,-6.0666,-5.8992,-5.83,-5.8127,-5.6376,-5.5703,-5.5703,-5.5703,-5.5703,-5.5703,0.0,0.0,0.0,0.0,0.0,0.0,0.0,0.0,0.0,0.0,0.0,0.0,0.0,0.0,0.0,0.0,0.0,0.0,0.0,-4.5821,-4.9062,-4.9805,-5.2656,-5.4453,-5.4922,-5.5986,-5.7082,-5.8188,-5.9011,-5.9856,-6.0723,-6.1348,-6.166,-6.1699,-6.1699,-6.1699,-6.1699,-6.1699,-6.1191,-6.0371,-6.0156,-5.8906,-5.6933,-5.4705,-5.1882,-4.9005,-4.834,-4.7252,-4.5903,-4.4393,-4.3902,-4.3785,-4.3185,-4.2802,-4.222,-4.0331,-4.0494,-4.1623,-4.3124,0.0,0.0,-4.5547,-4.7324,-4.8594,-4.9707,-5.0137,-5.082,-5.2676,-5.3242,-5.4258,-5.7031,-5.8066,-5.9101,-6.1035,-6.1348,-6.1426,-6.168,-6.1484,-6.1113,-6.0488,-6.1268,-6.231,-6.3476,-6.4805,-6.6465,-6.8555,-6.9746,-7.0206,-6.9802,-7.0564,-6.9809,-6.725,-6.725,-6.6461,-6.4768,-6.332,-6.2435,-6.2089,-6.1223,-6.08,-6.08,-6.08,-6.08,-6.0781,-6.055,-6.0435,-6.03,-5.8627,-5.7934,-5.778,-5.628,-5.5703,-5.5665,-5.5453,-5.5511,-5.5703,0.0,0.0,0.0,0.0,0.0,0.0,0.0,0.0,0.0,0.0,0.0,0.0,0.0,0.0,0.0,0.0,0.0,0.0,0.0,-4.3509,-4.6211,-4.8828,-5.0605,-5.2305,-5.4004,-5.5591,-5.7208,-5.8877,-5.9619,-6.0488,-6.1465,-6.1484,-6.1582,-6.1699,-6.1699,-6.1699,-6.1699,-6.1699,-6.1191,-6.0332,-5.9551,-5.7695,-5.5,-5.157,-4.863,-4.6319,-4.6286,-4.4634,-4.2325,-4.1415,-4.1129,-4.1133,-4.1169,-4.055,0.0,-3.9727,-3.9143,-3.8712,-3.9624,0.0,-4.4047,-4.5859,-4.8223,-5.0547,-5.2207,-5.3242,-5.3867,-5.3945,-5.4629,-5.5508,-5.6465,-5.666,-5.75,-6.0039,-6.0449,-6.0723,-6.1582,-6.0976,-6.043,-6.039,-5.96,-5.9754,0.0,-6.4101,-6.5976,-6.6914,-6.8574,-6.9814,-7.0452,-6.9708,-6.9072,-6.8636,-6.5441,-6.4037,-6.4609,-6.2127,-6.1281,-6.2089,-6.1223,-6.08,-6.08,-6.08,-6.08,-6.0742,-5.9915,-5.955,-5.9415,-5.7723,-5.703,-5.6934,-5.6049,-5.5703,-5.5607,-5.4818,-5.503,-5.5703,0.0,0.0,0.0,0.0,0.0,0.0,0.0,0.0,0.0,0.0,0.0,0.0,0.0,0.0,0.0,0.0,0.0,0.0,0.0,-4.2955,-4.5175,-4.6078,-4.8833,-5.0881,-5.2045,-5.3172,-5.4268,-5.5374,-5.6213,-5.7091,-5.8008,-5.867,-5.9297,-5.9844,-5.998,-6.0039,-6.0039,-6.0039,-5.9531,-5.8613,-5.7187,-5.5054,-5.2396,-4.943,-4.5999,-4.266,0.0,-4.081,-3.9607,-3.9316,-3.921,-3.9202,-3.924,-3.903,-3.8763,-3.8714,-3.8548,-3.9093,-4.2227,0.0,-4.5247,-4.8052,-5.0248,-5.2007,-5.3054,-5.352,-5.3728,-5.3721,-5.2615,-5.1918,-5.2796,-5.3429,-5.4658,-5.7198,-5.8543,-5.9779,-6.1222,-6.1183,-6.0566,-5.9404,-5.9993,0.0,0.0,0.0,0.0,-6.6738,-6.8385,-6.9148,-6.8777,-6.9355,-6.8585,-6.6192,-6.548,-6.4416,-6.2954,-6.2089,-6.1512,-6.1223,-6.0935,-6.08,-6.0781,-6.0204,-5.9935,-5.9896,-5.9069,-5.8704,-5.8627,-5.7473,-5.6992,-5.6896,-5.603,-5.5703,-5.5665,-5.5395,-5.5472,-5.553,0.0,0.0,0.0,0.0,0.0,0.0,0.0,0.0,0.0,0.0,0.0,0.0,0.0,0.0,0.0,0.0,0.0,0.0,0.0,0.0,-4.2673,-4.3311,-4.575,-4.7489,-4.8371,-4.9167,-5.0134,-5.128,-5.2375,-5.3413,-5.4334,-5.5636,-5.6533,-5.709,-5.7265,-5.7344,-5.7324,-5.7007,-5.6364,-5.5357,-5.3299,-5.1273,-4.9138,-4.6169,-4.3124,0.0,-3.8936,-3.7958,-3.7305,-3.734,-3.7336,-3.7347,-3.7356,-3.7355,-3.7436,-3.7967,-3.8418,-3.9694,-4.3992,-4.5675,-4.6956,-5.0056,-5.2106,-5.3417,-5.3576,-5.3604,-5.3437,-5.2822,-5.067,-4.9176,-5.0022,-5.0386,-5.1406,-5.3959,-5.5535,-5.7377,-5.9998,-5.9863,-5.951,-5.9565,-6.0282,0.0,0.0,0.0,0.0,-6.5266,-6.6855,-6.7579,-6.7276,-6.8058,-6.75,-6.5268,-6.4762,-6.3762,-6.2108,-6.1781,-6.1339,-6.08,-6.08,-6.0627,-6.0319,-5.9762,-5.9338,-5.9031,-5.8204,-5.7838,-5.7761,-5.6876,-5.653,-5.6472,-5.5915,-5.5703,-5.5665,-5.5376,-5.5068,-5.4703,0.0,0.0,0.0,0.0,0.0,0.0,0.0,0.0,0.0,0.0,0.0,0.0,0.0,0.0,0.0,0.0,0.0,0.0,0.0,0.0,0.0,-4.0677,-4.1632,-4.2514,-4.3393,-4.4052,-4.5189,-4.6885,-4.8373,-4.9587,-5.0605,-5.2329,-5.3219,-5.3398,-5.3574,-5.3652,-5.3612,-5.2826,-5.195,-5.0855,-4.8302,-4.6668,-4.5429,-4.207,-4.0166,-3.9061,-3.745,-3.6299,-3.5578,0.0,-3.5717,-3.5805,-3.5901,-3.5889,-3.6175,-3.7786,-3.8965,-4.0655,-4.4853,-4.7279,-4.9197,-5.1667,-5.3581,-5.459,-5.3665,-5.3435,-5.2936,-5.1183,-4.8825,-4.7287,0.0,0.0,-4.7981,-5.0528,-5.1857,-5.4045,-5.8218,-5.7489,-5.7689,0.0,0.0,0.0,0.0,0.0,0.0,-6.276,0.0,-6.5383,-6.6063,-6.6101,-6.6005,-6.5763,-6.3378,-6.207,-6.2031,-6.1204,-6.08,-6.08,-6.08,-6.0339,-5.9492,-5.9454,-5.8992,-5.8184,-5.73,-5.6915,-5.6857,-5.603,-5.5703,-5.5703,-5.5645,-5.5665,-5.5588,-5.4741,-5.3933,-5.3376,0.0,0.0,0.0,0.0,0.0,0.0,0.0,0.0,0.0,0.0,0.0,0.0,0.0,0.0,0.0,0.0,0.0,0.0,0.0,0.0,0.0,0.0,0.0,0.0,0.0,0.0,0.0,-4.4119,-4.4526,-4.5143,-4.6009,-4.6549,-4.7182,-4.7862,-4.8652,-4.9009,-4.9048,-4.9464,-4.9127,-4.8149,0.0,-4.4463,-4.2916,-4.1326,-3.9386,-3.7546,-3.7654,0.0,0.0,0.0,0.0,0.0,0.0,-3.9273,-3.9591,-4.1312,-4.2909,-4.4826,-4.7824,-4.9946,-5.145,-5.2024,-5.2974,-5.3376,-5.1798,-5.1433,-5.0587,-4.7622,-4.5486,-4.3635,0.0,0.0,0.0,-4.8451,-5.2241,0.0,-5.9758,-6.0469,0.0,-6.1762,0.0,-6.2276,-6.2026,-6.2433,0.0,0.0,-6.4328,-6.5238,-6.6076,-6.6019,-6.532,-6.4012,-6.2743,-6.1781,-6.1127,-6.0916,-6.08,-6.08,-6.08,-6.0339,-5.9473,-5.8877,-5.8146,-5.728,-5.6395,-5.603,-5.6011,-5.578,-5.5703,-5.5645,-5.503,-5.5164,-5.5511,-5.4068,-5.3799,-5.401,0.0,0.0,0.0,0.0,0.0,0.0,0.0,0.0,0.0,0.0,0.0,0.0,0.0,0.0,0.0,0.0,0.0,0.0,0.0,0.0,0.0,0.0,0.0,0.0,0.0,0.0,0.0,0.0,0.0,0.0,-4.2124,-4.2598,-4.3096,-4.3602,-4.4214,-4.448,-4.4489,-4.4599,0.0,0.0,0.0,0.0,-4.0282,-4.0154,-3.895,0.0,0.0,0.0,0.0,0.0,0.0,-3.9969,-4.0816,-4.1066,-4.1566,-4.4047,0.0,-4.7451,-5.0394,-5.2201,-5.3161,-5.2682,-5.2953,-5.2568,-4.9683,-4.874,-4.7586,-4.4566,-4.2297,0.0,-3.9488,0.0,0.0,0.0,0.0,0.0,-5.905,-6.0127,-6.1108,0.0,-6.3608,0.0,-6.3358,-6.3647,-6.4089,0.0,-6.4661,-6.4762,-6.4878,-6.4801,-6.4147,-6.282,-6.1954,-6.1281,-6.08,-6.08,-6.08,-6.08,-6.08,-6.0165,-5.8954,-5.8511,-5.7627,-5.6395,0.0,-5.5703,-5.5703,-5.5703,-5.5491,-5.5126,-5.4684,-5.453,-5.4491,-5.3549,-5.328,-5.3222,0.0,0.0,0.0,0.0,0.0,0.0,0.0,0.0,0.0,0.0,0.0,0.0,0.0,0.0,0.0,0.0,0.0,0.0,0.0,0.0,0.0,0.0,0.0,0.0,0.0,0.0,0.0,0.0,0.0,0.0,0.0,0.0,0.0,0.0,0.0,0.0,0.0,0.0,0.0,0.0,0.0,0.0,-3.7911,0.0,0.0,0.0,0.0,0.0,0.0,0.0,-4.1623,-4.1316,-4.22,-4.2547,-4.3239,-4.6336,-4.7875,-4.9279,-5.2356,-5.3914,-5.4414,-5.3433,-5.3106,-5.1952,-4.7836,-4.622,-4.4836,-4.2181,0.0,-3.8334,-3.8854,-3.97,-4.1239,-4.4008,0.0,-5.1645,-5.7627,-5.8569,-6.0127,-6.4128,-6.4609,-6.4647,-6.4762,-6.4666,-6.4916,-6.5667,-6.4916,-6.4147,-6.3512,-6.3262,-6.2762,-6.1935,-6.1185,-6.08,-6.08,-6.0685,-6.0627,-6.0627,-6.0512,-5.9646,-5.8127,-5.8127,-5.7242,-5.5703,0.0,0.0,-5.5703,-5.5703,-5.5222,-5.4491,-5.4376,-5.3876,-5.3164,-5.2953,-5.2472,-5.1895,0.0,0.0,0.0,0.0,0.0,0.0,0.0,0.0,0.0,0.0,-3.9998,0.0,0.0,0.0,0.0,0.0,0.0,0.0,0.0,0.0,0.0,0.0,0.0,0.0,0.0,0.0,0.0,0.0,0.0,0.0,0.0,0.0,0.0,0.0,0.0,0.0,0.0,0.0,0.0,0.0,0.0,0.0,0.0,0.0,0.0,0.0,0.0,0.0,0.0,0.0,-4.3682,-4.4855,-4.574,-4.6471,-4.7278,-4.8586,-5.0048,-5.1529,-5.2837,-5.4318,-5.5126,-5.3587,-5.2664,-5.1221,-4.7702,-4.622,0.0,0.0,-3.9854,-3.8681,-3.7392,-3.843,-4.0796,-4.4739,0.0,0.0,0.0,0.0,-6.1416,0.0,0.0,0.0,0.0,0.0,0.0,0.0,0.0,0.0,-6.4339,-6.3051,-6.1897,-6.105,-6.0877,-6.08,-6.08,-6.0089,-5.9723,-5.9723,-5.905,-5.8204,-5.7223,-5.7223,-5.6665,-5.5703,0.0,0.0,-5.5703,-5.5703,-5.5222,-5.4434,-5.3703,-5.3337,-5.3029,-5.1645,-5.1452,-5.1798,0.0,0.0,0.0,0.0,0.0,0.0,0.0,0.0,0.0,-4.0139,-4.012,-3.9908,0.0,0.0,0.0,0.0,0.0,0.0,0.0,0.0,0.0,0.0,0.0,0.0,0.0,0.0,0.0,0.0,0.0,0.0,0.0,0.0,0.0,0.0,0.0,0.0,0.0,0.0,0.0,0.0,0.0,0.0,0.0,0.0,0.0,0.0,0.0,0.0,0.0,0.0,-4.3451,-4.574,-4.6624,-4.7163,-4.7817,-4.9548,-5.0933,-5.2202,-5.353,-5.4761,-5.5415,-5.4184,-5.2568,-5.0394,-4.699,0.0,0.0,0.0,-3.8892,-3.8238,-3.6949,0.0,0.0,0.0,0.0,0.0,0.0,0.0,0.0,0.0,0.0,0.0,0.0,0.0,0.0,0.0,0.0,0.0,0.0,-6.2108,-6.1223,-6.08,-6.0358,-6.0127,-6.0127,-5.93,-5.8877,-5.8877,-5.8492,-5.7838,-5.6992,-5.6992,-5.6511,-5.5703,0.0,0.0,-5.5665,-5.5241,-5.4857,-5.4376,-5.3049,-5.2529,-5.2375,-5.1144,-5.0933,-5.1221,0.0,0.0,0.0,0.0,0.0,0.0,0.0,-3.9547,-3.9543,-4.0174,-4.0266,-3.9884,-3.8877,-3.949,-3.965,0.0,0.0,0.0,0.0,0.0,0.0,0.0,0.0,0.0,0.0,0.0,0.0,0.0,0.0,0.0,0.0,0.0,0.0,0.0,0.0,0.0,0.0,0.0,0.0,0.0,0.0,0.0,0.0,0.0,0.0,0.0,0.0,0.0,0.0,0.0,-4.253,-4.4876,-4.555,-4.6299,-4.7298,-4.9298,-5.0721,-5.1991,-5.353,-5.4799,-5.5453,-5.4472,-5.2452,-4.9798,-4.6374,-4.3778,0.0,0.0,-3.8377,-3.7959,-3.7113,0.0,-3.9092,0.0,0.0,0.0,0.0,0.0,0.0,0.0,0.0,0.0,0.0,0.0,0.0,0.0,0.0,0.0,0.0,-6.0993,-6.0512,-6.0512,-5.9685,-5.9242,-5.9242,-5.8434,-5.803,-5.803,-5.7838,-5.7376,-5.6703,-5.6703,-5.6338,-5.5703,0.0,0.0,0.0,-5.5011,-5.4664,-5.4357,-5.2799,-5.2068,-5.1798,-5.0991,-5.0702,-5.0702,0.0,0.0,0.0,0.0,0.0,0.0,0.0,-3.9804,-4.0334,-4.0438,-4.0473,-3.9858,-3.8266,-3.8757,-3.8907,0.0,0.0,0.0,0.0,0.0,0.0,0.0,0.0,0.0,0.0,0.0,0.0,0.0,0.0,0.0,0.0,0.0,0.0,0.0,0.0,0.0,0.0,0.0,0.0,0.0,0.0,0.0,0.0,0.0,0.0,0.0,0.0,0.0,0.0,0.0,0.0,-4.1986,-4.2063,-4.4304,-4.6951,-4.7182,0.0,0.0,-5.1914,-5.3876,-5.5318,-5.3722,-5.1991,-4.9798,-4.6374,0.0,0.0,-4.0642,-3.958,-3.8745,-3.7939,-3.7268,-3.7619,-3.9943,0.0,-4.4422,0.0,0.0,0.0,0.0,0.0,0.0,0.0,0.0,0.0,0.0,0.0,0.0,0.0,-6.0089,-5.9627,-5.9627,-5.8838,-5.8415,-5.8415,-5.755,-5.7107,-5.7107,-5.6319,-5.5895,-5.5818,-5.5818,-5.578,-5.5703,0.0,0.0,0.0,-5.5607,-5.5164,-5.4414,-5.3453,-5.2606,-5.1798,-5.0991,-5.0702,-5.0702,0.0,0.0,0.0,0.0,0.0,0.0,0.0,-4.0216,-4.0476,-4.0489,-4.0489,-4.0046,-3.8911,-3.8565,-3.8104,0.0,0.0,0.0,0.0,0.0,0.0,0.0,0.0,0.0,0.0,0.0,0.0,0.0,0.0,0.0,0.0,0.0,0.0,0.0,0.0,0.0,0.0,0.0,0.0,0.0,0.0,0.0,0.0,0.0,0.0,0.0,0.0,0.0,0.0,0.0,0.0,0.0,-4.0364,-4.1359,0.0,0.0,-4.6797,-4.8913,-5.126,-5.3414,-5.4818,-5.4145,-5.1873,-4.9182,-4.6801,0.0,-4.1797,-4.0572,-4.002,-3.9524,-3.8701,-3.828,-3.8206,-3.8648,-3.9468,0.0,0.0,0.0,0.0,0.0,0.0,0.0,0.0,0.0,0.0,0.0,0.0,0.0,0.0,0.0,-5.8781,-5.8781,-5.7953,-5.7511,-5.7511,-5.6646,-5.6222,-5.6203,-5.5857,-5.5703,-5.5703,-5.5703,-5.5703,-5.5703,0.0,0.0,0.0,-5.4607,-5.4318,-5.4299,-5.2433,-5.2106,-5.2587,-5.1741,-5.1414,-5.1414,0.0,0.0,0.0,0.0,0.0,0.0,-3.9948,-4.0323,-4.0489,-4.0489,-4.0489,-4.0181,-3.9392,-3.8527,-3.7642,-3.6776,0.0,0.0,0.0,0.0,0.0,0.0,0.0,0.0,0.0,0.0,0.0,0.0,0.0,0.0,0.0,0.0,0.0,0.0,0.0,0.0,0.0,0.0,0.0,0.0,0.0,0.0,0.0,0.0,0.0,0.0,0.0,0.0,0.0,0.0,0.0,0.0,0.0,0.0,0.0,0.0,-4.4514,-4.6762,-4.9754,-5.2017,-5.3478,-5.3119,-5.0833,-4.8171,0.0,0.0,-4.1246,-4.0387,-4.0177,-3.991,-3.9089,-3.8956,-3.8575,-3.7432,-3.8002,-3.9489,-4.203,0.0,0.0,0.0,0.0,0.0,0.0,0.0,0.0,0.0,0.0,0.0,0.0,0.0,-5.7915,-5.7915,-5.7069,-5.6607,-5.6607,-5.6011,-5.5703,-5.5703,-5.5577,-5.5512,-5.5512,-5.5512,-5.5512,0.0,0.0,0.0,0.0,-5.4434,-5.4164,-5.4299,-5.2241,-5.1991,-5.2722,-5.1856,-5.1548,-5.1548,0.0,0.0,0.0,0.0,0.0,0.0,0.0,-3.9988,-4.0489,-4.0489,-4.0489,-4.0181,-3.9392,-3.8527,-3.7642,-3.6776,0.0,0.0,0.0,0.0,0.0,0.0,0.0,0.0,0.0,0.0,-3.843,-3.9296,-4.0104,-4.0489,0.0,0.0,0.0,0.0,0.0,0.0,0.0,0.0,0.0,0.0,0.0,0.0,0.0,0.0,0.0,0.0,0.0,0.0,0.0,0.0,0.0,0.0,0.0,0.0,0.0,0.0,-4.2125,-4.471,-4.6853,-4.9352,-5.1053,-4.9938,-4.8526,-4.6776,0.0,0.0,-4.1246,-4.0387,-4.0138,-3.9831,-3.8975,-3.8803,-3.8232,-3.6501,-3.7015,0.0,-4.1072,0.0,0.0,0.0,0.0,0.0,0.0,0.0,0.0,0.0,0.0,0.0,0.0,0.0,-5.6992,-5.6992,-5.6165,-5.5703,-5.5703,-5.5703,-5.5703,-5.5703,-5.5306,-5.5107,-5.5107,-5.5107,0.0,0.0,0.0,0.0,0.0,-5.5684,-5.5203,-5.4414,-5.353,-5.2664,-5.1818,-5.101,-5.0702,-5.0702,0.0,0.0,0.0,0.0,0.0,0.0,0.0,-4.0335,-4.0489,-4.0489,-4.0008,-3.9565,-3.9315,-3.7988,-3.7238,-3.7565,0.0,0.0,0.0,0.0,0.0,0.0,0.0,0.0,0.0,0.0,-3.9008,-3.9296,-4.0104,-4.0489,-4.0469,-3.9681,0.0,0.0,0.0,0.0,0.0,0.0,0.0,0.0,0.0,0.0,0.0,0.0,0.0,0.0,0.0,0.0,0.0,0.0,0.0,0.0,0.0,0.0,0.0,-3.7698,-3.9429,0.0,-4.4243,-4.634,-4.7753,-4.7586,-4.6155,-4.4421,-4.3057,0.0,-3.9924,-3.9642,-3.9556,-3.9476,-3.9175,-3.9232,-3.9169,-3.8618,-3.8428,-3.8627,0.0,0.0,0.0,0.0,0.0,0.0,0.0,0.0,0.0,0.0,0.0,0.0,0.0,0.0,0.0,-5.6107,-5.5838,-5.5577,-5.5306,-5.5577,-5.5577,-5.5306,-5.5423,-5.5512,-5.5512,-5.5512,0.0,0.0,0.0,0.0,0.0,-5.5107,-5.4376,-5.353,-5.2664,-5.251,-5.2702,-5.1837,-5.1895,-5.2318,0.0,0.0,0.0,0.0,0.0,0.0,0.0,-4.0239,-4.0046,-4.0046,-3.9604,-3.9296,-3.9296,-3.8334,-3.7892,-3.843,0.0,0.0,0.0,0.0,0.0,0.0,0.0,0.0,0.0,-3.8854,-3.9296,-3.9296,-4.0104,-4.0489,-4.0469,-3.9681,-3.9246,-3.9125,0.0,0.0,0.0,0.0,0.0,0.0,0.0,0.0,-3.9901,0.0,0.0,0.0,0.0,0.0,0.0,0.0,0.0,0.0,0.0,0.0,0.0,0.0,-3.769,-3.9389,0.0,-4.3649,-4.494,-4.4971,-4.3868,0.0,0.0,0.0,0.0,-3.9298,-3.9298,-3.9298,-3.9298,-3.9477,-3.9505,-3.9204,-3.8893,0.0,0.0,0.0,0.0,0.0,0.0,0.0,0.0,0.0,0.0,0.0,0.0,0.0,0.0,0.0,0.0,-5.5489,-5.5621,-5.5577,-5.5331,-5.5577,-5.5489,-5.5088,-5.5186,-5.5141,-5.4969,0.0,0.0,0.0,0.0,0.0,0.0,-5.4818,-5.3878,-5.2497,-5.2431,-5.2237,-5.1979,-5.1585,-5.1798,-5.2222,0.0,0.0,0.0,0.0,0.0,0.0,0.0,0.0,0.0,0.0,-3.9296,-3.9277,-3.92,-3.92,-3.92,0.0,0.0,0.0,0.0,0.0,0.0,0.0,0.0,0.0,0.0,-3.8969,-3.9392,-3.9392,-4.0123,-4.0489,-4.0469,-3.9604,-3.9106,-3.8841,-3.7907,0.0,0.0,0.0,0.0,0.0,0.0,0.0,0.0,0.0,0.0,0.0,0.0,0.0,0.0,0.0,0.0,0.0,0.0,0.0,0.0,0.0,0.0,0.0,0.0,-4.1256,-4.2456,0.0,0.0,0.0,0.0,0.0,0.0,-3.9245,-3.9245,-3.9245,-3.9245,-3.9427,-3.9306,-3.8555,-3.8603,0.0,0.0,0.0,0.0,0.0,0.0,0.0,0.0,0.0,0.0,0.0,0.0,0.0,0.0,0.0,0.0,0.0,-5.5423,-5.5599,-5.5577,-5.5599,-5.5423,-5.4988,-5.4671,-5.4217,-5.3758,0.0,0.0,0.0,0.0,0.0,0.0,-5.4623,-5.3575,-5.1566,-5.2724,-5.2027,-5.0383,-5.0638,-5.0836,-5.1048,0.0,0.0,0.0,0.0,0.0,0.0,0.0,0.0,0.0,0.0,-3.9296,-3.9046,-3.8373,-3.8315,-3.8315,0.0,0.0,0.0,0.0,0.0,0.0,0.0,0.0,0.0,0.0,-4.0104,-4.0219,-4.0219,-4.0412,-4.0489,-4.0469,-3.8942,-3.8429,-3.8766,-3.7148,-3.6842,0.0,0.0,0.0,0.0,0.0,0.0,0.0,0.0,0.0,0.0,-3.8881,-3.8851,0.0,0.0,0.0,0.0,0.0,0.0,0.0,0.0,-3.7331,-3.7599,-3.8026,0.0,-3.9908,-3.9984,-3.9779,-3.9507,0.0,0.0,0.0,0.0,0.0,0.0,0.0,-3.9007,-3.9082,-3.8896,0.0,0.0,0.0,0.0,0.0,0.0,0.0,0.0,0.0,0.0,0.0,0.0,0.0,0.0,0.0,0.0,0.0,0.0,-5.4731,-5.4591,-5.4251,-5.4591,-5.456,-5.4099,-5.4387,-5.4081,-5.3325,0.0,0.0,0.0,0.0,0.0,0.0,-5.3297,-5.2937,-5.1935,-5.2845,-5.309,-5.28,-5.1596,-5.2203,-5.3433,0.0,0.0,0.0,0.0,0.0,0.0,0.0,0.0,0.0,0.0,0.0,0.0,0.0,0.0,0.0,0.0,0.0,0.0,0.0,0.0,0.0,0.0,0.0,-3.8604,-3.9912,-3.995,-3.995,-3.995,-3.9546,-3.9673,-4.0283,-3.8948,-3.8328,-3.8339,-3.7318,-3.7089,0.0,0.0,0.0,0.0,0.0,0.0,0.0,0.0,0.0,0.0,-3.8707,-3.8707,0.0,-3.8822,-3.8792,-3.8738,0.0,0.0,0.0,0.0,-3.8046,-3.8046,-3.8046,-3.8431,-3.8892,-3.9007,-3.895,-3.8862,-3.8862,0.0,0.0,0.0,0.0,0.0,0.0,0.0,0.0,0.0,0.0,0.0,0.0,0.0,0.0,0.0,0.0,0.0,0.0,0.0,0.0,0.0,0.0,0.0,0.0,0.0,0.0,0.0,0.0,-5.3979,-5.4118,-5.4355,-5.4255,-5.3814,-5.369,-5.3278,-5.2638,0.0,0.0,0.0,0.0,0.0,-5.1236,-5.2423,-5.2198,-5.1292,-5.287,-5.3262,-5.291,-5.2365,-5.2922,-5.3837,0.0,0.0,0.0,0.0,0.0,0.0,0.0,0.0,0.0,0.0,0.0,0.0,0.0,0.0,0.0,0.0,0.0,0.0,0.0,0.0,0.0,0.0,0.0,-3.8604,-3.945,-3.9469,-3.9469,-3.9469,-3.8723,-3.8958,-4.0081,-3.9185,-3.8439,-3.788,-3.7923,-3.7961,0.0,0.0,0.0,0.0,-3.878,0.0,0.0,0.0,0.0,0.0,0.0,0.0,0.0,-3.8707,-3.8707,-3.8707,-3.8707,0.0,0.0,0.0,0.0,0.0,-3.8707,-3.8799,-3.8854,-3.8726,-3.8707,-3.8707,-3.8707,0.0,0.0,0.0,0.0,0.0,0.0,-3.9467,0.0,0.0,0.0,0.0,0.0,0.0,0.0,0.0,0.0,0.0,0.0,0.0,0.0,0.0,0.0,0.0,0.0,0.0,0.0,0.0,0.0,0.0,-5.4307,-5.4307,-5.4027,-5.3535,-5.281,-5.2175,-5.1591,-5.093,0.0,0.0,0.0,0.0,-5.0135,-5.1676,-5.1564,-5.0596,-5.2817,-5.3156,-5.2443,-5.3001,-5.3349,-5.3683,0.0,0.0,0.0,0.0,0.0,0.0,0.0,0.0,0.0,0.0,0.0,0.0,0.0,0.0,0.0,0.0,0.0,0.0,0.0,0.0,0.0,0.0,-3.87,-3.9469,-4.0296,-4.0315,-4.0315,-4.0315,-4.0117,-4.0057,-4.0081,-3.9024,-3.8254,-3.7748,-3.8306,-3.8566,-3.8584,-3.8695,-3.875,-3.875,-3.8689,0.0,0.0,0.0,0.0,0.0,0.0,0.0,0.0,-3.8707,-3.8707,-3.8707,-3.8707,0.0,0.0,0.0,0.0,0.0,-3.8707,-3.9203,-3.9551,-3.8872,-3.8707,-3.8707,-3.8707,-3.8707,0.0,0.0,0.0,0.0,0.0,0.0,0.0,0.0,0.0,0.0,0.0,0.0,0.0,0.0,0.0,0.0,0.0,0.0,0.0,0.0,0.0,0.0,0.0,0.0,0.0,0.0,0.0,-5.3272,-5.34,-5.34,-5.3009,-5.2265,-5.2136,-5.1342,-4.9939,-4.9829,-4.937,0.0,0.0,0.0,-4.9745,-5.0683,-5.1327,-5.1805,-5.2868,-5.3609,-5.4031,-5.3437,-5.4097,-5.5338,0.0,0.0,0.0,0.0,0.0,0.0,0.0,0.0,0.0,0.0,0.0,0.0,0.0,0.0,0.0,0.0,0.0,0.0,0.0,0.0,0.0,-3.8719,-3.9488,-3.97,-3.9161,-3.9604,-3.9769,-3.9578,-3.9084,-3.9147,-3.9769,-3.9089,-3.8588,-3.8251,-3.8554,-3.8707,-3.8707,-3.8707,-3.8707,-3.8707,0.0,0.0,0.0,0.0,0.0,0.0,0.0,0.0,0.0,0.0,-3.834,-3.8615,-3.8193,0.0,0.0,0.0,0.0,0.0,-3.8707,-3.8964,-3.9276,-3.9331,-3.968,-4.001,-4.001,-4.001,0.0,0.0,0.0,0.0,0.0,0.0,0.0,0.0,0.0,0.0,0.0,0.0,0.0,0.0,0.0,0.0,0.0,0.0,0.0,0.0,0.0,0.0,0.0,0.0,0.0,0.0,0.0,0.0,-5.2564,-5.2546,-5.2362,-5.1977,-5.1114,-5.0306,-4.9572,-4.9095,-4.8673,0.0,0.0,-4.8783,-4.9646,-5.0472,-5.1261,-5.211,-5.313,-5.3943,-5.451,-5.4542,-5.503,-5.5703,0.0,0.0,0.0,0.0,0.0,0.0,0.0,0.0,0.0,0.0,0.0,0.0,0.0,0.0,0.0,0.0,0.0,0.0,0.0,0.0,-4.0142,-3.9335,-3.9999,-3.9829,-3.8593,-3.9208,-3.9418,-3.9128,-3.8442,-3.8565,-3.9433,-3.8897,-3.8667,-3.8689,-3.8505,-3.8524,-3.8707,-3.8707,-3.8707,-3.8707,0.0,0.0,0.0,0.0,0.0,0.0,0.0,0.0,0.0,0.0,0.0,0.0,0.0,0.0,0.0,-3.8707,-3.8707,-3.8707,-3.8707,-3.8836,-3.9129,-3.9753,0.0,-4.0653,-4.102,-4.0965,0.0,0.0,0.0,0.0,0.0,0.0,0.0,0.0,0.0,0.0,0.0,0.0,0.0,0.0,0.0,0.0,0.0,0.0,0.0,0.0,0.0,0.0,0.0,0.0,0.0,0.0,0.0,0.0,-5.172,-5.1518,-5.1426,-5.1408,-5.0178,-4.9481,-4.926,-4.86,-4.8306,-4.8306,-4.8306,-4.8783,-4.9646,-5.0472,-5.1261,-5.211,-5.3211,-5.3996,-5.4597,-5.5306,-5.5621,-5.5703,0.0,0.0,0.0,0.0,0.0,0.0,0.0,0.0,0.0,0.0,0.0,0.0,0.0,0.0,0.0,0.0,0.0,0.0,0.0,0.0,-4.0142,-3.9335,-3.9828,-4.0157,-4.0241,-4.0279,-4.0247,-4.0101,-3.9966,-3.9712,-3.9279,-3.8145,-3.8003,-3.867,-3.7918,-3.7991,-3.8707,-3.8707,-3.8707,-3.8707,-3.8707,0.0,0.0,0.0,0.0,0.0,0.0,0.0,0.0,0.0,0.0,0.0,0.0,0.0,-3.8707,-3.8707,-3.8707,-3.8707,-3.8707,-3.9239,-3.9827,-3.9882,-3.9386,-3.9258,-4.0763,-4.0524,0.0,-4.0873,0.0,0.0,0.0,0.0,0.0,0.0,0.0,0.0,0.0,0.0,0.0,0.0,0.0,0.0,0.0,0.0,0.0,0.0,0.0,0.0,0.0,0.0,0.0,0.0,0.0,0.0,-5.0894,-5.0141,-4.9756,-4.9756,-4.9646,-4.9169,-4.8398,-4.8343,-4.8306,-4.8306,-4.8306,-4.8783,-4.9646,-5.0472,-5.1261,-5.2068,-5.2918,-5.3758,-5.4566,-5.4979,-5.5375,-5.5703,0.0,0.0,0.0,0.0,0.0,0.0,0.0,0.0,0.0,0.0,0.0,0.0,0.0,0.0,0.0,0.0,0.0,0.0,0.0,0.0,-4.031,-3.9986,-3.9637,-3.968,-4.0196,-4.012,-3.9901,-3.9529,-3.9439,-3.9245,-3.8902,-3.8079,-3.8048,-3.867,-3.7845,-3.7936,-3.8707,-3.8707,-3.8707,-3.8707,-3.8707,-3.8707,0.0,0.0,0.0,0.0,0.0,0.0,0.0,0.0,-3.7863,-3.8432,-3.6909,-3.7459,-3.8597,-3.8102,-3.8303,-3.8707,-3.8707,-3.9294,-3.9913,-3.989,-3.9656,0.0,0.0,-4.1992,-4.2004,-4.1396,-4.2386,0.0,0.0,0.0,0.0,0.0,0.0,0.0,0.0,0.0,0.0,0.0,0.0,0.0,0.0,0.0,0.0,0.0,0.0,0.0,0.0,0.0,0.0,0.0,0.0,0.0,0.0,-4.9738,-4.9315,-4.8783,-4.8783,-4.8618,-4.8306,-4.8306,-4.8306,-4.8306,-4.8306,-4.8783,-4.9646,-5.0472,-5.1261,-5.2132,-5.3461,-5.4206,-5.4597,-5.5237,-5.5577,-5.5703,0.0,0.0,0.0,0.0,0.0,0.0,0.0,0.0,0.0,0.0,0.0,0.0,0.0,0.0,0.0,0.0,0.0,0.0,-3.9227,-3.997,-4.0281,-3.9959,-3.9166,-3.8991,-3.9494,-3.9346,-3.9236,-3.9249,-3.9091,-3.895,-3.8773,-3.805,-3.8048,-3.867,-3.7845,-3.7936,-3.8707,-3.8707,-3.8707,-3.8707,-3.8707,-3.8707,0.0,0.0,0.0,0.0,0.0,0.0,0.0,0.0,-3.7404,-3.8028,-3.6321,-3.6945,-3.8248,-3.7955,-3.8462,-3.9068,-3.9068,-3.9473,-3.9982,-4.022,0.0,0.0,-4.2249,-4.291,-4.307,-4.2867,-4.3802,0.0,0.0,0.0,0.0,0.0,0.0,0.0,0.0,0.0,0.0,0.0,0.0,0.0,0.0,0.0,0.0,0.0,0.0,0.0,0.0,0.0,0.0,0.0,0.0,0.0,0.0,-4.9187,-4.8893,-4.8306,-4.8306,-4.8306,-4.8306,-4.8306,-4.8306,-4.8306,-4.8306,-4.8636,-4.9242,-5.0068,-5.0937,-5.1893,-5.3193,-5.3905,-5.4333,-5.4905,-5.5346,-5.5703,0.0,0.0,0.0,0.0,0.0,0.0,0.0,0.0,0.0,0.0,0.0,0.0,0.0,0.0,0.0,0.0,0.0,0.0,-3.9054,-3.9898,-3.9978,-3.9048,-3.848,-3.8188,-3.8182,-3.7936,-3.8391,-3.9599,-3.9173,-3.897,-3.8952,-3.7945,-3.7918,-3.867,-3.7845,-3.7936,-3.8707,-3.8707,-3.8707,-3.8707,-3.8707,-3.8707,-3.8707,0.0,0.0,0.0,0.0,0.0,0.0,0.0,-3.7526,-3.7526,-3.7477,-3.7489,-3.7654,-3.845,-3.9265,-3.9878,-3.9878,-3.9896,-4.0086,0.0,0.0,0.0,-4.2947,-4.2873,-4.3002,-4.5406,0.0,-4.447,0.0,0.0,0.0,0.0,0.0,0.0,0.0,0.0,0.0,0.0,0.0,0.0,0.0,0.0,0.0,0.0,0.0,0.0,0.0,0.0,0.0,0.0,0.0,0.0,0.0,-4.8306,-4.8306,-4.8306,-4.8306,-4.8306,-4.8306,-4.8306,-4.8306,-4.8306,-4.8306,-4.8306,-4.8379,-4.9224,-5.0286,-5.1337,-5.1769,-5.2674,-5.3784,-5.383,-5.4604,-5.5703,0.0,0.0,0.0,0.0,0.0,0.0,0.0,0.0,0.0,0.0,0.0,0.0,0.0,0.0,0.0,0.0,0.0,0.0,-3.9026,-3.9604,-3.9863,-3.9575,-3.8635,-3.8116,-3.8141,-3.7902,-3.7978,-3.8335,-3.8071,-3.7927,-3.7927,-3.7077,-3.7386,-3.867,-3.7845,-3.7936,-3.8707,-3.8707,-3.8707,-3.8707,-3.8707,-3.8707,-3.8707,0.0,0.0,0.0,0.0,0.0,0.0,0.0,0.0,0.0,-3.7,-3.7422,-3.8267,-3.7948,-3.8426,-3.905,-3.905,-3.9871,0.0,-4.0345,0.0,0.0,0.0,-4.3314,0.0,0.0,0.0,0.0,0.0,0.0,0.0,0.0,0.0,0.0,0.0,0.0,0.0,0.0,0.0,0.0,0.0,0.0,0.0,0.0,0.0,0.0,0.0,0.0,0.0,0.0,0.0,0.0,0.0,0.0,-4.8306,-4.8306,-4.8306,-4.8306,-4.8306,-4.8306,-4.8306,-4.8306,-4.8306,-4.8306,-4.8399,-4.951,-5.0645,-5.1769,-5.2229,-5.2981,-5.3856,-5.4154,-5.4888,-5.5703,0.0,0.0,0.0,0.0,0.0,0.0,0.0,0.0,0.0,0.0,-3.7873,0.0,0.0,0.0,0.0,0.0,0.0,0.0,0.0,-3.9353,-3.9496,-3.9147,-3.839,-3.7947,-3.7867,-3.8062,-3.8005,-3.7691,-3.7566,-3.7507,-3.7477,-3.6982,-3.7459,-3.8689,-3.8193,-3.8248,-3.8707,-3.8707,-3.8707,-3.8707,-3.8707,-3.8707,-3.8707,0.0,0.0,0.0,0.0,0.0,0.0,0.0,0.0,0.0,-3.6699,-3.7206,-3.8187,-3.8034,-3.856,-3.9338,-3.9982,-4.0593,0.0,-4.128,-4.1834,-4.2587,-4.3701,0.0,0.0,0.0,0.0,0.0,0.0,0.0,0.0,0.0,0.0,0.0,0.0,0.0,0.0,0.0,0.0,0.0,0.0,0.0,0.0,0.0,0.0,0.0,0.0,0.0,0.0,0.0,0.0,0.0,0.0,0.0,0.0,-4.7847,-4.8159,-4.8306,-4.8306,-4.8306,-4.8306,-4.8306,-4.8306,-4.8306,-4.8363,-4.9437,-5.0297,-5.1024,-5.1618,-5.2341,-5.3073,-5.3371,-5.3991,-5.4703,0.0,0.0,0.0,0.0,0.0,0.0,0.0,0.0,0.0,0.0,-3.78,-3.7732,0.0,0.0,0.0,0.0,0.0,0.0,0.0,0.0,-3.9064,-3.8226,-3.7904,-3.7728,-3.7617,-3.8248,-3.823,-3.7507,-3.7422,-3.7422,-3.7507,-3.7434,-3.7845,-3.8707,-3.8707,-3.867,-3.8597,-3.867,-3.867,-3.8597,-3.867,-3.8707,-3.8707,-3.8707,0.0,0.0,0.0,0.0,0.0,0.0,0.0,0.0,-3.6665,-3.6895,-3.7632,-3.8382,-3.9171,-4.0136,-4.165,0.0,0.0,-4.302,-4.2933,0.0,-4.4361,-4.6452,0.0,0.0,0.0,0.0,0.0,0.0,0.0,0.0,0.0,0.0,0.0,0.0,0.0,0.0,0.0,0.0,0.0,0.0,0.0,0.0,0.0,0.0,0.0,0.0,0.0,0.0,0.0,0.0,0.0,0.0,0.0,0.0,-4.781,-4.8196,-4.8196,-4.8269,-4.8306,-4.8306,-4.8306,-4.8344,-4.8421,-4.9171,-4.9504,-4.9617,-5.0399,-5.1183,-5.1914,-5.1914,-5.2452,-5.3203,0.0,0.0,0.0,0.0,0.0,0.0,0.0,0.0,0.0,0.0,0.0,0.0,0.0,0.0,0.0,0.0,0.0,0.0,0.0,0.0,-3.9008,-3.8832,-3.7995,-3.7831,-3.8432,-3.7991,-3.7661,-3.7507,-3.6853,-3.6872,-3.7477,-3.6835,-3.7312,-3.8707,-3.8707,-3.834,-3.779,-3.8432,-3.834,-3.7808,-3.845,-3.8707,-3.8707,-3.8707,-3.8707,0.0,0.0,0.0,0.0,0.0,0.0,0.0,-3.7507,-3.7339,-3.7526,-3.7711,-3.8334,-3.9179,-4.0157,-4.1203,0.0,0.0,-4.3387,-4.427,-4.4618,-4.5572,0.0,0.0,0.0,0.0,0.0,0.0,0.0,0.0,0.0,0.0,0.0,0.0,0.0,0.0,0.0,0.0,0.0,0.0,0.0,0.0,0.0,0.0,0.0,0.0,0.0,0.0,0.0,0.0,-4.5902,-4.6067,-4.6159,0.0,-4.6985,-4.737,-4.7388,-4.8012,-4.8306,-4.8306,-4.8306,-4.8477,-4.8813,-4.9295,-4.9692,-5.0019,-5.0504,-5.1183,-5.1914,-5.1914,-5.2452,-5.3203,0.0,0.0,0.0,0.0,0.0,0.0,0.0,0.0,0.0,0.0,0.0,0.0,0.0,0.0,0.0,0.0,0.0,0.0,0.0,0.0,0.0,-3.8851,-3.8345,-3.8267,-3.8689,-3.8285,-3.8065,-3.8065,-3.7257,-3.7074,-3.7477,-3.7055,-3.7533,-3.8689,-3.8303,-3.7881,-3.7507,-3.7533,-3.7312,-3.6945,-3.7386,-3.7551,-3.7551,-3.7551,-3.7551,-3.7606,-3.7991,0.0,0.0,0.0,0.0,0.0,0.0,0.0,-3.7497,-3.7514,-3.7796,-3.8542,-4.051,0.0,0.0,-4.2671,0.0,-4.4709,-4.4689,0.0,0.0,0.0,0.0,0.0,0.0,0.0,0.0,0.0,0.0,0.0,0.0,0.0,0.0,0.0,0.0,0.0,0.0,0.0,0.0,0.0,0.0,0.0,0.0,0.0,0.0,0.0,0.0,0.0,-4.4745,-4.5516,-4.5718,-4.5351,-4.6544,-4.6911,-4.6562,-4.737,-4.7535,-4.7168,-4.7775,-4.8153,-4.8404,-4.9363,-4.9924,-5.0135,-5.0544,-5.0952,-5.1337,-5.1337,-5.1606,-5.1991,0.0,0.0,0.0,0.0,0.0,0.0,0.0,0.0,0.0,0.0,0.0,0.0,0.0,0.0,0.0,0.0,0.0,0.0,0.0,0.0,0.0,-3.8707,-3.8707,-3.8707,-3.8707,-3.8707,-3.8707,-3.8707,-3.8028,-3.7698,-3.7698,-3.7551,-3.7918,-3.867,-3.7845,-3.7434,-3.7239,-3.6578,-3.6211,-3.6083,-3.6229,-3.6303,-3.6303,-3.6303,-3.6376,-3.6578,-3.711,-3.7397,-3.7581,-3.8285,0.0,0.0,0.0,0.0,-3.7066,-3.7055,-3.7165,-3.7918,-4.0873,0.0,-4.1662,-4.313,-4.4011,0.0,-4.4502,0.0,0.0,0.0,0.0,0.0,0.0,0.0,0.0,0.0,0.0,0.0,0.0,0.0,0.0,0.0,0.0,0.0,0.0,0.0,0.0,0.0,0.0,0.0,0.0,0.0,0.0,0.0,0.0,-4.4176,-4.3497,-4.4819,-4.5149,-4.4525,-4.5993,-4.6379,-4.5789,-4.647,-4.6488,-4.6046,-4.7036,-4.7513,-4.7679,-4.9079,-4.9654,-4.9716,-5.0256,-5.0471,-5.0491,-5.0625,-5.0702,-5.0702,0.0,0.0,0.0,0.0,0.0,0.0,0.0,0.0,0.0,0.0,0.0,0.0,0.0,0.0,0.0,0.0,0.0,0.0,-3.875,0.0,0.0,-3.8707,-3.8707,-3.8707,-3.8707,-3.8707,-3.8707,-3.8707,-3.8597,-3.8542,-3.8524,-3.7826,-3.7918,-3.867,-3.7845,-3.7092,-3.645,-3.634,-3.5862,-3.5229,-3.6009,-3.6303,-3.6303,-3.6303,-3.6725,-3.7257,-3.6666,-3.6897,-3.7526,-3.7607,-3.7209,0.0,0.0,0.0,0.0,-3.5349,-3.5881,-3.6853,0.0,0.0,-4.2359,0.0,-4.3571,-4.3644,0.0,0.0,0.0,0.0,0.0,0.0,0.0,0.0,0.0,0.0,0.0,0.0,0.0,0.0,0.0,0.0,0.0,0.0,0.0,0.0,0.0,0.0,0.0,0.0,0.0,0.0,-4.3975,-4.469,-4.4011,0.0,-4.3497,-4.3699,-4.3754,-4.3663,-4.458,-4.5139,-4.53,-4.5411,-4.5769,-4.6345,-4.6504,-4.6763,-4.7137,-4.7631,-4.7857,-4.7957,-4.9123,-4.9567,-4.9663,-5.0414,-5.0702,-5.0702,0.0,0.0,0.0,0.0,0.0,0.0,0.0,0.0,0.0,0.0,0.0,0.0,0.0,0.0,0.0,-3.8815,-3.8822,-3.8792,-3.8707,-3.8707,-3.8707,-3.8707,-3.8267,-3.8028,-3.8028,-3.8028,-3.8028,-3.8028,-3.8487,-3.8707,-3.8689,-3.834,-3.8358,-3.867,-3.7845,-3.7037,-3.6266,-3.5789,-3.5092,-3.4376,-3.4743,-3.5165,-3.5532,-3.5073,-3.5404,-3.6064,-3.5695,-3.5789,-3.6168,-3.6681,-3.657,-3.6205,-3.5744,0.0,0.0,0.0,-3.5275,-3.6138,-3.8689,-4.0487,-4.1937,0.0,-4.3497,-4.3497,0.0,0.0,0.0,0.0,0.0,0.0,0.0,0.0,0.0,0.0,0.0,0.0,0.0,0.0,0.0,0.0,0.0,0.0,0.0,0.0,0.0,0.0,0.0,0.0,0.0,-4.4121,-4.4121,-4.403,-4.4121,0.0,-4.3497,-4.3956,-4.4278,-4.4439,-4.4346,-4.4495,-4.4862,-4.4862,-4.5068,-4.5425,-4.6081,-4.6429,-4.6681,-4.7496,-4.7832,-4.793,-4.8991,-4.9394,-4.951,-5.0375,-5.0702,-5.0702,0.0,0.0,0.0,0.0,0.0,0.0,0.0,0.0,0.0,0.0,0.0,0.0,0.0,0.0,0.0,0.0,-3.8707,-3.8707,-3.8707,-3.8505,-3.8487,-3.8689,-3.7918,-3.7588,-3.779,-3.779,-3.779,-3.779,-3.8414,-3.8707,-3.8707,-3.8707,-3.8707,-3.867,-3.7845,-3.7165,-3.6523,-3.5477,-3.4642,-3.41,-3.41,-3.4614,-3.5293,-3.489,-3.5367,-3.6174,-3.556,-3.5441,-3.568,-3.591,-3.5827,-3.5588,-3.5147,-3.4844,0.0,0.0,0.0,0.0,0.0,0.0,-4.0859,-4.2475,-4.3041,-4.324,0.0,0.0,0.0,0.0,0.0,0.0,0.0,0.0,0.0,0.0,0.0,0.0,0.0,0.0,0.0,0.0,0.0,0.0,0.0,0.0,0.0,0.0,0.0,0.0,-4.3497,-4.4066,-4.4121,-4.3516,-4.4085,-4.4173,-4.3631,-4.4303,-4.4809,-4.5043,-4.4445,-4.4346,-4.4726,-4.4726,-4.4757,-4.4891,-4.5662,-4.6037,-4.6179,-4.7089,-4.7451,-4.7548,-4.8413,-4.8759,-4.8875,-4.9721,-5.0183,-5.0356,0.0,0.0,0.0,0.0,0.0,0.0,0.0,0.0,0.0,0.0,0.0,0.0,-3.8634,-3.867,-3.8707,-3.8707,-3.8707,-3.8707,-3.8707,-3.7973,-3.79,-3.867,-3.7918,0.0,-3.8615,-3.8634,-3.8634,-3.8634,-3.8689,-3.8707,-3.8707,-3.8707,-3.8707,-3.867,-3.7845,-3.7489,-3.7342,-3.5697,-3.4972,-3.4935,-3.4935,-3.5477,-3.6303,-3.7019,-3.8267,-3.9344,-3.7036,-3.6731,-3.711,-3.5595,-3.455,-3.4064,-3.4752,-3.4486,-3.3862,0.0,0.0,0.0,0.0,-3.7624,0.0,-4.0805,0.0,0.0,0.0,0.0,0.0,0.0,0.0,0.0,0.0,0.0,0.0,0.0,0.0,0.0,0.0,0.0,0.0,0.0,0.0,0.0,0.0,0.0,0.0,0.0,0.0,0.0,-4.3497,-4.3534,-4.3534,-4.3497,-4.3534,-4.3682,-4.3986,-4.4402,-4.461,-4.461,-4.4572,-4.4732,-4.5074,-4.5074,-4.5243,-4.5531,-4.526,-4.5339,-4.5626,-4.5701,-4.572,-4.5817,-4.6701,-4.7028,-4.7144,-4.7952,-4.8759,-4.9471,0.0,0.0,0.0,0.0,0.0,0.0,0.0,0.0,0.0,0.0,0.0,0.0,0.0,-3.8707,-3.8707,-3.8707,-3.8707,-3.8707,-3.8707,-3.8432,-3.8395,-3.8689,-3.7918,-3.7624,-3.7918,-3.7918,-3.7918,-3.7918,-3.845,-3.8707,-3.8707,-3.8707,-3.8707,-3.8689,-3.8395,-3.7973,-3.7422,-3.6303,-3.5514,-3.5045,-3.5624,-3.6321,-3.7037,-3.6817,0.0,0.0,0.0,0.0,0.0,-3.6637,-3.5713,-3.4633,-3.4899,-3.4789,-3.4578,-3.4578,0.0,0.0,0.0,0.0,0.0,-4.0068,-4.1324,0.0,0.0,0.0,0.0,0.0,0.0,0.0,0.0,0.0,0.0,0.0,0.0,0.0,0.0,0.0,0.0,0.0,0.0,0.0,0.0,0.0,0.0,0.0,0.0,0.0,-4.3804,-4.3836,-4.3943,-4.4213,-4.4213,-4.4252,-4.4373,-4.4527,-4.4726,-4.4919,-4.4919,-4.5096,-4.5419,-4.5419,-4.5495,-4.5586,-4.5457,-4.5495,-4.5586,-4.5586,-4.5586,-4.5682,-4.6567,-4.6913,-4.7067,-4.8432,-4.9125,-4.9471,0.0,0.0,0.0,0.0,0.0,0.0,0.0,0.0,0.0,-3.8707,0.0,0.0,0.0,0.0,-3.8707,-3.8707,-3.8707,-3.8707,-3.8707,-3.845,-3.8414,-3.8689,-3.7918,-3.7606,-3.79,-3.7624,-3.7624,-3.79,-3.8175,-3.8432,-3.8707,-3.8707,-3.856,-3.8303,-3.8303,-3.8138,-3.7826,0.0,0.0,-3.5899,0.0,0.0,-3.7507,0.0,0.0,0.0,0.0,0.0,0.0,0.0,0.0,0.0,-3.5936,-3.5661,-3.5385,0.0,0.0,0.0,-3.7606,0.0,0.0,0.0,0.0,0.0,0.0,0.0,0.0,0.0,0.0,0.0,0.0,0.0,0.0,0.0,0.0,0.0,0.0,0.0,0.0,0.0,0.0,0.0,0.0,0.0,0.0,0.0,0.0,0.0,-4.3986,-4.4016,-4.4175,-4.458,-4.4726,-4.4776,-4.4776,-4.4896,-4.5052,-4.5282,-4.5282,-4.5381,-4.5586,-4.5586,-4.5586,-4.5586,-4.5586,-4.5586,-4.5586,-4.5586,-4.5586,-4.5663,-4.624,-4.6471,-4.6605,-4.7702,-4.8317,-4.8644,0.0,0.0,0.0,0.0,0.0,0.0,0.0,0.0,-3.8707,-3.8707,0.0,0.0,0.0,0.0,0.0,-3.8707,-3.8707,-3.8707,-3.8707,-3.7955,-3.7863,-3.867,-3.7936,-3.79,-3.8689,-3.7918,-3.7918,-3.8707,-3.7918,-3.7918,-3.8707,-3.8707,-3.8267,-3.7507,-3.7507,-3.7918,-3.8524,0.0,-3.6725,-3.7489,0.0,-3.7562,-3.7716,0.0,0.0,0.0,-3.8781,-3.8762,0.0,-3.8799,0.0,0.0,0.0,0.0,0.0,0.0,0.0,0.0,0.0,0.0,0.0,0.0,0.0,0.0,0.0,0.0,0.0,0.0,0.0,0.0,0.0,0.0,0.0,0.0,0.0,0.0,0.0,0.0,0.0,0.0,0.0,0.0,0.0,0.0,0.0,0.0,0.0,-4.3646,-4.3986,-4.3998,-4.4204,-4.4606,-4.4943,-4.5118,-4.5118,-4.5438,-4.5586,-4.5586,-4.5586,-4.5586,-4.5586,-4.5586,-4.5586,-4.5586,-4.5586,-4.5586,-4.5586,-4.5586,-4.5586,-4.5586,-4.5586,-4.5586,-4.5586,-4.5624,-4.6163,-4.6913,0.0,0.0,0.0,0.0,0.0,0.0,-3.8707,-3.8707,-3.8707,0.0,0.0,0.0,-3.8707,-3.8707,-3.8707,-3.8707,-3.8707,-3.8707,-3.8707,-3.8487,-3.8469,-3.8689,-3.8487,-3.8469,-3.8707,-3.8487,-3.8487,-3.8707,-3.8487,-3.8487,-3.8707,-3.8707,-3.8267,-3.7507,-3.7507,-3.7294,-3.689,-3.5826,0.0,-3.6725,-3.79,-3.8707,0.0,0.0,0.0,0.0,0.0,-4.005,-3.9753,0.0,-3.9753,-3.7679,0.0,0.0,0.0,0.0,0.0,0.0,-3.7881,0.0,0.0,0.0,0.0,0.0,0.0,0.0,0.0,0.0,0.0,0.0,0.0,0.0,0.0,0.0,0.0,0.0,0.0,0.0,0.0,0.0,0.0,0.0,0.0,0.0,0.0,0.0,0.0,-4.3646,-4.3986,-4.4508,-4.4947,-4.5303,-4.5419,-4.5457,-4.5457,-4.5568,-4.5586,-4.5586,-4.5586,-4.5586,-4.5586,-4.5586,-4.5586,-4.5586,-4.5586,-4.5586,-4.5586,-4.5586,-4.5586,-4.5586,-4.5586,-4.5586,-4.5682,-4.6317,-4.6701,-4.699,0.0,0.0,0.0,0.0,0.0,-3.8707,-3.8707,-3.8707,-3.8707,0.0,0.0,0.0,-3.8707,-3.8707,-3.8707,-3.8707,-3.8707,-3.8707,-3.8707,-3.8707,-3.8707,-3.8707,-3.8707,-3.8707,-3.8707,-3.8377,-3.8358,-3.8707,-3.8358,-3.8377,-3.8707,-3.8707,-3.8267,-3.7477,0.0,0.0,0.0,0.0,0.0,0.0,-3.7808,0.0,0.0,-4.068,-4.1287,0.0,0.0,0.0,-4.0653,-4.2249,-4.1111,0.0,0.0,0.0,0.0,0.0,0.0,0.0,-3.8579,-3.8707,0.0,0.0,0.0,0.0,0.0,-3.9559,0.0,0.0,0.0,0.0,0.0,0.0,0.0,0.0,0.0,0.0,0.0,0.0,0.0,0.0,0.0,0.0,0.0,0.0,0.0,0.0,-4.3612,-4.3943,-4.4436,-4.5011,-4.54,-4.5586,-4.5586,-4.5586,-4.5586,-4.5586,-4.5586,-4.5586,-4.5586,-4.5586,-4.5586,-4.5586,-4.5586,-4.5586,-4.5586,-4.5586,-4.5586,-4.5586,-4.5586,-4.5586,-4.5586,-4.5586,-4.5663,-4.6163,-4.6355,-4.6413,0.0,0.0,0.0,-3.8707,-3.8707,-3.8707,-3.8707,-3.8707,-3.8707,0.0,-3.8707,-3.8707,-3.8707,-3.8615,-3.8597,-3.8689,-3.8615,-3.8597,-3.8689,-3.8707,-3.8707,-3.8707,-3.8707,-3.8707,-3.8707,-3.7991,-3.7973,-3.8707,-3.7973,-3.7991,-3.8707,-3.8707,-3.8267,-3.7441,0.0,0.0,0.0,0.0,0.0,-3.7477,-3.7386,-3.801,0.0,0.0,-4.0391,0.0,-4.0864,-4.1309,-4.1442,-4.2782,-4.2286,0.0,0.0,0.0,0.0,0.0,-3.7514,-3.8707,-3.8707,-3.8707,-3.8707,0.0,0.0,0.0,-3.9933,-3.9528,0.0,0.0,0.0,0.0,0.0,0.0,0.0,0.0,0.0,0.0,0.0,0.0,0.0,0.0,0.0,0.0,0.0,0.0,0.0,-4.3529,-4.3881,-4.4373,-4.5074,-4.5381,-4.5568,-4.5586,-4.5586,-4.5586,-4.5586,-4.5586,-4.5586,-4.5586,-4.5586,-4.5586,-4.5586,-4.5586,-4.5586,-4.5586,-4.5586,-4.5586,-4.5586,-4.5586,-4.5586,-4.5586,-4.5586,-4.5586,-4.5586,-4.5586,-4.5586,-4.5586,0.0,0.0,-3.8707,-3.8707,-3.8707,-3.8707,-3.8707,-3.8707,-3.8707,-3.8707,-3.8707,-3.8707,-3.8707,-3.812,-3.7991,-3.8652,-3.8102,-3.801,-3.867,-3.8707,-3.8707,-3.8707,-3.8707,-3.8707,-3.8707,-3.856,-3.8542,-3.8707,-3.8542,-3.856,-3.8707,-3.8707,-3.8267,-3.7441,-3.6652,0.0,0.0,0.0,0.0,-3.7452,-3.678,0.0,-4.073,-4.1705,-4.2289,-4.2598,-4.2926,-4.2598,-4.2011,0.0,-4.1368,-4.0836,0.0,0.0,0.0,0.0,0.0,0.0,0.0,0.0,0.0,0.0,0.0,0.0,-3.7248,-3.7495,-3.7716,0.0,0.0,0.0,0.0,0.0,0.0,0.0,0.0,0.0,0.0,0.0,0.0,0.0,0.0,0.0,0.0,0.0,-4.3612,-4.3881,-4.4261,-4.4657,-4.5074,-4.5161,-4.5322,-4.5586,-4.5586,-4.5586,-4.5586,-4.5586,-4.5586,-4.5586,-4.5586,-4.5586,-4.5586,-4.5586,-4.5586,-4.5586,-4.5586,-4.5586,-4.5586,-4.5586,-4.5586,-4.5586,-4.5586,-4.5586,-4.5586,-4.5586,-4.5586,-4.5586,-3.8707,-3.8707,-3.8707,-3.8707,-3.8707,-3.8707,-3.8707,-3.8707,-3.8707,-3.8707,-3.8707,-3.8707,-3.8707,-3.834,-3.8102,-3.8102,-3.7716,-3.7496,-3.7496,-3.7496,-3.7679,-3.8065,-3.8102,-3.8285,-3.8689,-3.8707,-3.8707,-3.8707,-3.8707,-3.8707,-3.8707,-3.8707,-3.8487,-3.8046,-3.6835,0.0,0.0,0.0,-3.4009,-3.6285,-3.6707,0.0,-4.1791,-4.2601,-4.3151,-4.3497,-4.3497,-4.3222,-4.2837,-4.2433,-4.1772,0.0,0.0,-3.9625,-3.9129,0.0,-3.867,-3.9203,0.0,0.0,0.0,-3.8707,0.0,0.0,0.0,-3.7776,0.0,0.0,0.0,0.0,0.0,0.0,0.0,0.0,0.0,0.0,0.0,0.0,0.0,0.0,0.0,0.0,0.0,0.0,-4.3726,-4.428,-4.4657,-4.5007,-4.5322,-4.5342,-4.5419,-4.5586,-4.5586,-4.5586,-4.5586,-4.5586,-4.5586,-4.5586,-4.5586,-4.5586,-4.5586,-4.5586,-4.5586,-4.5586,-4.5586,-4.5586,-4.5586,-4.5586,-4.5586,-4.5586,-4.5586,-4.5586,-4.5586,-4.5586,-4.5586,-4.5586,-3.8652,-3.8707,-3.8707,-3.8707,-3.8707,-3.8707,-3.8707,-3.8707,-3.8707,-3.8707,-3.8836,-3.8927,-3.8927,-3.8927,-3.8726,-3.823,-3.8046,-3.7679,-3.7037,-3.6853,-3.7037,-3.7698,-3.7599,-3.7863,-3.8689,-3.8707,-3.8707,-3.8707,-3.8542,-3.8469,-3.8469,-3.8303,-3.8248,-3.8193,-3.6872,-3.6211,0.0,0.0,0.0,-3.5816,0.0,-3.9184,-4.1479,-4.2436,-4.2876,-4.3075,-4.3387,-4.3497,-4.3461,-4.3314,0.0,-4.1295,-4.0983,-4.0634,0.0,0.0,0.0,0.0,0.0,0.0,0.0,0.0,0.0,-3.8028,0.0,0.0,0.0,0.0,0.0,0.0,0.0,0.0,0.0,0.0,0.0,0.0,0.0,0.0,0.0,0.0,0.0,0.0,0.0,0.0,-4.3701,-4.4553,-4.4767,-4.507,-4.5566,-4.5586,-4.5586,-4.5586,-4.5586,-4.5586,-4.5586,-4.5586,-4.5586,-4.5586,-4.5586,-4.5586,-4.5586,-4.5586,-4.5586,-4.5586,-4.5586,-4.5586,-4.5586,-4.5586,-4.5586,-4.5586,-4.5586,-4.5586,-4.5586,-4.5586,-4.5586,-4.5586,-3.8414,-3.8707,-3.8707,-3.8707,-3.8707,-3.8707,-3.8707,-3.8707,-3.8707,-3.8707,-3.9313,-3.9753,-3.9753,-3.9753,-4.001,-4.0653,-4.0047,0.0,-3.9496,0.0,-3.8469,-3.856,-3.7863,-3.7863,-3.8689,-3.8707,-3.8707,-3.8707,-3.7973,-3.7624,-3.7606,-3.6909,-3.656,-3.656,-3.6376,0.0,0.0,0.0,-3.6119,0.0,-3.8487,-3.8358,0.0,-3.9735,-4.0741,-4.157,-4.2983,-4.3497,-4.3387,0.0,-4.2304,-4.1919,0.0,-4.0946,-4.1589,0.0,0.0,0.0,0.0,0.0,0.0,0.0,-3.8634,0.0,0.0,0.0,0.0,0.0,0.0,0.0,0.0,0.0,0.0,0.0,0.0,0.0,0.0,0.0,0.0,0.0,0.0,0.0,0.0,0.0,0.0,-4.4497,-4.4258,-4.4498,-4.5547,-4.5586,-4.5586,-4.5586,-4.5586,-4.5586,-4.5586,-4.5586,-4.5586,-4.5586,-4.5586,-4.5586,-4.5586,-4.5586,-4.5586,-4.5586,-4.5586,-4.5586,-4.5586,-4.5586,-4.5586,-4.5586,-4.5586,-4.5586,-4.5586,-4.5586,-4.5586,-4.5586,-3.7165,-3.7312,-3.7441,-3.7918,-3.7991,-3.8157,-3.8634,-3.8707,-3.8707,-3.8707,-3.9001,-3.9203,0.0,0.0,0.0,0.0,0.0,-3.9295,0.0,0.0,-3.82,-3.8021,-3.7661,-3.7863,-3.8689,-3.8707,-3.8707,-3.8707,-3.7881,-3.7507,-3.7489,-3.667,-3.6541,-3.7011,-3.7211,0.0,-3.7147,0.0,-3.7654,0.0,0.0,0.0,0.0,-4.084,-4.2216,-4.258,-4.3259,-4.3497,-4.3442,0.0,-4.2378,0.0,0.0,0.0,0.0,0.0,0.0,0.0,0.0,0.0,0.0,0.0,0.0,0.0,-3.8389,0.0,-3.7533,0.0,0.0,0.0,0.0,0.0,0.0,0.0,0.0,0.0,0.0,0.0,0.0,0.0,0.0,0.0,0.0,0.0,0.0,0.0,0.0,-4.4899,-4.5566,-4.5586,-4.5586,-4.5586,-4.5586,-4.5586,-4.5586,-4.5586,-4.5586,-4.5586,-4.5586,-4.5586,-4.5586,-4.5586,-4.5586,-4.5586,-4.5586,-4.5586,-4.5586,-4.5586,-4.5586,-4.5586,-4.5586,-4.5586,-4.5586,-4.5586,-4.5586,-4.5586,-3.5605,-3.5973,-3.6541,-3.7379,0.0,-3.7753,-3.8579,0.0,0.0,0.0,0.0,0.0,-3.9331,-3.986,0.0,0.0,-4.0959,-4.0656,0.0,0.0,-3.8707,0.0,0.0,0.0,0.0,-3.886,-3.8707,-3.8707,-3.7881,-3.7507,-3.7489,-3.6431,-3.6266,-3.6846,0.0,-3.7553,-3.8217,0.0,0.0,-3.8803,-3.9396,-3.9507,-3.9552,-4.1926,-4.3128,-4.3497,-4.3497,-4.3497,-4.3461,-4.324,-4.2396,0.0,-4.2543,0.0,0.0,0.0,0.0,0.0,-3.9326,0.0,0.0,0.0,0.0,0.0,0.0,0.0,0.0,0.0,0.0,0.0,0.0,0.0,0.0,0.0,0.0,0.0,0.0,0.0,0.0,0.0,0.0,0.0,0.0,0.0,0.0,0.0,-4.4604,0.0,-4.5549,-4.5586,-4.5586,-4.5586,-4.5586,-4.5586,-4.5586,-4.5586,-4.5586,-4.5586,-4.5586,-4.5586,-4.5586,-4.5586,-4.5586,-4.5586,-4.5586,-4.5586,-4.5586,-4.5586,-4.5586,-4.5586,-4.5586,-4.5586,-4.5586,-4.5586,-4.5586,-4.5586,-3.388,-3.5183,-3.6541,0.0,0.0,0.0,0.0,0.0,0.0,0.0,0.0,0.0,0.0,0.0,0.0,0.0,0.0,-4.5266,-4.4442,0.0,-4.0798,0.0,0.0,-3.8383,0.0,0.0,-3.8707,-3.8707,-3.7881,-3.7507,-3.7441,-3.5826,-3.5045,-3.5064,-3.5092,-3.5742,-3.6926,-3.7685,-3.9546,-4.1963,-4.1982,-4.2712,-4.3583,0.0,-4.2151,-4.3497,-4.3497,0.0,0.0,-4.2598,-4.2304,0.0,0.0,0.0,0.0,0.0,0.0,0.0,0.0,0.0,0.0,-3.8964,0.0,0.0,0.0,0.0,-3.867,0.0,0.0,0.0,0.0,0.0,-3.8377,-3.7606,-3.7514,0.0,0.0,0.0,0.0,0.0,0.0,0.0,0.0,0.0,0.0,0.0,-4.3366,0.0,-4.551,-4.5586,-4.5586,-4.5586,-4.5586,-4.5586,-4.5586,-4.5586,-4.5586,-4.5586,-4.5586,-4.5586,-4.5586,-4.5586,-4.5586,-4.5586,-4.5586,-4.5586,-4.5586,-4.5586,-4.5586,-4.5586,-4.5586,-4.5586,-4.5586,-4.5586,-4.5586,-4.5586,-3.4504,-3.4633,-3.4908,0.0,0.0,0.0,0.0,-3.8358,0.0,0.0,0.0,0.0,0.0,-4.5218,-4.5719,0.0,0.0,-4.5232,-4.4947,-4.2786,0.0,0.0,0.0,-3.8984,0.0,0.0,-3.8822,-3.8707,-3.7881,-3.7507,-3.7441,-3.5789,-3.533,-3.5862,0.0,-3.7322,0.0,0.0,0.0,0.0,0.0,-4.3095,-4.3371,0.0,0.0,-4.3497,-4.3497,-4.3646,0.0,-4.3521,-4.3204,-4.3007,-4.3325,-4.2838,-4.2202,-4.2482,-4.246,0.0,0.0,0.0,-4.1916,-4.0254,0.0,0.0,0.0,0.0,0.0,0.0,0.0,0.0,0.0,0.0,-3.8615,-3.834,-3.8285,-3.7826,0.0,0.0,0.0,0.0,0.0,0.0,0.0,0.0,0.0,-4.2999,-4.3945,-4.4834,0.0,-4.5586,-4.5586,-4.5586,-4.5586,-4.5586,-4.5586,-4.5586,-4.5586,-4.5586,-4.5586,-4.5586,-4.5586,-4.5586,-4.5586,-4.5586,-4.5586,-4.5586,-4.5586,-4.5586,-4.5586,-4.5586,-4.5586,-4.5586,-4.5586,-4.5586,-4.5586,-4.5586,-3.4954,0.0,0.0,0.0,0.0,0.0,0.0,0.0,0.0,0.0,-4.354,0.0,-4.6932,0.0,-4.7286,0.0,-4.7212,-4.6395,-4.5781,-4.4135,0.0,-4.2578,-4.0971,0.0,0.0,0.0,0.0,-3.9316,-3.8464,-3.7989,-3.7881,-3.6248,-3.5771,-3.6295,0.0,-3.7399,-4.0202,0.0,-4.2356,0.0,0.0,-4.3881,0.0,0.0,-4.3669,0.0,0.0,-4.4035,-4.4204,-4.4204,-4.3998,-4.3869,-4.4436,-4.3869,-4.3077,-4.3605,-4.3472,-4.3052,-4.2654,-4.3005,0.0,0.0,-4.1394,0.0,-3.9682,0.0,0.0,0.0,0.0,0.0,0.0,0.0,-3.8799,-3.9074,-3.8652,-3.7808,0.0,-3.6541,0.0,0.0,0.0,0.0,0.0,0.0,-4.1995,-4.3178,-4.3824,-4.4592,0.0,0.0,-4.5586,-4.5586,-4.5586,-4.5586,-4.5586,-4.5586,-4.5586,-4.5586,-4.5586,-4.5586,-4.5586,-4.5586,-4.5586,-4.5586,-4.5586,-4.5586,-4.5586,-4.5586,-4.5586,-4.5586,-4.5586,-4.5586,-4.5586,-4.5586,-4.5586,-4.5586,0.0,0.0,0.0,0.0,-3.6927,0.0,0.0,0.0,-4.2081,0.0,-4.4847,-4.6455,-4.7363,-4.84,-4.9041,-4.9033,-4.9255,0.0,-4.7144,-4.582,0.0,0.0,-4.2933,-4.2659,-4.384,0.0,0.0,0.0,-3.9472,-3.8873,-3.8615,-3.7019,-3.6266,-3.6156,-3.4523,0.0,-3.9656,-3.9694,-4.1988,-4.5566,-4.5259,-4.5093,-4.5023,-4.4746,0.0,-4.3273,-4.4252,-4.4606,-4.4606,-4.4606,-4.465,-4.4631,-4.4631,-4.4631,-4.4631,-4.4631,-4.4872,-4.4862,-4.3729,-4.3684,-4.3704,-4.2479,0.0,0.0,0.0,0.0,-4.0476,0.0,0.0,0.0,0.0,0.0,0.0,-3.9717,-3.8505,-3.7239,-3.6523,0.0,0.0,0.0,0.0,0.0,0.0,-3.9639,-4.0471,-4.3497,-4.2981,-4.3426,0.0,0.0,0.0,-4.5586,-4.5586,-4.5586,-4.5586,-4.5586,-4.5586,-4.5586,-4.5586,-4.5586,-4.5586,-4.5586,-4.5586,-4.5586,-4.5586,-4.5586,-4.5586,-4.5586,-4.5586,-4.5586,-4.5586,-4.5586,-4.5586,-4.5586,-4.5586,-4.5586,-3.6009,-3.6615,-3.6982,0.0,-3.6468,-3.6798,0.0,0.0,0.0,0.0,-4.7859,-4.9992,-5.2337,-5.1713,-5.1141,-5.112,-5.0067,0.0,0.0,0.0,0.0,-4.5757,-4.3561,-4.2663,-4.345,-4.1901,0.0,-4.0393,0.0,-3.8637,-3.7771,-3.6762,-3.5954,-3.5284,0.0,0.0,-3.8858,-3.9444,-4.1988,-4.5586,-4.5509,-4.5053,0.0,0.0,-4.4748,-4.3971,-4.4448,-4.4757,-4.4966,-4.4966,-4.514,-4.5342,-4.5342,-4.5342,-4.5342,-4.5342,-4.54,-4.54,-4.5074,-4.5074,-4.4882,-4.3723,-4.3431,-4.3137,0.0,0.0,0.0,0.0,0.0,0.0,0.0,0.0,0.0,-3.9118,-3.8157,-3.7624,0.0,0.0,0.0,-3.8533,0.0,0.0,0.0,-3.9958,-4.1321,-4.1302,-4.2331,0.0,0.0,0.0,0.0,-4.5547,-4.5586,-4.5586,-4.5586,-4.5586,-4.5586,-4.5586,-4.5586,-4.5586,-4.5586,-4.5586,-4.5586,-4.5586,-4.5586,-4.5586,-4.5586,-4.5586,-4.5586,-4.5586,-4.5586,-4.5586,-4.5586,-4.5586,-4.5586,-4.5586,-3.6358,0.0,0.0,-3.7367,0.0,0.0,-3.8738,0.0,0.0,-4.6252,-4.84,0.0,-5.1883,-5.1949,-5.176,-5.1414,-5.051,0.0,-4.8375,0.0,0.0,-4.5456,-4.4383,-4.3978,-4.4312,-4.3134,0.0,-4.0766,0.0,0.0,-3.7034,-3.613,-3.5477,-3.4954,0.0,-3.528,-3.7886,-4.0103,-4.2565,-4.5047,-4.5451,0.0,0.0,-4.5395,-4.528,-4.4843,-4.4968,-4.5161,-4.5322,-4.5322,-4.5438,-4.5586,-4.5586,-4.5586,-4.5586,-4.5586,-4.5586,-4.5586,-4.5586,-4.5586,-4.5453,-4.4806,-4.4633,-4.4326,-4.3156,-4.2898,-4.2898,0.0,0.0,0.0,0.0,0.0,0.0,-3.9021,-3.8464,0.0,0.0,0.0,0.0,0.0,0.0,0.0,0.0,0.0,0.0,0.0,0.0,0.0,0.0,0.0,0.0,0.0,-4.522,-4.5586,-4.5586,-4.5586,-4.5586,-4.5586,-4.5586,-4.5586,-4.5586,-4.5586,-4.5586,-4.5586,-4.5586,-4.5586,-4.5586,-4.5586,-4.5586,-4.5586,-4.5586,-4.5586,-4.5586,-4.5586,-4.5586,-4.5586,-3.6725,0.0,0.0,0.0,0.0,0.0,0.0,-4.1948,0.0,-4.614,0.0,-4.9296,-4.9296,-5.0753,-5.1471,-5.076,0.0,-4.9702,-4.7375,-4.7778,-4.7067,-4.4739,-4.5259,-4.5586,-4.5586,-4.4688,0.0,0.0,0.0,-3.8421,-3.6332,-3.5414,-3.4935,-3.4807,0.0,0.0,0.0,-4.1028,-4.3292,0.0,-4.5297,-4.5586,-4.5586,-4.5586,-4.5586,-4.5586,-4.5586,-4.5586,-4.5586,-4.5586,-4.5586,-4.5586,-4.5586,-4.5586,-4.5586,-4.5586,-4.5586,-4.5586,-4.5586,-4.5586,-4.5586,-4.5586,-4.5586,-4.5339,-4.4345,-4.4132,-4.4132,-4.4132,-4.3273,0.0,0.0,0.0,0.0,0.0,0.0,0.0,0.0,0.0,0.0,0.0,0.0,0.0,0.0,0.0,0.0,0.0,0.0,0.0,0.0,0.0,0.0,0.0,-4.4836,0.0,-4.5586,0.0,-4.5586,-4.5586,-4.5586,-4.5586,-4.5586,-4.5586,-4.5586,-4.5586,-4.5586,-4.5586,-4.5586,-4.5586,-4.5586,-4.5586,-4.5586,-4.5586,-4.5586,-4.5586,-4.5586,-4.5586,0.0,0.0,0.0,0.0,0.0,-4.2061,-4.3705,-4.6068,-4.8062,-4.9296,-5.0572,-5.1373,-5.1373,-5.1105,-5.0837,-5.0702,-5.0702,0.0,0.0,0.0,0.0,-4.649,-4.5893,-4.5586,-4.5586,-4.4722,-4.3273,0.0,-4.0167,-3.8239,-3.5499,-3.5156,-3.4669,-3.4009,0.0,0.0,-3.9309,-4.1113,0.0,-4.5374,-4.5528,-4.5586,-4.5586,-4.5586,-4.5586,-4.5586,-4.5586,-4.5586,-4.5586,-4.5586,-4.5586,-4.5586,-4.5586,-4.5586,-4.5586,-4.5586,-4.5586,-4.5586,-4.5586,-4.5586,-4.5586,-4.5586,-4.5586,-4.5547,-4.5358,-4.5302,-4.5302,-4.5302,-4.513,-4.4825,-4.4206,0.0,0.0,0.0,0.0,0.0,0.0,0.0,0.0,0.0,0.0,0.0,0.0,0.0,0.0,0.0,0.0,0.0,0.0,0.0,0.0,0.0,0.0,0.0,0.0,0.0,0.0,-4.5586,-4.5586,-4.5586,-4.5586,-4.5586,-4.5586,-4.5586,-4.5586,-4.5586,-4.5586,-4.5586,-4.5586,-4.5586,-4.5586,-4.5586,-4.5586,-4.5586,-4.5586,-4.5586,0.0,0.0,0.0,0.0,0.0,0.0,0.0,-4.8548,0.0,-4.8965,-4.9379,-4.9733,-4.9733,-5.0316,-5.051,-5.0067,-5.0029,-4.9471,-4.8182,-4.7721,-4.7105,-4.6259,-4.5817,0.0,-4.5586,-4.5182,-4.3595,-4.0807,-4.0049,-3.806,-3.4875,-3.4544,-3.4174,-3.3825,0.0,-3.6386,0.0,0.0,0.0,-4.497,-4.5413,-4.5586,-4.5586,-4.5586,-4.5586,-4.5586,-4.5586,-4.5586,-4.5586,-4.5586,-4.5586,-4.5586,-4.5586,-4.5586,-4.5586,-4.5586,-4.5586,-4.5586,-4.5586,-4.5586,-4.5586,-4.5586,-4.5586,-4.5586,-4.5586,-4.5586,-4.5586,-4.5586,-4.5586,-4.5281,-4.425,-4.3212,0.0,0.0,0.0,0.0,0.0,0.0,0.0,0.0,0.0,0.0,0.0,0.0,0.0,0.0,0.0,0.0,0.0,0.0,0.0,0.0,0.0,0.0,0.0,0.0,0.0,-4.5586,-4.5586,-4.5586,-4.5586,-4.5586,-4.5586,-4.5586,-4.5586,-4.5586,-4.5586,-4.5586,-4.5586,-4.5586,-4.5586,-4.5586,-4.5586,-4.5586,-4.5586,-4.5586,0.0,-3.9338,0.0,0.0,-4.3995,0.0,0.0,-4.9812,-5.0181,-4.8766,-4.8439,-4.8343,-4.8343,-4.9584,-5.0144,-4.9452,-4.9221,-4.849,-4.7009,-4.6913,-4.6509,-4.5624,-4.5586,-4.5586,-4.5586,-4.5586,-4.407,0.0,-4.0155,-3.8134,0.0,-3.4278,0.0,0.0,0.0,0.0,0.0,0.0,-4.2813,-4.4643,-4.5316,-4.5586,-4.5586,-4.5586,-4.5586,-4.5586,-4.5586,-4.5586,-4.5586,-4.5586,-4.5586,-4.5586,-4.5586,-4.5586,-4.5586,-4.5586,-4.5586,-4.5586,-4.5586,-4.5586,-4.5586,-4.5586,-4.5586,-4.5586,-4.5586,-4.5586,-4.5586,-4.5586,-4.5586,-4.5318,-4.4382,-4.3807,0.0,0.0,0.0,0.0,0.0,0.0,0.0,0.0,0.0,0.0,0.0,0.0,0.0,0.0,0.0,0.0,0.0,0.0,0.0,0.0,0.0,0.0,-4.5316,0.0,-4.5586,0.0,-4.5586,-4.5586,-4.5586,-4.5586,-4.5586,-4.5586,-4.5586,-4.5586,-4.5586,-4.5586,-4.5586,-4.5586,-4.5586,-4.5586,-4.5586,-4.5586,-4.5586,-4.5586,0.0,0.0,0.0,0.0,0.0,0.0,0.0,-4.9447,-5.0894,-5.1431,-5.0875,-5.0433,-5.0433,-4.9894,-4.949,-4.9413,-4.8682,-4.7855,-4.6971,-4.6913,-4.6509,-4.5624,-4.5586,-4.5586,-4.5586,-4.5586,-4.4628,0.0,0.0,-3.8888,-3.681,-3.5123,0.0,0.0,0.0,0.0,0.0,-4.2315,-4.3824,-4.549,-4.5566,-4.5586,-4.5586,-4.5586,-4.5586,-4.5586,-4.5586,-4.5586,-4.5586,-4.5586,-4.5586,-4.5586,-4.5586,-4.5586,-4.5586,-4.5586,-4.5586,-4.5586,-4.5586,-4.5586,-4.5586,-4.5586,-4.5586,-4.5586,-4.5586,-4.5586,-4.5586,-4.5586,-4.5586,-4.5336,-4.4451,-4.4874,-4.5068,0.0,0.0,0.0,0.0,0.0,0.0,0.0,0.0,0.0,0.0,0.0,0.0,0.0,0.0,0.0,0.0,0.0,0.0,0.0,0.0,-4.4412,-4.4412,-4.5201,0.0,-4.5586,-4.5586,-4.5586,-4.5586,-4.5586,-4.5586,-4.5586,-4.5586,-4.5586,-4.5586,-4.5586,-4.5586,-4.5586,-4.5586,-4.5586,-4.5586,-4.5586,-4.5586,-4.5586,0.0,0.0,0.0,0.0,0.0,0.0,0.0,-5.0182,-5.0818,-5.1144,-5.0894,-5.0491,-4.9971,-4.9606,-4.899,-4.799,-4.7586,-4.7028,-4.6182,-4.6124,-4.5951,-4.5605,-4.5586,-4.5586,-4.5586,-4.5586,-4.4741,0.0,0.0,-3.9661,-3.7375,-3.6489,0.0,0.0,0.0,-4.0807,-4.2483,-4.3363,-4.4472,-4.5586,-4.5586,-4.5586,-4.5586,-4.5586,-4.5586,-4.5586,-4.5586,-4.5586,-4.5586,-4.5586,-4.5586,-4.5586,-4.5586,-4.5586,-4.5586,-4.5586,-4.5586,-4.5586,-4.5586,-4.5586,-4.5586,-4.5586,-4.5586,-4.5586,-4.5586,-4.5586,-4.5586,-4.5586,-4.5586,-4.549,-4.5143,-4.4932,-4.4874,0.0,0.0,0.0,0.0,0.0,0.0,0.0,0.0,0.0,0.0,0.0,0.0,0.0,0.0,0.0,0.0,0.0,0.0,-4.4259,0.0,-4.5066,-4.5066,-4.5432,-4.5586,-4.5586,-4.5586,-4.5586,-4.5586,-4.5586,-4.5586,-4.5586,-4.5586,-4.5586,-4.5586,-4.5586,-4.5586,-4.5586,-4.5586,-4.5586,-4.5586,-4.5586,-4.5586,-4.5586,-4.5274,0.0,-4.6076,0.0,-4.8597,-4.906,-5.0471,-5.0702,-5.0606,-5.0337,-5.0317,-5.0067,-4.9471,-4.8952,-4.8182,-4.7009,-4.6682,-4.6259,-4.5624,-4.5586,-4.5586,-4.5586,-4.5586,0.0,-4.5586,-4.5586,-4.5009,-4.3835,-4.2506,0.0,0.0,0.0,0.0,0.0,-4.1246,-4.2485,-4.3508,-4.4335,-4.5028,-4.5586,-4.5586,-4.5586,-4.5586,-4.5586,-4.5586,-4.5586,-4.5586,-4.5586,-4.5586,-4.5586,-4.5586,-4.5586,-4.5586,-4.5586,-4.5586,-4.5586,-4.5586,-4.5586,-4.5586,-4.5586,-4.5586,-4.5586,-4.5586,-4.5586,-4.5586,-4.5586,-4.5586,-4.5586,-4.5586,-4.5586,-4.5586,-4.5086,-4.4874,0.0,0.0,0.0,0.0,0.0,0.0,0.0,-4.4162,-4.3451,-4.3451,0.0,0.0,0.0,0.0,0.0,0.0,0.0,0.0,0.0,0.0,0.0,0.0,0.0,-4.5586,-4.5586,-4.5586,-4.5586,-4.5586,-4.5586,-4.5586,-4.5586,-4.5586,-4.5586,-4.5586,-4.5586,-4.5586,-4.5586,-4.5586,-4.5586,-4.5586,-4.5586,-4.5586,-4.5586,-4.661,-4.7068,-4.7808,-5.0238,-5.0664,-5.0664,-5.0702,-5.0702,-5.0375,-4.9529,-4.9413,-4.9413,-4.9394,-4.7913,-4.6932,-4.6913,-4.6105,-4.5605,-4.5586,-4.5586,-4.5586,0.0,0.0,-4.5586,-4.5586,-4.5586,-4.5586,-4.5566,0.0,0.0,-4.2603,0.0,-4.0634,-4.1698,-4.2667,-4.3528,-4.4335,-4.5201,-4.5586,-4.5586,-4.5586,-4.5586,-4.5586,-4.5586,-4.5586,-4.5586,-4.5586,-4.5586,-4.5586,-4.5586,-4.5586,-4.5586,-4.5586,-4.5586,-4.5586,-4.5586,-4.5586,-4.5586,-4.5586,-4.5586,-4.5586,-4.5586,-4.5586,-4.5586,-4.5586,-4.5586,-4.5586,-4.5586,-4.5586,-4.5586,-4.5586,-4.5586,-4.5586,-4.5586,0.0,0.0,0.0,0.0,0.0,0.0,-4.4297,-4.4297,-4.4297,0.0,0.0,0.0,0.0,0.0,0.0,0.0,0.0,-4.4297,-4.4316,0.0,-4.4316,-4.5163,-4.5586,-4.5586,-4.5586,-4.5586,-4.5586,-4.5586,-4.5586,-4.5586,-4.5586,-4.5586,-4.5586,-4.5586,-4.5586,-4.5586,-4.5586,-4.5586,-4.5586,-4.5586,-4.5586,-4.5586,-4.8475,-4.8496,-4.8514,-4.9274,-4.964,-4.9798,-4.9798,-4.9798,-4.9702,-4.9433,-4.8413,-4.7702,-4.7702,-4.7221,-4.6663,0.0,-4.5759,-4.5586,0.0,-4.5586,-4.5586,-4.5586,-4.5586,-4.5586,-4.5586,-4.5586,-4.5586,-4.5586,0.0,0.0,0.0,-4.2405,-4.2614,-4.3513,-4.4412,-4.4951,-4.5201,-4.547,-4.5586,-4.5586,-4.5586,-4.5586,-4.5586,-4.5586,-4.5586,-4.5586,-4.5586,-4.5586,-4.5586,-4.5586,-4.5586,-4.5586,-4.5586,-4.5586,-4.5586,-4.5586,-4.5586,-4.5586,-4.5586,-4.5586,-4.5586,-4.5586,-4.5586,-4.5586,-4.5586,-4.5586,-4.5586,-4.5586,-4.5586,-4.5586,-4.5586,-4.5586,-4.5586,-4.5586,0.0,0.0,0.0,0.0,0.0,0.0,0.0,-4.5182,0.0,-4.5182,0.0,0.0,0.0,0.0,0.0,0.0,0.0,0.0,-4.4874,0.0,-4.5182,-4.5451,-4.5586,-4.5586,-4.5586,-4.5586,-4.5586,-4.5586,-4.5586,-4.5586,-4.5586,-4.5586,-4.5586,-4.5586,-4.5586,-4.5586,-4.5586,-4.5586,-4.5586,-4.5586,-4.5586,-4.5586,-4.872,-4.8947,-4.9005,-4.8824,-4.9405,-4.9663,-4.9009,-4.9183,-4.9163,-4.8548,-4.7548,-4.6778,-4.6451,-4.6413,0.0,-4.5643,-4.5586,0.0,-4.5586,-4.5586,-4.5586,-4.5586,-4.5586,-4.5586,-4.5586,0.0,0.0,-4.5586,-4.5047,-4.4528,-4.4028,-4.4028,-4.4316,-4.4797,-4.5355,-4.5586,-4.5586,-4.5586,-4.5586,-4.5586,-4.5586,-4.5586,-4.5586,-4.5586,-4.5586,-4.5586,-4.5586,-4.5586,-4.5586,-4.5586,-4.5586,-4.5586,-4.5586,-4.5586,-4.5586,-4.5586,-4.5586,-4.5586,-4.5586,-4.5586,-4.5586,-4.5586,-4.5586,-4.5586,-4.5586,-4.5586,-4.5586,-4.5586,-4.5586,-4.5586,-4.5586,-4.5586,-4.5586,-4.5586,0.0,0.0,0.0,0.0,0.0,0.0,0.0,0.0,0.0,-4.5105,0.0,0.0,0.0,0.0,0.0,0.0,0.0,-4.4797,-4.5316,0.0,-4.5586,-4.5586,-4.5586,-4.5586,-4.5586,-4.5586,-4.5586,-4.5586,-4.5586,-4.5586,-4.5586,-4.5586,-4.5586,-4.5586,-4.5586,-4.5586,-4.5586,-4.5586,-4.5586,-4.5586,-4.5586,-4.5586,-4.7478,-4.8471,0.0,0.0,-4.9712,0.0,-4.8355,-4.8798,-4.8721,-4.7105,-4.6855,-4.6509,-4.5682,-4.5586,-4.5586,-4.5586,0.0,0.0,0.0,-4.5586,-4.5586,-4.5586,-4.5586,0.0,-4.5586,-4.5586,-4.5586,-4.5586,-4.5586,-4.5586,-4.5586,-4.5586,-4.5586,-4.5586,-4.5586,-4.5586,-4.5586,-4.5586,-4.5586,-4.5586,-4.5586,-4.5586,-4.5586,-4.5586,-4.5586,-4.5586,-4.5586,-4.5586,-4.5586,-4.5586,-4.5586,-4.5586,-4.5586,-4.5586,-4.5586,-4.5586,-4.5586,-4.5586,-4.5586,-4.5586,-4.5586,-4.5586,-4.5586,-4.5586,-4.5586,-4.5586,-4.5586,-4.5586,-4.5586,-4.5586,-4.5586,-4.5586,-4.5586,-4.5586,-4.5586,-4.5586,-4.5586,0.0,0.0,0.0,0.0,0.0,0.0,-4.4393,-4.4682,0.0,0.0,0.0,0.0,0.0,0.0,-4.5566,-4.5586,-4.5586,-4.5586,-4.5586,-4.5586,-4.5586,-4.5586,-4.5586,-4.5586,-4.5586,-4.5586,-4.5586,-4.5586,-4.5586,-4.5586,-4.5586,-4.5586,-4.5586,-4.5586,-4.5586,-4.5586,-4.5586,-4.5586,-4.5586,0.0,0.0,-4.6825,-4.7348,-4.8124,-4.8586,-4.8163,-4.8279,-4.8048,-4.7028,-4.6317,-4.5817,-4.5605,-4.5586,-4.5586,-4.5586,-4.5586,-4.5586,-4.5586,-4.5586,-4.5586,-4.5586,-4.5586,-4.5586,-4.5586,-4.5586,-4.5586,-4.5586,-4.5586,-4.5586,-4.5586,-4.5586,-4.5586,-4.5586,-4.5586,-4.5586,-4.5586,-4.5586,-4.5586,-4.5586,-4.5586,-4.5586,-4.5586,-4.5586,-4.5586,-4.5586,-4.5586,-4.5586,-4.5586,-4.5586,-4.5586,-4.5586,-4.5586,-4.5586,-4.5586,-4.5586,-4.5586,-4.5586,-4.5586,-4.5586,-4.5586,-4.5586,-4.5586,-4.5586,-4.5586,-4.5586,-4.5586,-4.5586,-4.5586,-4.5586,-4.5586,-4.5586,-4.5586,-4.5586,-4.5586,-4.5586,-4.5586,0.0,0.0,0.0,-4.5278,-4.5278,-4.5278,-4.5278,-4.4855,0.0,0.0,0.0,0.0,0.0,-4.4701,-4.5566,-4.5586,-4.5586,-4.5586,-4.5586,-4.5586,-4.5586,-4.5586,-4.5586,-4.5586,-4.5586,-4.5586,-4.5586,-4.5586,-4.5586,-4.5586,-4.5586,-4.5586,-4.5586,-4.5586,-4.5586,-4.5586,-4.5586,-4.5586,-4.5586,-4.5278,-4.6048,-4.673,-4.6967,-4.7791,-4.8218,-4.7645,-4.7548,-4.7259,-4.6413,-4.5893,-4.5586,-4.5586,-4.5586,-4.5586,-4.5586,-4.5586,-4.5586,-4.5586,-4.5586,-4.5586,-4.5586,-4.5586,-4.5586,-4.5586,-4.5586,-4.5586,-4.5586,-4.5586,-4.5586,-4.5586,-4.5586,-4.5586,-4.5586,-4.5586,-4.5586,-4.5586,-4.5586,-4.5586,-4.5586,-4.5586,-4.5586,-4.5586,-4.5586,-4.5586,-4.5586,-4.5586,-4.5586,-4.5586,-4.5586,-4.5586,-4.5586,-4.5586,-4.5586,-4.5586,-4.5586,-4.5586,-4.5586,-4.5586,-4.5586,-4.5586,-4.5586,-4.5586,-4.5586,-4.5586,-4.5586,-4.5586,-4.5586,-4.5586,-4.5586,-4.5586,-4.5586,-4.5586,-4.5586,-4.5259,-4.5143,-4.5528,-4.5259,0.0,-4.5547,-4.5586,-4.5586,-4.5586,-4.5586,-4.522,-4.4316,0.0,0.0,-4.4259,-4.4662,-4.5105,-4.5586,-4.5586,-4.5586,-4.5586,-4.5586,-4.5586,-4.5586,-4.5586,-4.5586,-4.5586,-4.5586,-4.5586,-4.5586,-4.5586,-4.5586,-4.5586,-4.5586,-4.5586,-4.5586,-4.5586,-4.5586,-4.5586,-4.5586,-4.5586,-4.5586,-4.4525,-4.603,-4.7217,-4.6883,-4.7815,-4.822,-4.7088,-4.6913,-4.6586,-4.5701,-4.5586,-4.5586,-4.5586,-4.5586,-4.5586,-4.5586,-4.5586,-4.5586,-4.5586,-4.5586,-4.5586,-4.5586,-4.5586,-4.5586,-4.5586,-4.5586,-4.5586,-4.5586,-4.5586,-4.5586,-4.5586,-4.5586,-4.5586,-4.5586,-4.5586,-4.5586,-4.5586,-4.5586,-4.5586,-4.5586,-4.5586,-4.5586,-4.5586,-4.5586,-4.5586,-4.5586,-4.5586,-4.5586,-4.5586,-4.5586,-4.5586,-4.5586,-4.5586,-4.5586,-4.5586,-4.5586,-4.5586,-4.5586,-4.5586,-4.5586,-4.5586,-4.5586,-4.5586,-4.5586,-4.5586,-4.5586,-4.5586,-4.5586,-4.5586,-4.5586,-4.5586,-4.5586,-4.5547,-4.5432,-4.4893,-4.4701,-4.5316,0.0,-4.4759,-4.5509,-4.5586,-4.5586,-4.5586,-4.5586,-4.5586,-4.5586,-4.5586,0.0,0.0,-4.5586,-4.5586,-4.5586,-4.5586,-4.5586,-4.5586,-4.5586,-4.5586,-4.5586,-4.5586,-4.5586,-4.5586,-4.5586,-4.5586,-4.5586,-4.5586,-4.5586,-4.5586,-4.5586,-4.5586,-4.5586,-4.5586,-4.5586,-4.5586,-4.5586,-4.5586,-4.5586,-4.3681,-4.4716,-4.5667,-4.594,-4.6941,-4.751,-4.6973,-4.6913,-4.6586,-4.5701,-4.5586,-4.5586,-4.5586,-4.5586,-4.5586,-4.5586,-4.5586,-4.5586,-4.5586,-4.5586,-4.5586,-4.5586,-4.5586,-4.5586,-4.5586,-4.5586,-4.5586,-4.5586,-4.5586,-4.5586,-4.5586,-4.5586,-4.5586,-4.5586,-4.5586,-4.5586,-4.5586,-4.5586,-4.5586,-4.5586,-4.5586,-4.5586,-4.5586,-4.5586,-4.5586,-4.5586,-4.5586,-4.5586,-4.5586,-4.5586,-4.5586,-4.5586,-4.5586,-4.5586,-4.5586,-4.5586,-4.5586,-4.5586,-4.5586,-4.5586,-4.5586,-4.5586,-4.5586,-4.5586,-4.5586,-4.5586,-4.5586,-4.5586,-4.5586,-4.5586,-4.5586,-4.5586,-4.5355,-4.4624,-4.5009,-4.5182,-4.4586,0.0,-4.5451,-4.5566,-4.5586,-4.5586,-4.5586,-4.5586,-4.5586,-4.5586,-4.5586,-4.5586,-4.5586,-4.5586,-4.5586,-4.5586,-4.5586,-4.5586,-4.5586,-4.5586,-4.5586,-4.5586,-4.5586,-4.5586,-4.5586,-4.5586,-4.5586,-4.5586,-4.5586,-4.5586,-4.5586,-4.5586,-4.5586,-4.5586,-4.5586,-4.5586,-4.5586,-4.5586,-4.5586,-4.5586,-4.3497,-4.4276,-4.5119,-4.5706,-4.624,-4.6658,-4.6858,-4.6509,-4.6067,-4.5643,-4.5586,-4.5586,-4.5586,-4.5586,-4.5586,-4.5586,-4.5586,-4.5586,-4.5586,-4.5586,-4.5586,-4.5586,-4.5586,-4.5586,-4.5586,-4.5586,-4.5586,-4.5586,-4.5586,-4.5586,-4.5586,-4.5586,-4.5586,-4.5586,-4.5586,-4.5586,-4.5586,-4.5586,-4.5586,-4.5586,-4.5586,-4.5586,-4.5586,-4.5586,-4.5586,-4.5586,-4.5586,-4.5586,-4.5586,-4.5586,-4.5586,-4.5586,-4.5586,-4.5586,-4.5586,-4.5586,-4.5586,-4.5586,-4.5586,-4.5586,-4.5586,-4.5586,-4.5586,-4.5586,-4.5586,-4.5586,-4.5586,-4.5586,-4.5586,-4.5586,-4.5586,-4.5586,-4.547,-4.5066,-4.4932,0.0,0.0,-4.4932,-4.5066,-4.5528,-4.5586,-4.5586,-4.5586,-4.5586,-4.5586,-4.5586,-4.5586,-4.5586,-4.5586,-4.5586,-4.5586,-4.5586,-4.5586,-4.5586,-4.5586,-4.5586,-4.5586,-4.5586,-4.5586,-4.5586,-4.5586,-4.5586,-4.5586,-4.5586,-4.5586,-4.5586,-4.5586,-4.5586,-4.5586,-4.5586,-4.5586,-4.5586,-4.5586,-4.5586,-4.5586,-4.5586,-4.3497,-4.4158,-4.4857,-4.5434,-4.5693,-4.5975,-4.6532,-4.6028,-4.5586,-4.5586,-4.5586,-4.5586,-4.5586,-4.5586,-4.5586,-4.5586,-4.5586,-4.5586,-4.5586,-4.5586,-4.5586,-4.5586,-4.5586,-4.5586,-4.5586,-4.5586,-4.5586,-4.5586,-4.5586,-4.5586,-4.5586,-4.5586,-4.5586,-4.5586,-4.5586,-4.5586,-4.5586,-4.5586,-4.5586,-4.5586,-4.5586,-4.5586,-4.5586,-4.5586,-4.5586,-4.5586,-4.5586,-4.5586,-4.5586,-4.5586,-4.5586,-4.5586,-4.5586,-4.5586,-4.5586,-4.5586,-4.5586,-4.5586,-4.5586,-4.5586,-4.5586,-4.5586,-4.5586,-4.5586,-4.5586,-4.5586,-4.5586,-4.5586,-4.5586,-4.5586,-4.5586,-4.5586,-4.5528,-4.5316,0.0,0.0,0.0,-4.4893,-4.4855,-4.5509,-4.5586,-4.5586,-4.5586,-4.5586,-4.5586,-4.5586,-4.5586,-4.5586,-4.5586,-4.5586,-4.5586,-4.5586,-4.5586,-4.5586,-4.5586,-4.5586,-4.5586,-4.5586,-4.5586,-4.5586,-4.5586,-4.5586,-4.5586,-4.5586,-4.5586,-4.5586,-4.5586,-4.5586,-4.5586,-4.5586,-4.5586,-4.5586,-4.5586,-4.5586,-4.5586,-4.5586,-4.3497,-4.4158,-4.469,-4.47,-4.5315,-4.5786,-4.5706,-4.5624,-4.5586,-4.5586,-4.5586,-4.5586,-4.5586,-4.5586,-4.5586,-4.5586,-4.5586,-4.5586,-4.5586,-4.5586,-4.5586,-4.5586,-4.5586,-4.5586,-4.5586,-4.5586,-4.5586,-4.5586,-4.5586,-4.5586,-4.5586,-4.5586,-4.5586,-4.5586,-4.5586,-4.5586,-4.5586,-4.5586,-4.5586,-4.5586,-4.5586,-4.5586,-4.5586,-4.5586,-4.5586,-4.5586,-4.5586,-4.5586,-4.5586,-4.5586,-4.5586,-4.5586,-4.5586,-4.5586,-4.5586,-4.5586,-4.5586,-4.5586,-4.5586,-4.5586,-4.5586,-4.5586,-4.5586,-4.5586,-4.5586,-4.5586,-4.5586,-4.5586,-4.5586,-4.5586,-4.5586,-4.5586,-4.5336,-4.4528,0.0,0.0,-4.4489,-4.5028,-4.5528,-4.5586,-4.5586,-4.5586,-4.5586,-4.5586,-4.5586,-4.5586,-4.5586,-4.5586,-4.5586,-4.5586,-4.5586,-4.5586,-4.5586,-4.5586,-4.5586,-4.5586,-4.5586,-4.5586,-4.5586,-4.5586,-4.5586,-4.5586,-4.5586,-4.5586,-4.5586,-4.5586,-4.5586,-4.5586,-4.5586,-4.5586,-4.5586,-4.5586,-4.5586,-4.5586,-4.5586,-4.5586,-4.3497,-4.3736,-4.4081,-4.453,-4.4844,-4.5185,-4.5533,-4.5586,-4.5586,-4.5586,-4.5586,-4.5586,-4.5586,-4.5586,-4.5586,-4.5586,-4.5586,-4.5586,-4.5586,-4.5586,-4.5586,-4.5586,-4.5586,-4.5586,-4.5586,-4.5586,-4.5586,-4.5586,-4.5586,-4.5586,-4.5586,-4.5586,-4.5586,-4.5586,-4.5586,-4.5586,-4.5586,-4.5586,-4.5586,-4.5586,-4.5586,-4.5586,-4.5586,-4.5586,-4.5586,-4.5586,-4.5586,-4.5586,-4.5586,-4.5586,-4.5586,-4.5586,-4.5586,-4.5586,-4.5586,-4.5586,-4.5586,-4.5586,-4.5586,-4.5586,-4.5586,-4.5586,-4.5586,-4.5586,-4.5586,-4.5586,-4.5586,-4.5586,-4.5586,-4.5586,-4.5586,-4.5586,-4.549,-4.5163,0.0,-4.547,-4.5143,-4.5393,-4.5586,-4.5586,-4.5586,-4.5586,-4.5586,-4.5586,-4.5586,-4.5586,-4.5586,-4.5586,-4.5586,-4.5586,-4.5586,-4.5586,-4.5586,-4.5586,-4.5586,-4.5586,-4.5586,-4.5586,-4.5586,-4.5586,-4.5586,-4.5586,-4.5586,-4.5586,-4.5586,-4.5586,-4.5586,-4.5586,-4.5586,-4.5586,-4.5586,-4.5586,-4.5586,-4.5586,-4.5586,-4.5586,-4.3497,-4.3497,-4.3679,-4.4308,-4.4419,-4.4612,-4.5182,-4.5381,-4.5438,-4.5438,-4.5531,-4.5586,-4.5586,-4.5586,-4.5586,-4.5586,-4.5586,-4.5586,-4.5586,-4.5586,-4.5586,-4.5586,-4.5586,-4.5586,-4.5586,-4.5586,-4.5586,-4.5586,-4.5586,-4.5586,-4.5586,-4.5586,-4.5586,-4.5586,-4.5586,-4.5586,-4.5586,-4.5586,-4.5586,-4.5586,-4.5586,-4.5586,-4.5586,-4.5586,-4.5586,-4.5586,-4.5586,-4.5586,-4.5586,-4.5586,-4.5586,-4.5586,-4.5586,-4.5586,-4.5586,-4.5586,-4.5586,-4.5586,-4.5586,-4.5586,-4.5586,-4.5586,-4.5586,-4.5586,-4.5586,-4.5586,-4.5586,-4.5586,-4.5586,-4.5586,-4.5586,-4.5586,-4.5586,-4.5586,-4.5586,-4.5586,-4.5586,-4.5586,-4.5586,-4.5586,-4.5586,-4.5586,-4.5586,-4.5586,-4.5586,-4.5586,-4.5586,-4.5586,-4.5586,-4.5586,-4.5586,-4.5586,-4.5586,-4.5586,-4.5586,-4.5586,-4.5586,-4.5586,-4.5586,-4.5586,-4.5586,-4.5586,-4.5586,-4.5586,-4.5586,-4.5586,-4.5586,-4.5586,-4.5586,-4.5586,-4.5586,-4.5586,-4.5586,-4.5586,-4.5586,-4.5586,-4.3497,-4.3497,-4.3597,-4.3924,-4.4016,-4.4136,-4.4527,-4.4872,-4.5096,-4.5096,-4.54,-4.5586,-4.5586,-4.5586,-4.5586,-4.5586,-4.5586,-4.5586,-4.5586,-4.5586,-4.5586,-4.5586,-4.5586,-4.5586,-4.5586,-4.5586,-4.5586,-4.5586,-4.5586,-4.5586,-4.5586,-4.5586,-4.5586,-4.5586,-4.5586,-4.5586,-4.5586,-4.5586,-4.5586,-4.5586,-4.5586,-4.5586,-4.5586,-4.5586,-4.5586,-4.5586,-4.5586,-4.5586,-4.5586,-4.5586,-4.5586,-4.5586,-4.5586,-4.5586,-4.5586,-4.5586,-4.5586,-4.5586,-4.5586,-4.5586,-4.5586,-4.5586,-4.5586,-4.5586,-4.5586,-4.5586,-4.5586,-4.5586,-4.5586,-4.5586,-4.5586,-4.5586,-4.5586,-4.5586,-4.5586,-4.5586,-4.5586,-4.5586,-4.5586,-4.5586,-4.5586,-4.5586,-4.5586,-4.5586,-4.5586,-4.5586,-4.5586,-4.5586,-4.5586,-4.5586,-4.5586,-4.5586,-4.5586,-4.5586,-4.5586,-4.5586,-4.5586,-4.5586,-4.5586,-4.5586,-4.5586,-4.5586,-4.5586,-4.5586,-4.5586,-4.5586,-4.5586,-4.5586,-4.5586,-4.5586,-4.5586,-4.5586,-4.5586,-4.5586,-4.5586,-4.5586,-4.3497,-4.3497,-4.3597,-4.3924,-4.4016,-4.4136,-4.4527,-4.4682,-4.4849,-4.5074,-4.5201,-4.5342,-4.5568,-4.5586,-4.5586,-4.5586,-4.5586,-4.5586,-4.5586,-4.5586,-4.5586,-4.5586,-4.5586,-4.5586,-4.5586,-4.5586,-4.5586,-4.5586,-4.5586,-4.5586,-4.5586,-4.5586,-4.5586,-4.5586,-4.5586,-4.5586,-4.5586,-4.5586,-4.5586,-4.5586,-4.5586,-4.5586,-4.5586,-4.5586,-4.5586,-4.5586,-4.5586,-4.5586,-4.5586,-4.5586,-4.5586,-4.5586,-4.5586,-4.5586,-4.5586,-4.5586,-4.5586,-4.5586,-4.5586,-4.5586,-4.5586,-4.5586,-4.5586,-4.5586,-4.5586,-4.5586,-4.5586,-4.5586,-4.5586,-4.5586,-4.5586,-4.5586,-4.5586,-4.5586,-4.5586,-4.5586,-4.5586,-4.5586,-4.5586,-4.5586,-4.5586,-4.5586,-4.5586,-4.5586,-4.5586,-4.5586,-4.5586,-4.5586,-4.5586,-4.5586,-4.5586,-4.5586,-4.5586,-4.5586,-4.5586,-4.5586,-4.5586,-4.5586,-4.5586,-4.5586,-4.5586,-4.5586,-4.5586,-4.5586,-4.5586,-4.5586,-4.5586,-4.5586,-4.5586,-4.5586,-4.5586,-4.5586,-4.5586,-4.5586,-4.5586,-4.5605,-4.3497,-4.3497,-4.3563,-4.3791,-4.3804,-4.3943,-4.4308,-4.4501,-4.4707,-4.5052,-4.5222,-4.5362,-4.5586,-4.5586,-4.5586,-4.5586,-4.5586,-4.5586,-4.5586,-4.5586,-4.5586,-4.5586,-4.5586,-4.5586,-4.5586,-4.5586,-4.5586,-4.5586,-4.5586,-4.5586,-4.5586,-4.5586,-4.5586,-4.5586,-4.5586,-4.5586,-4.5586,-4.5586,-4.5586,-4.5586,-4.5586,-4.5586,-4.5586,-4.5586,-4.5586,-4.5586,-4.5586,-4.5586,-4.5586,-4.5586,-4.5586,-4.5586,-4.5586,-4.5586,-4.5586,-4.5586,-4.5586,-4.5586,-4.5586,-4.5586,-4.5586,-4.5586,-4.5586,-4.5586,-4.5586,-4.5586,-4.5586,-4.5586,-4.5586,-4.5586,-4.5586,-4.5586,-4.5586,-4.5586,-4.5586,-4.5586,-4.5586,-4.5586,-4.5586,-4.5586,-4.5586,-4.5586,-4.5586,-4.5586,-4.5586,-4.5586,-4.5586,-4.5586,-4.5586,-4.5586,-4.5586,-4.5586,-4.5586,-4.5586,-4.5586,-4.5586,-4.5586,-4.5586,-4.5586,-4.5586,-4.5586,-4.5586,-4.5586,-4.5586,-4.5586,-4.5586,-4.5586,-4.5586,-4.5586,-4.5586,-4.5586,-4.5586,-4.5586,-4.5586,-4.5624,-4.5699,-4.3497,-4.3497,-4.3497,-4.3497,-4.3513,-4.3646,-4.3955,-4.4346,-4.4707,-4.5052,-4.5381,-4.5568,-4.5586,-4.5586,-4.5586,-4.5586,-4.5528,-4.547,-4.547,-4.5413,-4.5374,-4.5374,-4.5374,-4.5413,-4.547,-4.547,-4.547,-4.547,-4.547,-4.5509,-4.5586,-4.5586,-4.5586,-4.5586,-4.5586,-4.5586,-4.5586,-4.5586,-4.5586,-4.5586,-4.5586,-4.5586,-4.5586,-4.5586,-4.5586,-4.5586,-4.5586,-4.5586,-4.5586,-4.5586,-4.5586,-4.5586,-4.5586,-4.5586,-4.5586,-4.5586,-4.5586,-4.5586,-4.5586,-4.5586,-4.5586,-4.5586,-4.5586,-4.5586,-4.5586,-4.5586,-4.5586,-4.5586,-4.5586,-4.5586,-4.5586,-4.5586,-4.5586,-4.5586,-4.5586,-4.5586,-4.5586,-4.5586,-4.5586,-4.5586,-4.5586,-4.5586,-4.5586,-4.5586,-4.5586,-4.5586,-4.5586,-4.5586,-4.5586,-4.5586,-4.5586,-4.5586,-4.5586,-4.5586,-4.5586,-4.5586,-4.5586,-4.5586,-4.5586,-4.5586,-4.5586,-4.5586,-4.5586,-4.5586,-4.5586,-4.5586,-4.5586,-4.5586,-4.5586,-4.5586,-4.5586,-4.5586,-4.5586,-4.5605,-4.5699,-4.5796,-4.3497,-4.3497,-4.3497,-4.3497,-4.3726,-4.3912,-4.3986,-4.4346,-4.4707,-4.5052,-4.5161,-4.5322,-4.5568,-4.5586,-4.5586,-4.5586,-4.497,-4.4586,-4.4586,-4.3989,-4.3643,-4.3643,-4.3643,-4.3932,-4.4566,-4.4586,-4.4586,-4.4586,-4.4586,-4.4932,-4.5586,-4.5586,-4.5586,-4.5586,-4.5586,-4.5586,-4.5586,-4.5586,-4.5586,-4.5586,-4.5586,-4.5586,-4.5586,-4.5586,-4.5586,-4.5586,-4.5586,-4.5586,-4.5586,-4.5586,-4.5586,-4.5586,-4.5586,-4.5586,-4.5586,-4.5586,-4.5586,-4.5586,-4.5586,-4.5586,-4.5586,-4.5586,-4.5586,-4.5586,-4.5586,-4.5586,-4.5586,-4.5586,-4.5586,-4.5586,-4.5586,-4.5586,-4.5586,-4.5586,-4.5586,-4.5586,-4.5586,-4.5586,-4.5586,-4.5586,-4.5586,-4.5586,-4.5586,-4.5586,-4.5586,-4.5586,-4.5586,-4.5586,-4.5586,-4.5586,-4.5586,-4.5586,-4.5586,-4.5586,-4.5586,-4.5586,-4.5586,-4.5586,-4.5586,-4.5586,-4.5586,-4.5586,-4.5586,-4.5586,-4.5586,-4.5586,-4.5586,-4.5586,-4.5586,-4.5586,-4.5586,-4.5586,-4.5605,-4.5719,-4.5776,-4.5815,-4.3497,-4.3497,-4.3497,-4.3497,-4.3772,-4.4058,-4.4261,-4.4587,-4.4966,-4.5283,-4.5342,-4.54,-4.5586,-4.522,-4.4816,-4.4432,-4.3989,-4.372,-4.372,-4.3335,-4.3104,-4.3104,-4.347,-4.3682,-4.372,-4.4105,-4.4489,-4.4913,-4.4913,-4.5143,-4.5586,-4.5586,-4.5374,-4.4989,-4.5413,-4.5355,-4.5009,-4.5413,-4.5586,-4.5586,-4.5586,-4.5586,-4.5586,-4.5586,-4.5586,-4.5586,-4.5586,-4.5586,-4.5586,-4.5586,-4.5586,-4.5586,-4.5586,-4.5586,-4.5586,-4.5586,-4.5586,-4.5586,-4.5586,-4.5586,-4.5586,-4.5586,-4.5586,-4.5586,-4.5586,-4.5586,-4.5586,-4.5586,-4.5586,-4.5586,-4.5586,-4.5586,-4.5586,-4.5586,-4.5586,-4.5586,-4.5586,-4.5586,-4.5586,-4.5586,-4.5586,-4.5586,-4.5586,-4.5586,-4.5586,-4.5586,-4.5586,-4.5586,-4.5586,-4.5586,-4.5586,-4.5586,-4.5586,-4.5586,-4.5586,-4.5586,-4.5586,-4.5586,-4.5586,-4.5586,-4.5586,-4.5586,-4.5586,-4.5586,-4.5586,-4.5586,-4.5586,-4.5586,-4.5586,-4.5586,-4.5586,-4.5586,-4.5605,-4.568,-4.5745,-4.5815,-4.3497,-4.3548,-4.356,-4.3398,-4.3819,-4.4233,-4.4442,-4.4756,-4.511,-4.5549,-4.5336,-4.522,-4.5355,-4.4605,-4.3835,-4.3162,-4.297,-4.2874,-4.2874,-4.2874,-4.2874,-4.2874,-4.3662,-4.3778,-4.3104,-4.3758,-4.4509,-4.5374,-4.524,-4.524,-4.5374,-4.5374,-4.4989,-4.4335,-4.5201,-4.5201,-4.4566,-4.5278,-4.5586,-4.5586,-4.5586,-4.5586,-4.5586,-4.5586,-4.5586,-4.5586,-4.5586,-4.5586,-4.5586,-4.5586,-4.5586,-4.5586,-4.5586,-4.5586,-4.5586,-4.5586,-4.5586,-4.5586,-4.5586,-4.5586,-4.5586,-4.5586,-4.5586,-4.5586,-4.5586,-4.5586,-4.5586,-4.5586,-4.5586,-4.5586,-4.5586,-4.5586,-4.5586,-4.5586,-4.5586,-4.5586,-4.5586,-4.5586,-4.5586,-4.5586,-4.5586,-4.5586,-4.5586,-4.5586,-4.5586,-4.5586,-4.5586,-4.5586,-4.5586,-4.5586,-4.5586,-4.5586,-4.5586,-4.5586,-4.5586,-4.5586,-4.5586,-4.5586,-4.5586,-4.5586,-4.5586,-4.5586,-4.5586,-4.5586,-4.5586,-4.5586,-4.5586,-4.5586,-4.5586,-4.5586,-4.5586,-4.5586,-4.5586,-4.5624,-4.5731,-4.5854,-4.3497,-4.3726,-4.372,-4.302,-4.403,-4.4718,-4.4018,-4.4173,-4.4705,-4.549,-4.4335,-4.3701,-4.4393,-4.3739,-4.322,-4.3104,-4.2412,-4.1989,-4.1989,-4.1989,-4.1989,-4.1989,-4.2797,-4.3201,-4.3104,-4.3201,-4.3662,-4.447,-4.3778,-4.3797,-4.447,-4.447,-4.4412,-4.4335,-4.5201,-4.5528,-4.5432,-4.5547,-4.5586,-4.5586,-4.5586,-4.5586,-4.5586,-4.5586,-4.5586,-4.5586,-4.5586,-4.5586,-4.5586,-4.5586,-4.5586,-4.5586,-4.5586,-4.5586,-4.5586,-4.5586,-4.5586,-4.5586,-4.5586,-4.5586,-4.5586,-4.5586,-4.5586,-4.5586,-4.5586,-4.5586,-4.5586,-4.5586,-4.5586,-4.5586,-4.5586,-4.5586,-4.5586,-4.5586,-4.5586,-4.5586,-4.5586,-4.5586,-4.5586,-4.5586,-4.5586,-4.5586,-4.5586,-4.5586,-4.5586,-4.5586,-4.5586,-4.5586,-4.5586,-4.5586,-4.5586,-4.5586,-4.5586,-4.5586,-4.5586,-4.5586,-4.5586,-4.5586,-4.5586,-4.5586,-4.5586,-4.5586,-4.5586,-4.5586,-4.5586,-4.5586,-4.5586,-4.5586,-4.5586,-4.5586,-4.5586,-4.5586,-4.5605,-4.5738,-4.589,-4.6056,-4.291,-4.3093,-4.3223,-4.288,-4.3271,-4.3664,-4.3778,-4.3694,-4.3778,-4.4143,-4.3566,-4.3239,-4.3585,-4.2874,-4.2181,-4.1681,-4.1296,-4.1066,-4.1066,-4.1066,-4.1066,-4.1066,-4.1912,-4.2374,-4.2374,-4.2854,-4.3278,-4.3624,-4.3278,-4.3508,-4.4297,-4.4297,-4.4297,-4.4335,-4.5201,-4.5316,-4.4913,-4.5393,-4.5586,-4.5586,-4.5586,-4.5586,-4.5586,-4.5586,-4.5586,-4.5586,-4.5586,-4.5586,-4.5586,-4.5586,-4.5586,-4.5586,-4.5586,-4.5586,-4.5586,-4.5586,-4.5586,-4.5586,-4.5586,-4.5586,-4.5586,-4.5586,-4.5586,-4.5586,-4.5586,-4.5586,-4.5586,-4.5586,-4.5586,-4.5586,-4.5586,-4.5586,-4.5586,-4.5586,-4.5586,-4.5586,-4.5586,-4.5586,-4.5586,-4.5586,-4.5586,-4.5586,-4.5586,-4.5586,-4.5586,-4.5586,-4.5586,-4.5586,-4.5586,-4.5586,-4.5586,-4.5586,-4.5586,-4.5586,-4.5586,-4.5586,-4.5586,-4.5586,-4.5586,-4.5586,-4.5586,-4.5586,-4.5586,-4.5586,-4.5586,-4.5586,-4.5586,-4.5586,-4.5586,-4.5586,-4.5586,-4.5586,-4.5605,-4.5757,-4.5853,-4.5945]}]]